[[{"header":{"parameterUnit":"m.s-1","parameterCategory":1,"la1":30.6,"la2":28.766,"lo1":-90.7593,"lo2":-88.6598,"dy":0.0162,"dx":0.0183,"nx":116,"ny":114,"refTime":"2024-06-02T00:00:00:Z","depth":0,"parameterNumber":2,"parameterNumberName":"U-component_of_WINDS"},"data":[0.0,0.0,0.0,0.0,0.0,0.0,0.0,0.0,0.0,0.0,0.0,0.0,0.0,0.0,0.0,0.0,0.0,0.0,0.0,0.0,0.0,0.0,0.0,0.0,0.0,0.0,0.0,0.0,0.0,0.0,0.0,0.0,0.0,0.0,0.0,0.0,0.0,0.0,0.0,0.0,0.0,0.0,0.0,0.0,0.0,0.0,0.0,0.0,0.0,0.0,0.0,0.0,0.0,0.0,0.0,0.0,0.0,0.0,0.0,0.0,0.0,0.0,0.0,0.0,0.0,0.0,0.0,0.0,0.0,0.0,0.0,0.0,0.0,0.0,0.0,0.0,0.0,0.0,0.0,0.0,0.0,0.0,0.0,0.0,0.0,0.0,0.0,0.0,0.0,0.0,0.0,0.0,0.0,0.0,0.0,0.0,0.0,0.0,0.0,0.0,0.0,0.0,0.0,0.0,0.0,0.0,0.0,0.0,0.0,0.0,0.0,0.0,0.0,0.0,0.0,0.0,0.0,0.0,0.0,0.0,0.0,0.0,0.0,0.0,0.0,0.0,0.0,0.0,0.0,0.0,0.0,0.0,0.0,0.0,0.0,0.0,0.0,0.0,0.0,0.0,0.0,0.0,0.0,0.0,0.0,0.0,0.0,0.0,0.0,0.0,0.0,0.0,0.0,0.0,0.0,0.0,0.0,0.0,0.0,0.0,0.0,0.0,0.0,0.0,0.0,0.0,0.0,0.0,0.0,0.0,0.0,0.0,0.0,0.0,0.0,0.0,0.0,0.0,0.0,0.0,0.0,0.0,0.0,0.0,0.0,0.0,0.0,0.0,0.0,0.0,0.0,0.0,0.0,0.0,0.0,0.0,0.0,0.0,0.0,0.0,0.0,0.0,0.0,0.0,0.0,0.0,0.0,0.0,0.0,0.0,0.0,0.0,0.0,0.0,0.0,0.0,0.0,0.0,0.0,0.0,0.0,0.0,0.0,0.0,0.0,0.0,0.0,0.0,0.0,0.0,0.0,0.0,0.0,0.0,0.0,0.0,0.0,0.0,0.0,0.0,0.0,0.0,0.0,0.0,0.0,0.0,0.0,0.0,0.0,0.0,0.0,0.0,0.0,0.0,0.0,0.0,0.0,0.0,0.0,0.0,0.0,0.0,0.0,0.0,0.0,0.0,0.0,0.0,0.0,0.0,0.0,0.0,0.0,0.0,0.0,0.0,0.0,0.0,0.0,0.0,0.0,0.0,0.0,0.0,0.0,0.0,0.0,0.0,0.0,0.0,0.0,0.0,0.0,0.0,0.0,0.0,0.0,0.0,0.0,0.0,0.0,0.0,0.0,0.0,0.0,0.0,0.0,0.0,0.0,0.0,0.0,0.0,0.0,0.0,0.0,0.0,0.0,0.0,0.0,0.0,0.0,0.0,0.0,0.0,0.0,0.0,0.0,0.0,0.0,0.0,0.0,0.0,0.0,0.0,0.0,0.0,0.0,0.0,0.0,0.0,0.0,0.0,0.0,0.0,0.0,0.0,0.0,0.0,0.0,0.0,0.0,0.0,0.0,0.0,0.0,0.0,0.0,0.0,0.0,0.0,0.0,0.0,0.0,0.0,0.0,0.0,0.0,0.0,0.0,0.0,0.0,0.0,0.0,0.0,0.0,0.0,0.0,0.0,0.0,0.0,0.0,0.0,0.0,0.0,0.0,0.0,0.0,0.0,0.0,0.0,0.0,0.0,0.0,0.0,0.0,0.0,0.0,0.0,0.0,0.0,0.0,0.0,0.0,0.0,0.0,0.0,0.0,0.0,0.0,0.0,0.0,0.0,0.0,0.0,0.0,0.0,0.0,0.0,0.0,0.0,0.0,0.0,0.0,0.0,0.0,0.0,0.0,0.0,0.0,0.0,0.0,0.0,0.0,0.0,0.0,0.0,0.0,0.0,0.0,0.0,0.0,0.0,0.0,0.0,0.0,0.0,0.0,0.0,0.0,0.0,0.0,0.0,0.0,0.0,0.0,0.0,0.0,0.0,0.0,0.0,0.0,0.0,0.0,0.0,0.0,0.0,0.0,0.0,0.0,0.0,0.0,0.0,0.0,0.0,0.0,0.0,0.0,0.0,0.0,0.0,0.0,0.0,0.0,0.0,0.0,0.0,0.0,0.0,0.0,0.0,0.0,0.0,0.0,0.0,0.0,0.0,0.0,0.0,0.0,0.0,0.0,0.0,0.0,0.0,0.0,0.0,0.0,0.0,0.0,0.0,0.0,0.0,0.0,0.0,0.0,0.0,0.0,0.0,0.0,0.0,0.0,0.0,0.0,0.0,0.0,0.0,0.0,0.0,0.0,0.0,0.0,0.0,0.0,0.0,0.0,0.0,0.0,0.0,0.0,0.0,0.0,0.0,0.0,0.0,0.0,0.0,0.0,0.0,0.0,0.0,0.0,0.0,0.0,0.0,0.0,0.0,0.0,0.0,0.0,0.0,0.0,0.0,0.0,0.0,0.0,0.0,0.0,0.0,0.0,0.0,0.0,0.0,0.0,0.0,0.0,0.0,0.0,0.0,0.0,0.0,0.0,0.0,0.0,0.0,0.0,0.0,0.0,0.0,0.0,0.0,0.0,0.0,0.0,0.0,0.0,0.0,0.0,0.0,0.0,0.0,0.0,0.0,0.0,0.0,0.0,0.0,0.0,0.0,0.0,0.0,0.0,0.0,0.0,0.0,0.0,0.0,0.0,0.0,0.0,0.0,0.0,0.0,0.0,0.0,0.0,0.0,0.0,0.0,0.0,0.0,0.0,0.0,0.0,0.0,0.0,0.0,0.0,0.0,0.0,0.0,0.0,0.0,0.0,0.0,0.0,0.0,0.0,0.0,0.0,0.0,0.0,0.0,0.0,0.0,0.0,0.0,0.0,0.0,0.0,0.0,0.0,0.0,0.0,0.0,0.0,0.0,0.0,0.0,0.0,0.0,0.0,0.0,0.0,0.0,0.0,0.0,0.0,0.0,0.0,0.0,0.0,0.0,0.0,0.0,0.0,0.0,0.0,0.0,0.0,0.0,0.0,0.0,0.0,0.0,0.0,0.0,0.0,0.0,0.0,0.0,0.0,0.0,0.0,0.0,0.0,0.0,0.0,0.0,0.0,0.0,0.0,0.0,0.0,0.0,0.0,0.0,0.0,0.0,0.0,0.0,0.0,0.0,0.0,0.0,0.0,0.0,0.0,0.0,0.0,0.0,0.0,0.0,0.0,0.0,0.0,0.0,0.0,0.0,0.0,0.0,0.0,0.0,0.0,0.0,0.0,0.0,0.0,0.0,0.0,0.0,0.0,0.0,0.0,0.0,0.0,0.0,0.0,0.0,0.0,0.0,0.0,0.0,0.0,0.0,0.0,0.0,0.0,0.0,0.0,0.0,0.0,0.0,0.0,0.0,0.0,0.0,0.0,0.0,0.0,0.0,0.0,0.0,0.0,0.0,0.0,0.0,0.0,0.0,0.0,0.0,0.0,0.0,0.0,0.0,0.0,0.0,0.0,0.0,0.0,0.0,0.0,0.0,0.0,0.0,0.0,0.0,0.0,0.0,0.0,0.0,0.0,0.0,0.0,0.0,0.0,0.0,0.0,0.0,0.0,0.0,0.0,0.0,0.0,0.0,0.0,0.0,0.0,0.0,0.0,0.0,0.0,0.0,0.0,0.0,0.0,0.0,0.0,0.0,0.0,0.0,0.0,0.0,0.0,0.0,0.0,0.0,0.0,0.0,0.0,0.0,0.0,0.0,0.0,0.0,0.0,0.0,0.0,0.0,0.0,0.0,0.0,0.0,0.0,0.0,0.0,0.0,0.0,0.0,0.0,0.0,0.0,0.0,0.0,0.0,0.0,0.0,0.0,0.0,0.0,0.0,0.0,0.0,0.0,0.0,0.0,0.0,0.0,0.0,0.0,0.0,0.0,0.0,0.0,0.0,0.0,0.0,0.0,0.0,0.0,0.0,0.0,0.0,0.0,0.0,0.0,0.0,0.0,0.0,0.0,0.0,0.0,0.0,0.0,0.0,0.0,0.0,0.0,0.0,0.0,0.0,0.0,0.0,0.0,0.0,0.0,0.0,0.0,0.0,0.0,0.0,0.0,0.0,0.0,0.0,0.0,0.0,0.0,0.0,0.0,0.0,0.0,0.0,0.0,0.0,0.0,0.0,0.0,0.0,0.0,0.0,0.0,0.0,0.0,0.0,0.0,0.0,0.0,0.0,0.0,0.0,0.0,0.0,0.0,0.0,0.0,0.0,0.0,0.0,0.0,0.0,0.0,0.0,0.0,0.0,0.0,0.0,0.0,0.0,0.0,0.0,0.0,0.0,0.0,0.0,0.0,0.0,0.0,0.0,0.0,0.0,0.0,0.0,0.0,0.0,0.0,0.0,0.0,0.0,0.0,0.0,0.0,0.0,0.0,0.0,0.0,0.0,0.0,0.0,0.0,0.0,0.0,0.0,0.0,0.0,0.0,0.0,0.0,0.0,0.0,0.0,0.0,0.0,0.0,0.0,0.0,0.0,0.0,0.0,0.0,0.0,0.0,0.0,0.0,0.0,0.0,0.0,0.0,0.0,0.0,0.0,0.0,0.0,0.0,0.0,0.0,0.0,0.0,0.0,0.0,0.0,0.0,0.0,0.0,0.0,0.0,0.0,0.0,0.0,0.0,0.0,0.0,0.0,0.0,0.0,0.0,0.0,0.0,0.0,0.0,0.0,0.0,0.0,0.0,0.0,0.0,0.0,0.0,0.0,0.0,0.0,0.0,0.0,0.0,0.0,0.0,0.0,0.0,0.0,0.0,0.0,0.0,0.0,0.0,0.0,0.0,0.0,0.0,0.0,0.0,0.0,0.0,0.0,0.0,0.0,0.0,0.0,0.0,0.0,0.0,0.0,0.0,0.0,0.0,0.0,0.0,0.0,0.0,0.0,0.0,0.0,0.0,0.0,0.0,0.0,0.0,0.0,0.0,0.0,0.0,0.0,0.0,0.0,0.0,0.0,0.0,0.0,0.0,0.0,0.0,0.0,0.0,0.0,0.0,0.0,0.0,0.0,0.0,0.0,0.0,0.0,0.0,0.0,0.0,0.0,0.0,0.0,0.0,0.0,0.0,0.0,0.0,0.0,0.0,0.0,0.0,0.0,0.0,0.0,0.0,0.0,0.0,0.0,0.0,0.0,0.0,0.0,0.0,0.0,0.0,0.0,0.0,0.0,0.0,0.0,0.0,0.0,0.0,0.0,0.0,0.0,0.0,0.0,0.0,0.0,0.0,0.0,0.0,0.0,0.0,0.0,0.0,0.0,0.0,0.0,0.0,0.0,0.0,0.0,0.0,0.0,0.0,0.0,0.0,0.0,0.0,0.0,0.0,0.0,0.0,0.0,0.0,0.0,0.0,0.0,0.0,0.0,0.0,0.0,0.0,0.0,0.0,0.0,0.0,0.0,0.0,0.0,0.0,0.0,0.0,0.0,0.0,0.0,0.0,0.0,0.0,0.0,0.0,0.0,0.0,0.0,0.0,0.0,0.0,0.0,0.0,0.0,0.0,0.0,0.0,0.0,0.0,0.0,0.0,0.0,0.0,0.0,0.0,0.0,0.0,0.0,0.0,0.0,0.0,0.0,0.0,0.0,0.0,0.0,0.0,0.0,0.0,0.0,0.0,0.0,0.0,0.0,0.0,0.0,0.0,0.0,0.0,0.0,0.0,0.0,0.0,0.0,0.0,0.0,0.0,0.0,0.0,0.0,0.0,0.0,0.0,0.0,0.0,0.0,0.0,0.0,0.0,0.0,0.0,0.0,0.0,0.0,0.0,0.0,0.0,0.0,0.0,0.0,0.0,0.0,0.0,0.0,0.0,0.0,0.0,0.0,0.0,0.0,0.0,0.0,0.0,0.0,0.0,0.0,0.0,0.0,0.0,0.0,0.0,0.0,0.0,0.0,0.0,0.0,0.0,0.0,0.0,0.0,0.0,0.0,0.0,0.0,0.0,0.0,0.0,0.0,0.0,0.0,0.0,0.0,0.0,0.0,0.0,0.0,0.0,0.0,0.0,0.0,0.0,0.0,0.0,0.0,0.0,0.0,0.0,0.0,-2.3217,0.0,0.0,0.0,0.0,0.0,0.0,0.0,0.0,0.0,0.0,0.0,0.0,0.0,0.0,0.0,0.0,0.0,0.0,0.0,0.0,0.0,0.0,0.0,0.0,-1.0175,-1.0186,-1.0142,-1.0182,-1.0209,-1.0198,0.0,0.0,0.0,0.0,0.0,-1.0157,-1.018,-1.0595,-1.1402,-1.1821,-1.2654,-1.3846,-1.3782,-1.3096,-1.1899,0.0,0.0,0.0,0.0,0.0,0.0,0.0,0.0,0.0,0.0,0.0,0.0,0.0,0.0,0.0,0.0,0.0,0.0,0.0,0.0,0.0,0.0,0.0,0.0,0.0,0.0,0.0,0.0,0.0,0.0,0.0,0.0,0.0,0.0,0.0,0.0,0.0,0.0,0.0,0.0,0.0,0.0,0.0,0.0,0.0,0.0,0.0,0.0,0.0,0.0,0.0,0.0,0.0,0.0,0.0,0.0,0.0,0.0,0.0,0.0,0.0,0.0,0.0,0.0,0.0,0.0,0.0,0.0,0.0,0.0,0.0,-2.5225,0.0,0.0,0.0,0.0,0.0,0.0,0.0,0.0,0.0,0.0,0.0,0.0,0.0,0.0,0.0,0.0,0.0,0.0,0.0,0.0,0.0,-1.0122,-1.0384,-1.0428,-1.0481,-1.0623,-1.0651,-1.0595,-1.0444,-1.042,0.0,0.0,0.0,-1.0094,-1.0094,-1.0312,-1.117,-1.2708,-1.3309,-1.4895,-1.7388,-1.7911,-1.7119,-1.5167,-1.3795,0.0,0.0,0.0,0.0,0.0,0.0,0.0,0.0,0.0,0.0,0.0,0.0,0.0,0.0,0.0,0.0,0.0,0.0,0.0,0.0,0.0,0.0,0.0,0.0,0.0,0.0,0.0,0.0,0.0,0.0,0.0,0.0,0.0,0.0,0.0,0.0,0.0,0.0,0.0,0.0,0.0,0.0,0.0,0.0,0.0,0.0,0.0,0.0,0.0,0.0,0.0,0.0,0.0,0.0,0.0,0.0,0.0,0.0,0.0,0.0,0.0,0.0,0.0,-3.1673,-3.2602,-3.3795,-3.4083,-3.4218,-3.4096,-3.1871,-3.0024,-2.8486,-2.7621,0.0,0.0,0.0,0.0,0.0,0.0,0.0,0.0,0.0,0.0,0.0,0.0,0.0,0.0,0.0,0.0,0.0,0.0,0.0,-1.0387,-1.1152,-1.129,-1.1603,-1.2308,-1.242,-1.2145,-1.1386,-1.1335,0.0,0.0,-1.0098,-1.0094,-1.0094,-1.0906,-1.1784,-1.2694,-1.5666,-1.8397,-2.0831,-2.0231,-2.0154,-2.0365,-1.7324,-1.617,-1.6366,0.0,0.0,0.0,0.0,0.0,0.0,0.0,0.0,0.0,0.0,0.0,0.0,0.0,0.0,0.0,0.0,0.0,0.0,0.0,0.0,0.0,0.0,0.0,0.0,0.0,0.0,0.0,0.0,0.0,0.0,0.0,0.0,0.0,0.0,0.0,0.0,0.0,0.0,0.0,0.0,0.0,-1.6425,-1.8844,0.0,0.0,0.0,0.0,0.0,0.0,0.0,0.0,0.0,0.0,0.0,0.0,0.0,-3.0154,-3.1025,-3.3346,-3.4237,-3.3725,-3.6706,-3.7853,-3.7373,-3.8842,-3.9496,-3.9477,-3.9115,0.0,-3.1141,-3.025,0.0,0.0,0.0,0.0,0.0,0.0,0.0,0.0,0.0,0.0,0.0,0.0,0.0,0.0,0.0,0.0,0.0,0.0,0.0,0.0,0.0,-1.2306,-1.3039,-1.3356,-1.433,-1.4347,-1.2948,-1.2919,-1.2318,-1.0832,-1.0332,-1.0313,-1.0768,-1.1722,-1.3564,-1.6299,-1.9684,-2.1894,-2.2951,-2.3058,-2.3308,-2.3558,-2.1624,-1.9765,-1.7989,-1.6398,0.0,0.0,0.0,0.0,0.0,0.0,0.0,0.0,0.0,0.0,0.0,0.0,0.0,0.0,0.0,0.0,0.0,0.0,0.0,0.0,0.0,0.0,0.0,0.0,0.0,0.0,0.0,0.0,0.0,0.0,0.0,0.0,0.0,0.0,0.0,0.0,0.0,0.0,0.0,-1.689,-1.9277,-2.0333,-2.0364,-2.0151,0.0,0.0,0.0,0.0,0.0,0.0,0.0,0.0,0.0,-3.1187,-3.3006,-3.4365,-3.5238,-3.7276,-3.8354,-3.8488,-3.9988,-4.0758,-4.0893,-4.1623,-4.195,-4.195,-4.195,-4.0219,-3.7192,-3.4885,-3.2949,-3.132,0.0,0.0,0.0,0.0,-3.0573,-3.0439,0.0,0.0,0.0,0.0,0.0,0.0,0.0,0.0,0.0,0.0,0.0,0.0,-1.2324,-1.374,-1.4816,-1.52,-1.6468,-1.6568,-1.4999,-1.4599,-1.3676,-1.2011,-1.1187,-1.1145,-1.1949,-1.3572,-1.6265,-2.008,-2.2786,-2.4206,-2.4413,-2.5019,-2.5308,-2.5269,-2.4678,-2.2877,-2.023,-1.8949,-1.7432,-1.5713,0.0,0.0,0.0,0.0,0.0,0.0,0.0,0.0,0.0,0.0,0.0,0.0,0.0,0.0,0.0,0.0,0.0,0.0,0.0,0.0,0.0,0.0,0.0,0.0,0.0,0.0,0.0,0.0,0.0,0.0,0.0,0.0,0.0,0.0,0.0,0.0,0.0,-1.9665,-2.1671,-2.1805,-2.2763,-2.3009,0.0,0.0,0.0,0.0,0.0,0.0,-2.9429,-3.081,-3.2583,-3.4902,-3.6937,-3.8315,-3.8969,-4.0431,-4.1489,-4.2143,-4.2335,-4.2777,-4.3412,-4.3643,-4.3739,-4.3739,-4.3739,-4.3258,-4.22,-3.8988,-3.6815,-3.5417,-3.4545,-3.4199,-3.4314,-3.5187,-3.509,-3.4834,0.0,0.0,0.0,0.0,0.0,0.0,0.0,0.0,0.0,0.0,0.0,-1.233,-1.4824,-1.5914,-1.7111,-1.8699,-1.8918,-1.8573,-1.7656,-1.6115,-1.4775,-1.3717,-1.2958,-1.2952,-1.3758,-1.7055,-2.0075,-2.2699,-2.3649,-2.449,-2.525,-2.5288,-2.5308,-2.5308,-2.5269,-2.5025,-2.4528,-2.2185,-2.0476,-1.9145,-1.6766,0.0,0.0,0.0,0.0,0.0,0.0,0.0,0.0,0.0,0.0,0.0,0.0,0.0,0.0,0.0,0.0,0.0,0.0,0.0,0.0,0.0,0.0,0.0,0.0,0.0,0.0,0.0,0.0,0.0,0.0,0.0,0.0,0.0,0.0,0.0,0.0,0.0,0.0,-2.4499,-2.6312,0.0,0.0,0.0,0.0,-2.8576,-2.9432,-3.0638,-3.2303,-3.4491,-3.6108,-3.7026,-3.9962,-4.1558,-4.1615,-4.2508,-4.2989,-4.3047,-4.3816,-4.4201,-4.4259,-4.5094,-4.5479,-4.5479,-4.5479,-4.4979,-4.397,-4.1381,-3.9804,-3.8957,-3.8084,-3.7738,-3.7853,-3.8726,-3.9015,-3.9111,0.0,0.0,0.0,0.0,0.0,-0.8728,-0.9067,-0.947,-0.9915,-1.043,-1.2047,-1.3683,-1.5136,-1.7579,-1.9563,-2.0676,-2.1321,-2.1042,-1.9565,-1.7908,-1.6765,-1.6328,-1.5071,-1.5567,-1.8098,-2.0341,-2.2216,-2.3745,-2.4493,-2.5313,-2.6135,-2.6135,-2.6458,-2.7041,-2.7041,-2.6714,-2.6022,-2.3871,-2.2319,-2.1136,-1.876,-1.661,0.0,0.0,0.0,0.0,0.0,0.0,0.0,0.0,0.0,0.0,0.0,0.0,0.0,0.0,0.0,0.0,0.0,0.0,0.0,0.0,0.0,0.0,0.0,0.0,0.0,0.0,0.0,0.0,0.0,0.0,0.0,0.0,0.0,0.0,0.0,0.0,0.0,-2.7522,-2.9137,0.0,-2.9322,-3.0246,-3.1219,-3.2027,-3.3348,-3.4889,-3.6682,-3.8293,-3.9602,-4.0579,-4.243,-4.3412,-4.3412,-4.4259,-4.471,-4.471,-4.4998,-4.5152,-4.5152,-4.546,-4.5594,-4.5594,-4.5594,-4.5421,-4.5075,-4.4171,-4.2978,-4.17,-4.1393,-4.1277,-4.1316,-4.1623,-4.1739,-4.1797,0.0,0.0,0.0,0.0,-0.8812,-0.9017,-0.9437,-0.9691,-1.0228,-1.1316,-1.3254,-1.5193,-1.6894,-1.9658,-2.1691,-2.2515,-2.2901,-2.2573,-2.1319,-1.9414,-1.8286,-1.8183,-1.7456,-1.8393,-2.1252,-2.2599,-2.3702,-2.4594,-2.5365,-2.6038,-2.6601,-2.6921,-2.7395,-2.7993,-2.8015,-2.7731,-2.715,-2.5828,-2.4327,-2.2688,-2.0828,-1.9063,-1.738,0.0,0.0,0.0,0.0,0.0,0.0,0.0,0.0,0.0,0.0,0.0,0.0,0.0,0.0,0.0,0.0,0.0,0.0,0.0,0.0,0.0,0.0,0.0,0.0,0.0,0.0,0.0,0.0,0.0,0.0,0.0,0.0,0.0,0.0,0.0,-2.8761,-2.9609,-3.193,-3.3251,-3.2669,-3.3862,-3.5,-3.5789,-3.689,-3.8184,-3.9688,-4.0897,-4.187,-4.2593,-4.3883,-4.4518,-4.4392,-4.5207,-4.5531,-4.5429,-4.555,-4.5594,-4.5594,-4.5594,-4.5594,-4.5594,-4.5594,-4.5594,-4.5594,-4.5594,-4.496,-4.3932,-4.3932,-4.3932,-4.394,-4.3983,-4.4006,-4.4006,0.0,0.0,0.0,-0.8898,-0.9014,-0.921,-0.9813,-0.9906,-1.0914,-1.3693,-1.4831,-1.6736,-2.0215,-2.21,-2.3413,-2.4235,-2.357,-2.3021,-2.2862,-2.0554,-1.9198,-1.9184,-2.0128,-2.1377,-2.2949,-2.3797,-2.4627,-2.5448,-2.6222,-2.6621,-2.6708,-2.7611,-2.8055,-2.8086,-2.8143,-2.8179,-2.8143,-2.814,-2.6547,-2.3953,-2.305,-2.1636,-1.9902,0.0,0.0,0.0,0.0,0.0,0.0,0.0,0.0,0.0,0.0,0.0,0.0,0.0,0.0,0.0,0.0,0.0,0.0,0.0,0.0,0.0,0.0,0.0,0.0,0.0,0.0,0.0,0.0,0.0,0.0,0.0,0.0,0.0,-2.4815,-2.8805,-3.148,-3.0794,-3.4758,-3.6909,-3.5353,-3.7353,-3.9111,-3.99,-3.9955,-4.0322,-4.1132,-4.2239,-4.2853,-4.2853,-4.4297,-4.4931,-4.4593,-4.5243,-4.541,-4.5096,-4.5429,-4.5586,-4.5594,-4.5594,-4.5594,-4.5594,-4.5594,-4.5594,-4.5594,-4.5594,-4.5594,-4.5594,-4.5594,-4.5594,-4.562,-4.5747,-4.579,-4.579,0.0,0.0,-0.8679,-0.9142,-0.9268,-0.9421,-0.9832,-0.9984,-1.0789,-1.2873,-1.4479,-1.6736,-2.0215,-2.2108,-2.3435,-2.4295,-2.3631,-2.2851,-2.2083,-2.0249,-1.9736,-2.0925,-2.2959,-2.4277,-2.4768,-2.4911,-2.5448,-2.6347,-2.6525,-2.7253,-2.8485,-2.8747,-2.9249,-2.9957,-2.9973,-2.9683,-2.9173,-2.9136,-2.8294,-2.6879,-2.5279,-2.3588,-2.1907,0.0,0.0,0.0,0.0,0.0,0.0,0.0,0.0,0.0,0.0,0.0,0.0,0.0,0.0,0.0,0.0,0.0,0.0,0.0,0.0,0.0,0.0,0.0,0.0,0.0,0.0,0.0,0.0,0.0,0.0,0.0,0.0,-2.9973,-2.9785,-3.1251,-3.3164,-3.5312,-3.7228,-3.8652,-3.9352,-4.0031,-4.0781,-4.157,-4.1644,-4.1992,-4.28,-4.3373,-4.3662,-4.3662,-4.4369,-4.4682,-4.4593,-4.4781,-4.4954,-4.5096,-4.5201,-4.5362,-4.5594,-4.5594,-4.5594,-4.5594,-4.5594,-4.5594,-4.5594,-4.5594,-4.5594,-4.5594,-4.5594,-4.5594,-4.5603,-4.5643,-4.5648,-4.5648,0.0,-0.8738,-0.8885,-0.9304,-0.9437,-0.9577,-0.9863,-1.0018,-1.1019,-1.3559,-1.5085,-1.7263,-2.0762,-2.2305,-2.332,-2.3848,-2.3144,-2.2221,-2.1225,-2.0229,-2.0564,-2.2621,-2.4102,-2.5075,-2.5443,-2.5739,-2.6176,-2.6744,-2.7383,-2.8238,-2.9294,-2.9661,-3.0132,-3.0696,-3.0768,-3.0507,-3.0054,-3.0019,-2.9491,-2.8587,-2.7113,-2.5699,-2.4308,-2.305,-2.1903,-2.0881,-2.026,-1.962,-1.903,-1.8807,0.0,0.0,0.0,0.0,0.0,0.0,0.0,0.0,0.0,0.0,0.0,0.0,0.0,0.0,0.0,0.0,0.0,0.0,0.0,0.0,0.0,0.0,0.0,0.0,-3.0772,-3.2959,-3.3987,-3.4714,-3.5862,-3.7771,-3.9313,-4.0579,-4.1515,-4.1919,-4.2304,-4.2763,-4.28,-4.3002,-4.3478,-4.3677,-4.3788,-4.3788,-4.415,-4.428,-4.414,-4.4447,-4.4618,-4.4638,-4.4806,-4.5074,-4.54,-4.54,-4.5476,-4.5594,-4.5594,-4.5594,-4.5594,-4.5594,-4.5594,0.0,0.0,0.0,0.0,0.0,-4.5669,-4.5669,0.0,-0.8835,-0.8969,-0.9426,-0.9559,-0.9673,-0.9872,-1.0018,-1.1336,-1.4791,-1.6003,-1.7888,-2.1367,-2.248,-2.2988,-2.3047,-2.2344,-2.1517,0.0,-2.0659,-2.1743,-2.4002,-2.4235,-2.4703,-2.5519,-2.6304,-2.6824,-2.7065,-2.8526,-2.9336,-2.9554,-3.0347,-3.0717,-3.0722,-3.0839,-3.0815,-3.0695,-3.069,-3.0234,-2.9469,-2.8592,-2.763,-2.6528,-2.4874,-2.423,-2.3991,-2.2481,-2.1875,-2.1718,-2.1071,0.0,0.0,0.0,0.0,0.0,0.0,0.0,0.0,0.0,0.0,0.0,0.0,0.0,0.0,0.0,0.0,0.0,0.0,0.0,0.0,0.0,0.0,0.0,0.0,-3.3101,-3.464,-3.7382,-3.845,-3.8982,-3.8982,-4.0946,-4.2341,-4.2433,-4.3075,-4.3515,-4.3515,-4.3515,-4.3515,-4.3515,0.0,0.0,0.0,0.0,-4.3804,-4.3496,-4.4154,-4.4323,-4.3998,-4.4359,-4.4732,-4.5096,-4.5096,-4.5273,-4.5594,-4.5594,-4.5594,-4.5594,-4.5594,-4.5594,-4.5594,-4.5594,-4.5594,-4.562,-4.5725,-4.5789,-4.5789,0.0,-0.9047,-0.9144,-0.9443,-0.9599,-0.9723,-0.9878,-1.0018,-1.1118,-1.3989,-1.5113,-1.6982,-2.0469,-2.1621,-2.2148,-2.2148,-2.1948,-2.1712,0.0,0.0,-2.3588,-2.4076,-2.4724,-2.5499,-2.6347,-2.6594,-2.7369,-2.8733,-2.9162,-2.9732,-3.045,-3.0614,-3.0767,-3.0859,-3.0774,-3.0721,-3.0693,-3.0631,-3.0516,-3.0299,-2.9483,-2.8178,-2.659,-2.5534,-2.5019,-2.4801,-2.4639,-2.4445,-2.4314,-2.4327,-2.3318,-2.2026,-2.2062,0.0,0.0,0.0,0.0,0.0,0.0,0.0,0.0,0.0,0.0,0.0,0.0,0.0,0.0,0.0,0.0,0.0,0.0,0.0,0.0,-3.3587,-3.5112,-3.6777,-3.9118,-4.0139,-4.0636,-4.0636,-4.1625,-4.2543,-4.3185,-4.3423,-4.3515,-4.3515,-4.3515,-4.3515,-4.3515,-4.3515,-4.3515,-4.3515,-4.3546,-4.3582,-4.3515,-4.3647,-4.3804,-4.4001,0.0,0.0,-4.5096,-4.5096,-4.5273,-4.5594,-4.5594,-4.5594,-4.5594,-4.5594,-4.5594,-4.5594,-4.5594,-4.5594,-4.5594,-4.5627,-4.5635,-4.5635,-0.9179,-0.9247,-0.9367,-0.9559,-0.9684,-0.9781,-0.9881,-0.9991,-1.1017,-1.3734,-1.4484,-1.5904,-1.8965,-1.9687,-1.9941,-1.9941,-2.0257,0.0,0.0,-2.2782,-2.3816,-2.4664,-2.5505,-2.6154,-2.6601,-2.749,-2.8388,-2.9304,-2.9793,-3.0317,-3.0794,-3.0794,-3.08,-3.0793,-3.0722,-3.0669,-3.0606,-3.0561,-3.0559,-3.0473,-2.9661,-2.8573,-2.7293,-2.6408,-2.5955,-2.5762,-2.5417,-2.5248,-2.5163,-2.5264,-2.4731,-2.4043,-2.4043,-2.3176,-2.1825,0.0,0.0,0.0,0.0,0.0,0.0,0.0,0.0,0.0,0.0,0.0,0.0,0.0,0.0,-2.8535,0.0,0.0,-3.378,-3.5866,-3.7137,-3.8336,-3.9709,-4.0946,-4.1699,-4.1699,-4.2415,-4.3057,-4.346,-4.3515,-4.3515,-4.3515,-4.3515,-4.3515,-4.3515,-4.3515,-4.3515,-4.3515,-4.3515,-4.3515,-4.3515,-4.3515,-4.358,-4.3758,-4.3758,-4.4031,-4.4561,-4.4757,-4.5022,-4.5352,-4.5522,-4.5594,-4.5594,-4.5594,-4.5594,-4.5594,-4.5594,-4.5594,-4.5594,-4.5594,-4.5594,-4.5594,-0.9284,-0.9408,-0.9538,-0.9683,-0.9757,-0.9821,-0.9881,-0.9965,-1.0872,-1.3281,-1.374,-1.4789,-1.7226,-1.748,-1.7558,-1.7712,0.0,0.0,0.0,-2.2647,-2.3889,-2.525,-2.5962,-2.6515,-2.6853,-2.8255,-2.9211,-2.9659,-3.0375,-3.0775,-3.0858,-3.0858,-3.0792,-3.0682,-3.0673,-3.0609,-3.0498,-3.0495,-3.0482,-3.0433,-2.9799,-2.9037,-2.8222,-2.7301,-2.6722,-2.6266,-2.5568,-2.5303,-2.5322,-2.5293,-2.5303,-2.5322,-2.5322,-2.491,-2.4132,-2.2639,-2.2119,0.0,0.0,0.0,0.0,0.0,0.0,0.0,0.0,0.0,-2.6345,-2.8662,-3.0506,-3.2222,-3.3968,-3.5025,-3.6214,-3.7935,-3.8808,-3.9519,-4.026,-4.1479,-4.2359,-4.2506,-4.3112,-4.3515,-4.3515,-4.3515,-4.3515,-4.3515,-4.3515,-4.3515,-4.3515,-4.3515,-4.3515,-4.3515,-4.3515,-4.3515,-4.3515,-4.3515,-4.3515,-4.3515,-4.3515,-4.3679,-4.3998,-4.435,-4.4707,-4.5118,-4.5448,-4.5594,-4.5594,-4.5594,-4.5594,-4.5594,-4.5594,-4.5594,-4.5594,-4.5594,-4.5594,-4.5594,0.0,-0.9408,-0.9538,-0.9683,-0.9757,-0.9821,-0.9881,-0.9965,-1.0436,-1.1635,-1.2468,-1.3655,-1.5488,-1.5684,-1.5972,-1.6685,0.0,0.0,-2.1513,-2.3721,-2.5096,-2.5288,-2.5385,-2.6198,-2.7818,-2.81,-2.8989,-3.0552,-3.0776,-3.0819,-3.0721,-3.0721,-3.0679,-3.0614,-3.0559,-3.0505,-3.0494,-3.0449,-3.0408,-3.0406,-3.037,-2.9852,-2.8984,-2.8222,-2.6945,-2.5503,-2.5365,-2.5339,-2.5387,-2.5327,-2.5339,-2.5383,-2.5383,-2.5333,-2.5098,-2.4256,0.0,-2.2638,-2.1596,-2.1404,-2.2025,-2.4284,-2.5004,-2.6183,0.0,0.0,-3.1525,-3.3224,-3.4884,-3.6084,-3.6318,-3.7214,-3.8248,-3.9166,-3.9598,-4.0333,-4.1809,-4.2194,-4.2561,-4.3277,-4.346,-4.3515,-4.3515,-4.3515,-4.3515,-4.3515,-4.3515,-4.3515,-4.3515,-4.3515,-4.3515,-4.3515,-4.3515,-4.3515,-4.3515,-4.3515,-4.3515,-4.3515,-4.3515,-4.3679,-4.3998,-4.4061,-4.4436,-4.5118,-4.5448,-4.5594,-4.5594,-4.5594,-4.5594,-4.5594,-4.5594,-4.5594,-4.5594,-4.5594,-4.5594,-4.5594,0.0,-0.9358,-0.9517,-0.9567,-0.9676,-0.9786,-0.9875,-0.9924,-1.0323,-1.1356,-1.1814,-1.2518,-1.3747,-1.4336,-1.4975,-1.5763,-1.8504,0.0,-2.0762,-2.3197,-2.4812,-2.5288,-2.5788,-2.6429,-2.7222,-2.83,-2.9228,-2.9991,-3.0527,-3.0747,-3.0695,-3.0665,-3.0611,-3.0545,-3.0501,-3.0477,-3.0436,-3.0414,-3.0404,-3.0358,-2.9926,-2.9233,-2.8421,-2.7646,-2.6531,-2.5391,-2.5375,-2.5383,0.0,0.0,-2.5372,-2.5417,-2.5447,-2.511,-2.4635,-2.4328,-2.4004,0.0,-2.4479,-2.5002,-2.5762,0.0,-2.8242,-2.9383,-3.2041,-3.3018,-3.3802,-3.5371,-3.703,-3.8143,-3.797,-3.8543,-3.9253,0.0,-4.0326,-4.1001,-4.2139,-4.2304,-4.2415,-4.2763,-4.28,-4.2983,-4.346,-4.3515,-4.3515,-4.3515,-4.3515,-4.3515,-4.3515,-4.3515,-4.3515,-4.3515,-4.3515,-4.3515,-4.3515,-4.3515,-4.3736,-4.4195,-4.3718,-4.3821,-4.4412,-4.4116,-4.4659,-4.5832,-4.6437,-4.6838,-4.7028,-4.6547,-4.6355,-4.6317,-4.5806,-4.5594,-4.5594,-4.5594,-4.5594,-4.5594,0.0,-0.9223,-0.9412,-0.9491,-0.9589,-0.9695,-0.9866,-0.9893,-1.0198,-1.1021,-1.1141,-1.1477,-1.2353,-1.3649,-1.4599,-1.4913,-1.7493,-1.9436,-2.0258,-2.2682,-2.4452,-2.5269,-2.5924,-2.6402,-2.672,-2.8035,-2.884,-2.9134,-2.974,-2.9983,-2.9955,-2.9905,-2.9846,-2.9795,-3.0008,-3.009,-3.0038,-3.0038,-3.0038,-2.9973,-2.9178,-2.8358,-2.759,-2.701,-2.6074,-2.5067,-2.5062,-2.5073,0.0,-2.4786,-2.4726,-2.4742,-2.4812,-2.4546,-2.4201,-2.4219,-2.442,-2.4991,-2.6705,0.0,0.0,-2.9863,-3.0912,-3.1987,-3.3546,-3.4535,-3.5487,-3.678,-3.8009,-3.8783,-3.8607,-3.895,-3.9536,-4.0309,-4.0889,-4.1572,-4.2505,-4.2433,-4.2304,-4.2304,-4.2304,-4.2525,-4.3112,-4.3369,-4.3515,-4.3515,-4.3515,-4.3515,-4.3515,-4.3515,-4.3515,-4.3515,-4.3718,-4.3828,-4.3828,-4.4048,-4.4342,-4.4691,-4.4323,-4.4342,-4.469,-4.4686,-4.5265,-4.6379,-4.7049,-4.7579,-4.7875,-4.7069,-4.6801,-4.6817,-4.5932,-4.5594,-4.5594,-4.5594,-4.5594,-4.5594,0.0,0.0,-0.9189,-0.9447,-0.9508,-0.9593,-0.9857,-0.9893,-0.9978,-1.0214,-1.0238,-1.0572,-1.1443,-1.3831,-1.5004,-1.411,-1.7136,-1.9445,-2.0254,-2.2682,-2.4452,-2.5269,-2.5386,-2.5861,-2.678,-2.691,-2.7399,-2.8243,-2.8261,-2.8214,-2.8078,-2.8074,-2.8032,-2.8016,-2.8786,-2.9132,-2.9146,-2.9146,-2.9146,-2.9069,-2.8266,-2.747,-2.6742,-2.6776,-2.5721,-2.4232,-2.4239,0.0,-2.4115,-2.325,-2.3015,-2.3082,-2.3146,-2.3643,0.0,-2.4282,-2.4851,0.0,0.0,0.0,-2.8808,-3.1387,-3.2671,-3.3725,-3.5262,-3.6292,-3.7126,-3.7828,-3.7803,-3.7719,-3.7982,-3.8252,-3.8946,-4.0521,-4.1239,-4.2013,-4.329,-4.2782,-4.2304,-4.2304,-4.2304,-4.2304,0.0,-4.3039,-4.3515,-4.3515,-4.3515,-4.3515,-4.3515,-4.3515,-4.3515,-4.3515,-4.4268,-4.4672,-4.4672,-4.5443,-4.5461,-4.4727,-4.5461,-4.5424,-4.4727,-4.5838,-4.635,-4.6416,-4.6834,-4.7206,-4.7457,-4.6649,-4.6555,-4.6817,-4.5932,-4.5594,-4.5594,-4.5594,-4.5594,-4.5594,0.0,0.0,0.0,-0.9131,-0.9359,-0.9589,-0.9857,-0.9893,-0.9957,-1.0108,-1.0674,0.0,0.0,0.0,0.0,0.0,0.0,-1.7915,-1.9338,-2.1231,-2.2973,-2.4447,-2.5085,-2.5573,-2.5921,-2.656,-2.7063,-2.74,-2.789,-2.8109,-2.8055,-2.7982,-2.7923,-2.7915,-2.8184,-2.8299,-2.8299,-2.8299,-2.8607,-2.8973,-2.7582,-2.7223,-2.7378,-2.633,-2.5183,-2.4059,0.0,0.0,-2.3289,-2.2992,-2.2946,-2.3108,-2.3759,0.0,0.0,-2.4149,-2.5691,-2.7488,-2.8654,0.0,-3.1269,-3.326,-3.3984,-3.4617,-3.6207,-3.677,-3.7146,-3.7846,-3.7475,-3.7222,-3.7877,-3.7462,-3.7837,-4.0388,-4.0948,-4.1651,-4.3269,-4.2991,-4.2554,-4.232,-4.2304,0.0,0.0,0.0,0.0,-4.3515,-4.3515,-4.3515,-4.3515,-4.3515,-4.3515,-4.3515,-4.4287,-4.4691,-4.4691,-4.5498,-4.603,-4.6305,-4.6562,-4.6269,-4.5535,-4.6451,-4.7011,-4.7295,-4.7965,-4.8484,-4.8764,-4.7899,-4.7459,-4.722,-4.639,-4.5879,-4.5594,-4.5594,-4.5594,-4.5594,0.0,0.0,0.0,0.0,0.0,0.0,0.0,0.0,0.0,0.0,0.0,0.0,0.0,0.0,0.0,0.0,0.0,0.0,-1.8347,0.0,-2.1584,-2.3064,-2.4045,-2.4569,-2.4615,-2.5226,-2.5683,-2.6003,-2.6495,-2.6878,-2.7122,-2.7071,-2.7041,-2.7061,-2.7366,-2.7493,-2.7475,-2.7391,-2.7698,-2.8044,-2.6299,-2.5983,-2.64,-2.5101,-2.4006,0.0,0.0,0.0,-2.1965,-2.1926,-2.2133,-2.2558,0.0,0.0,-2.3727,-2.486,-2.6589,-2.8457,-2.9955,-3.1435,-3.3058,-3.5069,-3.531,-3.5496,-3.7102,-3.669,-3.6187,-3.6946,-3.5854,-3.5057,-3.5993,-3.5511,-3.596,-3.9115,-4.0021,-4.1014,-4.2968,-4.2887,-4.2538,-4.2338,-4.2304,-4.2304,0.0,0.0,0.0,-4.3515,-4.3515,-4.3515,-4.3515,-4.3515,-4.3515,-4.3515,-4.4562,-4.5131,-4.5131,-4.6214,-4.7021,-4.7516,-4.7241,-4.6966,-4.6783,-4.7297,-4.7666,-4.7951,-4.847,-4.8913,-4.9224,-4.8363,-4.7735,-4.7251,-4.6441,-4.5832,-4.5419,-4.5419,-4.5495,-4.5594,0.0,0.0,0.0,0.0,0.0,0.0,0.0,0.0,0.0,0.0,0.0,0.0,0.0,0.0,0.0,0.0,0.0,0.0,0.0,0.0,0.0,-2.1292,-2.2356,-2.2957,-2.2996,-2.3055,-2.3448,-2.4133,-2.4217,-2.46,-2.5272,-2.5343,-2.5374,-2.5411,-2.6234,-2.6579,-2.649,-2.6304,-2.6308,-2.6303,-2.4476,-2.3896,-2.4026,-2.3279,0.0,0.0,0.0,0.0,0.0,0.0,0.0,0.0,0.0,0.0,0.0,-2.6435,-2.7631,-2.8966,-3.1546,-3.2906,-3.4199,-3.668,-3.6611,-3.6335,-3.7826,-3.6155,-3.4505,-3.5232,-3.3171,-3.156,0.0,0.0,-3.3544,-3.69,-3.8615,-4.029,-4.2493,-4.2548,-4.2376,0.0,0.0,0.0,0.0,0.0,0.0,-4.3515,0.0,-4.3515,-4.3515,-4.3515,-4.3515,-4.3515,-4.5057,-4.5902,-4.5902,-4.7498,-4.8306,-4.8306,-4.7516,-4.7553,-4.8306,-4.8306,-4.8306,-4.8306,-4.8306,-4.8513,-4.8807,-4.8048,-4.743,-4.6891,-4.6129,-4.5521,-4.5074,-4.5074,-4.5282,-4.5559,0.0,0.0,0.0,0.0,0.0,0.0,0.0,0.0,0.0,0.0,0.0,0.0,0.0,0.0,0.0,0.0,0.0,0.0,0.0,0.0,0.0,0.0,0.0,-2.2256,-2.2912,-2.3046,-2.3198,-2.3379,-2.3407,-2.35,-2.3692,-2.3642,-2.3648,-2.3646,-2.383,-2.3889,-2.3858,-2.3765,-2.4105,-2.4644,0.0,-2.3469,-2.4014,0.0,0.0,0.0,0.0,0.0,0.0,0.0,0.0,0.0,0.0,0.0,-2.7407,0.0,0.0,-3.16,-3.3514,-3.5156,-3.6465,-3.7129,-3.7006,-3.6651,-3.6414,-3.5288,-3.4165,-3.3654,-3.2041,-3.0777,0.0,0.0,0.0,-3.6033,-3.8412,0.0,-4.2518,-4.3243,0.0,-4.3218,0.0,-4.3185,-4.3185,-4.3386,0.0,0.0,-4.3515,-4.3515,-4.3515,-4.3515,-4.3515,-4.3515,-4.5057,-4.5902,-4.5902,-4.7498,-4.8306,-4.8306,-4.8104,-4.8104,-4.8306,-4.8306,-4.8306,-4.8306,-4.8306,-4.8364,-4.844,-4.8218,-4.7527,-4.6526,-4.6324,-4.5618,-4.4739,-4.4739,-4.4769,-4.4896,0.0,0.0,0.0,0.0,0.0,0.0,0.0,0.0,0.0,0.0,0.0,0.0,0.0,0.0,0.0,0.0,0.0,0.0,0.0,0.0,0.0,0.0,-1.9365,-2.0156,-2.0659,-2.1144,-2.1363,0.0,0.0,0.0,-2.2485,-2.2512,-2.2701,-2.3032,-2.2991,-2.297,-2.2932,-2.2805,0.0,0.0,0.0,0.0,0.0,0.0,0.0,0.0,0.0,0.0,0.0,0.0,0.0,-2.6067,-2.6865,-2.8104,-2.9433,-3.0333,0.0,-3.3594,-3.4902,-3.6543,-3.7851,-3.7808,-3.7392,-3.668,-3.5411,-3.4115,-3.28,-3.1505,-2.9918,0.0,-2.9234,0.0,0.0,0.0,0.0,0.0,-4.1977,-4.3126,-4.371,0.0,-4.3515,0.0,-4.3515,-4.3515,-4.3515,0.0,-4.3515,-4.3515,-4.3515,-4.3515,-4.3644,-4.4011,-4.5241,-4.6232,-4.6948,-4.7847,-4.8306,-4.8306,-4.8306,-4.8306,-4.8306,-4.8306,-4.8306,-4.8306,0.0,-4.8306,-4.8306,-4.8306,-4.7684,-4.6662,-4.6328,-4.5627,-4.4824,-4.4482,-4.4447,-4.4637,0.0,0.0,0.0,0.0,0.0,0.0,0.0,0.0,0.0,0.0,0.0,0.0,0.0,0.0,0.0,0.0,0.0,0.0,0.0,0.0,0.0,0.0,-1.7087,-1.7682,-1.7779,-1.8595,-1.9038,0.0,0.0,0.0,0.0,0.0,0.0,0.0,0.0,0.0,0.0,0.0,0.0,0.0,0.0,0.0,0.0,0.0,0.0,0.0,0.0,0.0,0.0,0.0,-2.6167,-2.7218,-2.884,-3.0075,-3.1106,-3.2047,-3.3539,-3.5078,-3.6074,-3.7539,-3.871,-3.8453,-3.7681,-3.6514,-3.465,-3.283,-3.1049,-2.93,0.0,-2.6819,-2.7434,-2.8319,-2.9965,-3.3099,0.0,-3.8825,-4.1356,-4.2696,-4.3436,-4.3563,-4.3531,-4.3515,-4.3515,-4.3515,-4.3515,-4.3515,-4.3515,-4.3515,-4.3515,-4.3515,-4.392,-4.4837,-4.5645,-4.6783,-4.8288,-4.8306,-4.8306,-4.8306,-4.8306,-4.8306,-4.8306,-4.8306,-4.8306,-4.8306,-4.8306,-4.8306,-4.8306,-4.8306,-4.7828,-4.7021,-4.6342,-4.5764,-4.5207,-4.4389,-4.43,-4.4597,0.0,0.0,0.0,0.0,0.0,0.0,0.0,0.0,0.0,0.0,-1.4102,-1.4203,0.0,0.0,0.0,0.0,0.0,0.0,0.0,0.0,0.0,0.0,-1.6493,-1.7032,-1.7706,0.0,0.0,0.0,0.0,0.0,0.0,0.0,0.0,0.0,0.0,0.0,0.0,0.0,0.0,0.0,0.0,0.0,0.0,0.0,0.0,0.0,0.0,0.0,0.0,0.0,-2.7714,-2.8838,-2.9875,-3.1288,-3.2785,-3.3777,-3.4844,-3.6056,-3.7694,-3.8906,-3.9472,-3.8609,-3.7686,-3.6349,-3.3885,-3.1966,0.0,0.0,-2.7358,-2.6493,-2.5871,-2.7044,-2.9187,-3.2493,0.0,0.0,0.0,0.0,-4.3157,0.0,0.0,0.0,0.0,0.0,0.0,0.0,-4.3515,-4.3515,-4.3515,-4.3515,-4.4158,-4.5645,-4.6471,-4.7351,-4.8306,-4.8306,-4.8306,-4.8306,-4.8306,-4.8306,-4.8306,-4.8306,-4.8306,-4.8306,-4.8306,0.0,-4.8306,-4.8306,-4.7828,-4.7094,-4.6947,-4.6434,-4.5678,-4.4869,-4.4627,-4.4617,0.0,0.0,0.0,0.0,0.0,0.0,0.0,-1.3028,-1.4243,-1.6078,-1.6397,-1.6317,-1.5962,-1.5518,-1.5152,0.0,0.0,0.0,0.0,0.0,0.0,0.0,0.0,0.0,0.0,0.0,0.0,0.0,0.0,0.0,0.0,0.0,0.0,0.0,0.0,0.0,0.0,0.0,0.0,0.0,0.0,0.0,0.0,0.0,0.0,0.0,0.0,0.0,0.0,0.0,-2.6694,-2.8644,-3.0482,-3.2009,-3.3274,-3.4136,-3.5451,-3.6906,-3.8155,-3.9509,-4.0213,-3.8718,-3.7662,-3.6066,-3.2517,0.0,0.0,0.0,0.0,-2.5839,-2.538,0.0,0.0,0.0,0.0,0.0,0.0,0.0,0.0,0.0,0.0,0.0,0.0,0.0,0.0,0.0,-4.3515,-4.3515,-4.3515,-4.4287,-4.5094,-4.5883,-4.7095,-4.7901,-4.8306,-4.8306,-4.8306,-4.8306,-4.8306,-4.8306,-4.8306,-4.8306,-4.8306,-4.8306,-4.8306,-4.8306,-4.8306,-4.8306,-4.8086,-4.7681,-4.7259,-4.6856,-4.6434,-4.5626,-4.5333,-4.5222,0.0,0.0,0.0,0.0,0.0,0.0,0.0,-1.3682,-1.4866,-1.777,-1.8628,-1.8461,-1.7182,-1.6273,-1.5523,0.0,0.0,0.0,0.0,0.0,0.0,0.0,0.0,0.0,0.0,0.0,0.0,0.0,0.0,0.0,0.0,0.0,0.0,0.0,0.0,0.0,0.0,0.0,0.0,0.0,0.0,0.0,0.0,0.0,0.0,0.0,0.0,0.0,0.0,0.0,-2.5019,-2.7113,-2.9799,-3.1672,-3.3033,-3.3826,-3.543,-3.7153,-3.8133,-3.9591,-4.0432,-3.8712,-3.7486,-3.5597,-3.135,-2.9583,0.0,0.0,-2.5313,-2.5312,-2.5327,0.0,0.0,0.0,0.0,0.0,0.0,0.0,0.0,0.0,0.0,0.0,0.0,0.0,0.0,0.0,-4.3515,-4.3515,-4.3515,-4.5021,-4.5902,-4.5902,-4.7462,-4.8306,-4.8306,-4.8306,-4.8306,-4.8306,-4.8306,-4.8306,-4.8306,-4.8306,-4.8306,-4.8306,-4.8306,-4.8306,-4.8306,-4.8306,-4.8306,-4.8251,-4.759,-4.7351,-4.7259,-4.6452,-4.6159,-4.6049,0.0,0.0,0.0,0.0,0.0,0.0,0.0,-1.4283,-1.6082,-1.9519,-1.9454,-1.9021,-1.8887,-1.8077,-1.6833,0.0,0.0,0.0,0.0,0.0,0.0,0.0,0.0,0.0,0.0,0.0,0.0,0.0,0.0,0.0,0.0,0.0,0.0,0.0,0.0,0.0,0.0,0.0,0.0,0.0,0.0,0.0,0.0,0.0,0.0,0.0,0.0,0.0,0.0,0.0,0.0,-2.4031,-2.6474,-2.936,-3.2028,-3.3013,0.0,0.0,-3.7925,-3.9065,-3.9505,-3.8472,-3.6968,-3.4783,-3.1207,0.0,0.0,-2.5673,-2.5342,-2.5395,-2.5387,-2.5519,0.0,0.0,0.0,0.0,0.0,0.0,0.0,0.0,0.0,0.0,0.0,0.0,0.0,0.0,-4.3515,-4.3515,-4.3515,-4.5021,-4.5902,-4.5902,-4.7462,-4.8306,-4.8306,-4.8306,-4.8306,-4.8306,-4.8306,-4.8306,-4.8306,-4.8306,-4.8306,-4.8306,-4.8306,-4.8306,0.0,-4.8306,-4.8306,-4.8306,-4.8233,-4.8196,-4.8104,-4.7278,-4.6984,-4.6874,0.0,0.0,0.0,0.0,0.0,0.0,-1.3258,-1.4449,-1.6147,-1.9199,-1.9757,-1.9692,-1.9208,-1.885,-1.7634,-1.5121,0.0,0.0,0.0,0.0,0.0,0.0,0.0,0.0,0.0,0.0,0.0,0.0,0.0,0.0,0.0,0.0,0.0,0.0,0.0,0.0,0.0,0.0,0.0,0.0,0.0,0.0,0.0,0.0,0.0,0.0,0.0,0.0,0.0,0.0,0.0,0.0,-2.3436,-2.5465,0.0,0.0,-3.271,-3.4531,-3.6303,-3.7761,-3.8595,-3.7662,-3.6139,-3.4095,-3.1085,0.0,-2.7409,-2.5654,-2.535,-2.5409,-2.5398,-2.5398,-2.5902,0.0,-2.7774,-2.9397,0.0,0.0,0.0,0.0,0.0,0.0,0.0,0.0,0.0,0.0,-4.3515,-4.3515,-4.3515,-4.4562,-4.5406,-4.5883,-4.7003,-4.781,-4.8306,-4.8306,-4.8306,-4.8306,-4.8306,-4.8306,-4.8306,-4.8306,-4.8306,-4.8306,-4.8306,-4.8306,0.0,-4.8306,-4.8306,-4.8306,-4.8306,-4.8306,-4.8269,-4.7938,-4.781,-4.77,0.0,0.0,0.0,0.0,0.0,-1.1124,-1.3397,-1.4296,-1.5801,-1.8772,-1.943,-1.951,-1.9194,-1.8719,-1.7559,-1.5432,-1.5036,0.0,0.0,0.0,0.0,0.0,0.0,0.0,0.0,0.0,0.0,0.0,0.0,0.0,0.0,0.0,0.0,0.0,0.0,0.0,0.0,0.0,0.0,0.0,0.0,0.0,0.0,0.0,0.0,0.0,0.0,0.0,0.0,0.0,0.0,0.0,0.0,0.0,0.0,0.0,-3.0851,-3.2824,-3.4808,-3.639,-3.7346,-3.6678,-3.5238,-3.3251,0.0,0.0,-2.7082,-2.5615,-2.5379,-2.5431,-2.5425,-2.5444,-2.5647,0.0,-2.6404,-2.7716,-3.1351,0.0,0.0,0.0,0.0,0.0,0.0,0.0,0.0,0.0,-4.3357,-4.3321,-4.3479,-4.403,-4.4709,-4.5516,-4.6544,-4.7369,-4.7938,-4.8196,-4.8306,-4.8306,-4.8306,-4.8306,-4.8306,-4.8306,-4.8306,-4.8306,-4.8306,-4.8159,0.0,-4.8214,-4.8159,-4.7957,-4.8214,-4.8306,-4.8306,-4.8306,-4.8306,-4.8233,0.0,0.0,0.0,0.0,0.0,0.0,-1.3367,-1.3819,-1.5087,-1.8635,-1.8365,-1.815,-1.9015,-1.7553,-1.6419,-1.6114,-1.5366,0.0,0.0,0.0,0.0,0.0,0.0,0.0,0.0,0.0,0.0,-2.1683,0.0,0.0,0.0,0.0,0.0,0.0,0.0,0.0,0.0,0.0,0.0,0.0,0.0,0.0,0.0,0.0,0.0,0.0,0.0,0.0,0.0,0.0,0.0,0.0,0.0,0.0,0.0,0.0,-2.9052,-3.1114,-3.3783,-3.5059,-3.5629,-3.5625,-3.4251,-3.2243,0.0,-2.7813,-2.6365,-2.5481,-2.5413,-2.551,-2.551,-2.5554,-2.5588,-2.552,-2.7565,-2.9664,-3.1115,0.0,0.0,0.0,0.0,0.0,0.0,0.0,0.0,0.0,-4.2995,0.0,-4.3462,-4.3515,-4.3883,-4.469,-4.6269,-4.7094,-4.7113,-4.7901,-4.8306,-4.8306,-4.8306,-4.8306,-4.8306,-4.8306,-4.8306,-4.8306,-4.8306,-4.7846,0.0,-4.7957,-4.7828,-4.7186,-4.7975,-4.8306,-4.8306,-4.8306,-4.8306,-4.8306,0.0,0.0,0.0,0.0,0.0,0.0,0.0,-1.352,-1.4772,-1.7089,-1.7107,-1.7236,-1.8111,-1.72,-1.6397,-1.6114,-1.5866,0.0,0.0,0.0,0.0,0.0,0.0,0.0,0.0,0.0,-2.1198,-2.1764,-2.238,-2.2685,0.0,0.0,0.0,0.0,0.0,0.0,0.0,0.0,0.0,0.0,0.0,0.0,0.0,0.0,0.0,0.0,0.0,0.0,0.0,0.0,0.0,0.0,0.0,0.0,0.0,0.0,0.0,0.0,-3.0442,-3.1458,-3.2058,-3.2044,-3.1059,-2.973,-2.8383,-2.7102,-2.5977,-2.5243,-2.5168,-2.5282,-2.5473,-2.5526,-2.5937,-2.7147,-2.8388,0.0,0.0,0.0,0.0,0.0,0.0,0.0,0.0,0.0,0.0,0.0,-4.2559,-4.277,-4.2939,-4.3303,-4.3864,-4.4654,-4.5186,-4.5993,-4.7094,-4.7351,-4.7755,-4.8306,-4.8306,-4.8306,-4.8306,-4.8306,-4.8306,-4.8269,-4.7718,-4.7333,-4.7113,-4.7369,-4.7333,-4.7186,-4.7975,-4.8306,-4.8306,-4.8306,-4.8306,-4.8306,0.0,0.0,0.0,0.0,0.0,0.0,0.0,-1.2929,-1.402,-1.5426,-1.5853,-1.6341,-1.7208,-1.6534,-1.6,-1.5993,-1.6243,0.0,0.0,0.0,0.0,0.0,0.0,0.0,0.0,-2.0957,-2.1581,-2.2284,-2.2867,-2.3298,-2.3574,-2.2986,-2.2374,0.0,0.0,0.0,0.0,0.0,0.0,0.0,0.0,0.0,0.0,0.0,0.0,0.0,0.0,0.0,0.0,0.0,0.0,0.0,0.0,0.0,0.0,0.0,-2.359,0.0,0.0,-2.9279,-2.9943,-2.9886,-2.911,-2.8101,-2.7207,-2.624,-2.5426,-2.5005,-2.5009,-2.5166,-2.535,-2.5474,-2.5905,-2.7044,-2.8096,0.0,0.0,0.0,0.0,0.0,0.0,0.0,0.0,0.0,0.0,0.0,-4.1937,-4.2203,-4.2692,-4.3014,-4.3523,-4.4232,-4.4544,-4.5168,-4.6177,-4.6489,-4.6892,-4.7388,-4.7388,-4.7388,-4.7388,-4.7388,-4.7388,-4.737,-4.6874,-4.647,0.0,-4.6507,-4.6636,-4.6727,-4.7516,-4.8031,-4.8306,-4.8306,-4.8306,-4.8306,0.0,0.0,0.0,0.0,0.0,0.0,0.0,-1.2141,-1.3011,-1.388,-1.47,-1.5528,-1.632,-1.5698,-1.5341,-1.5688,0.0,0.0,0.0,0.0,0.0,0.0,0.0,0.0,0.0,-2.0564,-2.1462,-2.3107,-2.3299,-2.3769,-2.4492,-2.4426,-2.3498,-2.1894,0.0,0.0,0.0,0.0,0.0,0.0,0.0,0.0,0.0,0.0,0.0,0.0,0.0,0.0,0.0,0.0,0.0,0.0,0.0,0.0,0.0,0.0,0.0,0.0,0.0,0.0,0.0,0.0,-2.8024,-2.7119,-2.6118,-2.5303,0.0,-2.4775,-2.4935,-2.512,-2.526,-2.545,-2.5672,-2.5928,0.0,0.0,0.0,0.0,0.0,0.0,0.0,0.0,0.0,0.0,0.0,0.0,-4.1223,-4.1402,-4.25,-4.2655,-4.292,-4.3427,-4.4214,-4.4636,-4.4691,-4.5443,-4.5847,-4.5902,-4.5902,-4.5902,-4.5902,-4.5902,-4.5902,0.0,-4.5847,-4.5388,-4.4746,-4.5516,-4.581,-4.5902,-4.6746,-4.7553,-4.8233,-4.8288,-4.8306,-4.8306,0.0,0.0,0.0,0.0,0.0,0.0,0.0,0.0,0.0,0.0,-1.4746,-1.5354,-1.5567,-1.5345,-1.5108,0.0,0.0,0.0,0.0,0.0,0.0,0.0,0.0,0.0,0.0,-2.1616,-2.2543,-2.3107,-2.4451,-2.5215,-2.5371,-2.4719,-2.383,-2.2755,-2.2036,-2.1209,0.0,0.0,0.0,0.0,0.0,0.0,0.0,0.0,0.0,0.0,0.0,0.0,0.0,0.0,0.0,0.0,0.0,0.0,0.0,0.0,-2.0625,-2.1507,-2.3738,0.0,-2.5,-2.564,-2.551,-2.5164,0.0,-2.4601,-2.4384,-2.4545,0.0,0.0,-2.5967,-2.5755,0.0,0.0,0.0,0.0,0.0,0.0,0.0,0.0,0.0,0.0,0.0,0.0,0.0,0.0,-4.0972,-4.1018,-4.1313,-4.2203,-4.2769,-4.2883,-4.3468,-4.4085,-4.4691,-4.4892,-4.5296,-4.5902,-4.5902,-4.5902,-4.5902,-4.5902,-4.5902,-4.5865,-4.5259,-4.4856,-4.4727,-4.4911,-4.4984,-4.5131,-4.6544,-4.7223,-4.7461,-4.8086,-4.8306,-4.8306,0.0,0.0,0.0,0.0,0.0,0.0,0.0,0.0,0.0,0.0,0.0,0.0,0.0,0.0,0.0,0.0,0.0,0.0,0.0,0.0,0.0,0.0,0.0,-2.0281,-2.0341,-2.1626,-2.2531,-2.3049,-2.4394,-2.5271,-2.5684,-2.5195,-2.4492,-2.3647,-2.2337,-2.1209,0.0,0.0,0.0,0.0,0.0,0.0,0.0,0.0,0.0,0.0,-2.0308,-2.0538,0.0,-2.1684,-2.2161,-2.2329,0.0,0.0,0.0,0.0,-1.9947,-2.036,-2.2128,-2.333,-2.4273,-2.5027,-2.5138,-2.5038,-2.494,0.0,0.0,0.0,0.0,0.0,0.0,0.0,0.0,0.0,0.0,0.0,0.0,0.0,0.0,0.0,0.0,0.0,0.0,0.0,0.0,0.0,-4.0903,-4.0903,-4.0903,-4.1789,-4.2402,-4.2692,-4.3214,-4.3699,-4.4158,-4.4158,-4.436,-4.48,-4.48,-4.48,-4.48,-4.48,-4.48,-4.4764,-4.4342,-4.4158,-4.4158,-4.4158,-4.4378,-4.4837,-4.6067,-4.6764,-4.7204,-4.8012,-4.8306,-4.8306,0.0,0.0,0.0,0.0,0.0,0.0,0.0,0.0,0.0,0.0,0.0,0.0,0.0,0.0,0.0,0.0,0.0,0.0,0.0,0.0,0.0,0.0,0.0,-2.0351,-2.0518,-2.1381,-2.2294,-2.3194,-2.4198,-2.5105,-2.5878,-2.583,-2.5245,-2.4121,-2.2502,-2.1212,0.0,0.0,0.0,0.0,0.0,0.0,0.0,0.0,0.0,0.0,0.0,0.0,0.0,-2.2177,-2.2968,-2.3482,-2.2503,0.0,0.0,0.0,0.0,0.0,-2.1482,-2.3356,-2.4877,-2.5343,-2.5551,-2.5579,-2.5277,0.0,0.0,0.0,0.0,0.0,0.0,0.0,0.0,0.0,0.0,0.0,0.0,0.0,0.0,0.0,0.0,0.0,0.0,0.0,0.0,-4.1133,-4.0949,-4.0856,-4.078,-4.1424,-4.2021,-4.2557,-4.316,-4.3515,-4.3515,-4.3515,-4.3515,-4.3515,-4.3515,-4.3515,-4.3515,-4.3515,-4.3515,-4.3515,0.0,0.0,-4.3515,-4.3515,-4.3901,-4.4617,-4.5535,-4.6324,-4.7021,-4.7976,-4.8306,-4.8306,0.0,0.0,0.0,0.0,0.0,0.0,0.0,0.0,0.0,0.0,0.0,0.0,0.0,0.0,0.0,0.0,0.0,0.0,0.0,0.0,0.0,0.0,-1.9971,-2.0553,-2.1465,-2.2176,-2.3066,-2.4101,-2.5713,-2.6561,-2.6722,-2.6755,-2.5544,-2.3247,-2.2133,-2.1072,-2.0123,0.0,0.0,0.0,0.0,0.0,0.0,0.0,0.0,0.0,0.0,0.0,0.0,-2.0635,-2.1684,-2.2656,-2.0943,0.0,0.0,0.0,0.0,0.0,-2.2351,-2.3758,-2.4537,-2.445,-2.4927,-2.5259,-2.4558,0.0,0.0,0.0,0.0,0.0,0.0,0.0,0.0,0.0,0.0,0.0,0.0,0.0,0.0,0.0,0.0,0.0,0.0,0.0,0.0,-4.1707,-4.1201,-4.0703,-4.0254,-4.1218,-4.1853,-4.1937,-4.294,-4.3515,-4.3515,-4.3515,-4.3515,-4.3515,-4.3515,-4.3515,-4.3515,-4.3515,-4.3515,-4.3515,0.0,-4.3515,-4.3515,-4.3515,-4.357,-4.3828,-4.5314,-4.5975,-4.6269,-4.7755,-4.8306,-4.8306,0.0,0.0,0.0,0.0,0.0,0.0,0.0,0.0,0.0,0.0,0.0,0.0,0.0,0.0,0.0,0.0,0.0,0.0,0.0,0.0,0.0,-2.0394,-2.061,-2.0976,-2.1572,-2.285,-2.3968,-2.4884,-2.619,-2.7105,-2.7591,-2.7156,-2.5552,-2.3022,-2.2524,-2.1466,-2.0047,-1.9939,0.0,0.0,0.0,0.0,0.0,0.0,0.0,0.0,0.0,0.0,0.0,0.0,-2.1773,-2.2577,-2.1237,0.0,0.0,0.0,0.0,0.0,-2.2168,-2.3326,-2.4151,-2.4972,-2.614,-2.7056,-2.7016,0.0,0.0,0.0,0.0,0.0,0.0,0.0,0.0,0.0,0.0,0.0,0.0,0.0,0.0,0.0,0.0,0.0,0.0,0.0,0.0,-4.2344,-4.2021,-4.1617,-4.1053,-4.181,-4.2282,-4.2282,-4.3087,-4.3515,-4.3515,-4.3515,-4.3515,-4.3515,-4.3515,-4.3515,-4.3515,-4.3515,-4.3515,-4.3515,0.0,-4.3515,-4.3515,-4.3515,-4.3515,-4.3608,-4.4782,-4.5516,-4.6085,-4.7719,-4.8306,-4.8306,0.0,0.0,0.0,0.0,0.0,0.0,0.0,0.0,0.0,0.0,0.0,0.0,0.0,0.0,0.0,0.0,0.0,0.0,0.0,0.0,-1.9163,-2.0768,-2.1183,-2.1594,-2.2048,-2.3581,-2.4832,-2.5722,-2.6853,-2.7686,-2.8175,-2.7293,-2.5476,-2.2972,-2.2911,-2.1798,-1.9953,-1.9841,-1.9786,0.0,0.0,0.0,0.0,0.0,0.0,0.0,0.0,0.0,0.0,0.0,0.0,0.0,0.0,0.0,0.0,-2.1053,-2.042,-2.0509,-2.2174,-2.3081,-2.3977,-2.5629,0.0,-2.8198,-2.9251,-2.883,0.0,0.0,0.0,0.0,0.0,0.0,0.0,0.0,0.0,0.0,0.0,0.0,0.0,0.0,0.0,0.0,0.0,0.0,0.0,-4.2751,-4.2711,-4.244,-4.1832,-4.2362,-4.2711,-4.2711,-4.3214,-4.3515,-4.3515,-4.3515,-4.3515,-4.3515,-4.3515,-4.3515,-4.3515,-4.3515,-4.3515,-4.3515,-4.3515,-4.3515,-4.3515,-4.3515,-4.3515,-4.3588,-4.4397,-4.5314,-4.6324,-4.7553,-4.8141,-4.8306,0.0,0.0,0.0,0.0,0.0,0.0,0.0,0.0,0.0,0.0,0.0,0.0,0.0,0.0,0.0,0.0,0.0,0.0,0.0,0.0,-1.9026,-2.0041,-2.1274,-2.2494,-2.3702,-2.4538,-2.5519,-2.669,-2.8398,-2.8875,-2.818,-2.7244,-2.5418,-2.2908,-2.2844,-2.1685,-1.9807,-1.9796,-1.9719,0.0,0.0,0.0,0.0,0.0,0.0,0.0,0.0,0.0,0.0,0.0,0.0,0.0,0.0,0.0,-2.2765,-2.263,-2.1934,-2.155,-2.3168,-2.3698,-2.4165,-2.5774,-2.6176,0.0,-2.9215,-2.9147,0.0,-3.1187,0.0,0.0,0.0,0.0,0.0,0.0,0.0,0.0,0.0,0.0,0.0,0.0,0.0,0.0,0.0,0.0,0.0,-4.275,-4.2711,-4.244,-4.1832,-4.2362,-4.2711,-4.2711,-4.3214,-4.3515,-4.3515,-4.3515,-4.3515,-4.3515,-4.3515,-4.3515,-4.3515,-4.3515,-4.3515,-4.3515,-4.3515,-4.3515,-4.3515,-4.3515,-4.3515,-4.3588,-4.4397,-4.5645,-4.7021,-4.7131,-4.7663,-4.8306,0.0,0.0,0.0,0.0,0.0,0.0,0.0,0.0,0.0,0.0,0.0,0.0,0.0,0.0,0.0,0.0,0.0,0.0,0.0,0.0,-1.8778,-2.0537,-2.1505,-2.2232,-2.2702,-2.4231,-2.548,-2.6487,-2.7854,-2.8135,-2.7379,-2.6931,-2.5654,-2.3708,-2.3501,-2.2644,-2.1306,-2.0689,-2.0327,-2.0129,0.0,0.0,0.0,0.0,0.0,0.0,0.0,0.0,0.0,0.0,-2.1446,-2.2177,-2.1466,-2.2336,-2.3394,-2.2312,-2.1724,-2.1684,-2.2825,-2.3927,-2.5011,-2.6165,-2.7599,0.0,0.0,-3.1662,-3.2263,-3.3818,-3.3896,0.0,0.0,0.0,0.0,0.0,0.0,0.0,0.0,0.0,0.0,0.0,0.0,0.0,0.0,0.0,0.0,-4.3232,-4.3196,-4.3105,-4.2866,-4.3069,-4.3196,-4.3196,-4.3392,-4.3515,-4.3515,-4.3515,-4.3515,-4.3515,-4.3515,-4.3515,-4.3515,-4.3515,-4.3515,-4.3515,-4.3515,-4.3515,-4.3515,-4.3515,-4.3515,-4.3588,-4.4397,-4.5388,-4.6416,-4.6911,-4.7608,-4.8306,0.0,0.0,0.0,0.0,0.0,0.0,0.0,0.0,0.0,0.0,0.0,0.0,0.0,0.0,0.0,0.0,0.0,0.0,-1.7233,-1.7435,-1.8313,-2.0107,-2.1034,-2.1507,-2.1435,-2.3413,-2.4943,-2.5945,-2.7073,-2.7348,-2.6833,-2.6404,-2.5437,-2.4071,-2.3818,-2.3145,-2.2135,-2.1204,-2.0681,-2.0454,-1.9847,0.0,0.0,0.0,0.0,0.0,0.0,0.0,0.0,0.0,-2.1273,-2.1947,-2.16,-2.2509,-2.3509,-2.2586,-2.2312,-2.2389,-2.272,-2.3832,-2.5197,0.0,0.0,0.0,-3.2912,-3.3903,-3.4838,-3.6597,-3.6386,0.0,0.0,0.0,0.0,0.0,0.0,0.0,0.0,0.0,0.0,0.0,0.0,0.0,0.0,0.0,0.0,-4.3513,-4.3515,-4.3515,-4.3515,-4.3515,-4.3515,-4.3515,-4.3515,-4.3515,-4.3515,-4.3515,-4.3515,-4.3515,-4.3515,-4.3515,-4.3515,-4.3515,-4.3515,-4.3515,-4.3515,-4.3515,-4.3515,-4.3515,-4.3515,-4.3551,-4.4103,-4.4819,-4.5626,-4.6415,-4.7223,-4.7957,0.0,0.0,0.0,0.0,0.0,0.0,0.0,0.0,0.0,0.0,0.0,0.0,0.0,0.0,0.0,0.0,0.0,0.0,-1.6268,-1.6934,-1.7636,-1.8367,-1.9737,-2.0393,-2.0201,-2.2216,-2.3906,-2.5209,-2.6255,-2.6748,-2.6667,-2.5594,-2.4628,-2.3799,-2.3605,-2.2958,-2.1953,-2.1157,-2.07,-2.0454,-1.984,-1.9608,0.0,0.0,0.0,0.0,0.0,0.0,0.0,0.0,-2.0962,-2.075,-2.3278,0.0,-2.299,-2.3836,-2.4091,-2.3918,-2.3047,-2.3451,0.0,0.0,0.0,0.0,-3.4545,-3.55,-3.6384,-3.948,0.0,-3.6982,0.0,0.0,0.0,0.0,0.0,0.0,0.0,0.0,0.0,0.0,0.0,0.0,0.0,0.0,0.0,-4.3515,-4.3515,-4.3515,-4.3515,-4.3515,-4.3515,-4.3515,-4.3515,-4.3515,-4.3515,-4.3515,-4.3515,-4.3515,-4.3515,-4.3515,-4.3515,-4.3515,-4.3515,-4.3515,-4.3515,-4.3515,-4.3515,-4.3515,-4.3515,-4.3515,-4.3515,-4.3993,-4.48,-4.559,-4.6416,-4.7204,0.0,0.0,0.0,0.0,0.0,0.0,0.0,0.0,0.0,0.0,0.0,0.0,0.0,0.0,0.0,0.0,0.0,0.0,-1.6183,-1.686,-1.7581,-1.8367,-1.9615,-2.0246,-2.0119,-2.1234,-2.2848,-2.4925,-2.4627,-2.4782,-2.5337,-2.4407,-2.4164,-2.4489,-2.4287,-2.3713,-2.284,-2.1898,-2.1459,-2.1353,-2.0539,-2.0231,0.0,0.0,0.0,0.0,0.0,0.0,0.0,0.0,0.0,0.0,-2.1053,0.0,-2.3515,-2.2451,-2.3065,-2.3918,-2.3047,0.0,0.0,0.0,0.0,0.0,0.0,-3.6408,0.0,0.0,0.0,0.0,0.0,0.0,0.0,0.0,0.0,0.0,0.0,0.0,0.0,0.0,0.0,0.0,0.0,0.0,0.0,-4.3515,-4.3515,-4.3515,-4.3515,-4.3515,-4.3515,-4.3515,-4.3515,-4.3515,-4.3515,-4.3515,-4.3515,-4.3515,-4.3515,-4.3515,-4.3515,-4.3515,-4.3515,-4.3515,-4.3515,-4.3515,-4.3515,-4.3515,-4.3515,-4.3515,-4.3515,-4.3993,-4.4728,-4.4984,-4.592,-4.7131,0.0,0.0,0.0,0.0,0.0,0.0,0.0,0.0,0.0,0.0,0.0,0.0,0.0,0.0,0.0,0.0,0.0,0.0,0.0,-1.654,-1.7346,-1.7788,-1.9115,-1.9946,-2.0128,-2.0638,-2.1705,-2.328,-2.3036,-2.3383,-2.4278,-2.3688,-2.3859,-2.467,-2.4469,-2.3939,-2.3115,-2.2185,-2.1794,-2.1721,-2.0841,-2.0503,-2.0501,0.0,0.0,0.0,0.0,0.0,0.0,0.0,0.0,0.0,-2.0465,0.0,-2.2839,-2.2101,-2.2935,-2.4072,-2.3851,0.0,0.0,0.0,0.0,0.0,0.0,0.0,0.0,0.0,0.0,0.0,0.0,0.0,0.0,0.0,0.0,0.0,0.0,0.0,0.0,0.0,0.0,0.0,0.0,0.0,0.0,-4.3515,-4.3515,-4.3515,-4.3515,-4.3515,-4.3515,-4.3515,-4.3515,-4.3515,-4.3515,-4.3515,-4.3515,-4.3515,-4.3515,-4.3515,-4.3515,-4.3515,-4.3515,-4.3515,-4.3515,-4.3515,-4.3515,-4.3515,-4.3515,-4.3515,-4.3515,-4.3791,-4.4268,-4.458,-4.5296,-4.6232,0.0,0.0,0.0,0.0,0.0,0.0,0.0,0.0,0.0,0.0,0.0,0.0,0.0,0.0,0.0,0.0,0.0,0.0,0.0,0.0,-1.7009,-1.689,-1.8551,-1.9721,-2.0227,-2.0413,-2.0619,-2.0844,-2.1506,-2.2371,-2.3413,-2.3243,-2.364,-2.4461,-2.4201,-2.3639,-2.2841,-2.2033,-2.1684,-2.161,-2.0823,-2.0503,-2.0503,-2.0503,0.0,0.0,0.0,0.0,0.0,0.0,0.0,0.0,-2.0834,-2.1197,-2.1458,-2.2297,-2.3265,-2.4259,-2.4981,0.0,0.0,0.0,0.0,0.0,0.0,0.0,0.0,0.0,0.0,0.0,0.0,0.0,0.0,0.0,0.0,0.0,0.0,0.0,0.0,0.0,0.0,0.0,0.0,0.0,0.0,-4.3548,-4.3513,-4.3515,-4.3515,-4.3515,-4.3515,-4.3515,-4.3515,-4.3515,-4.3515,-4.3515,-4.3515,-4.3515,-4.3515,-4.3515,-4.3515,-4.3515,-4.3515,-4.3515,-4.3515,-4.3515,-4.3515,-4.3515,-4.3515,-4.3515,-4.3515,-4.3515,-4.3589,-4.4323,-4.4654,-4.4911,0.0,0.0,0.0,0.0,0.0,0.0,0.0,0.0,0.0,0.0,0.0,0.0,0.0,0.0,0.0,0.0,0.0,0.0,0.0,0.0,-1.6764,-1.6883,-1.9462,-2.0733,-2.0442,-2.0483,-2.0223,-1.9669,-2.028,-2.1352,-2.2785,-2.2334,-2.2884,-2.4238,-2.3566,-2.2813,-2.1996,-2.1143,-2.0786,-2.0768,-2.0584,-2.0503,-2.0503,-2.0503,-2.0029,0.0,0.0,0.0,0.0,0.0,0.0,0.0,-1.9708,-2.0458,-2.1194,-2.0606,-2.2176,-2.4149,0.0,-2.6549,0.0,0.0,0.0,0.0,0.0,0.0,0.0,0.0,0.0,0.0,0.0,0.0,0.0,0.0,0.0,0.0,0.0,0.0,0.0,0.0,0.0,0.0,0.0,0.0,0.0,-4.3881,-4.3646,-4.3515,-4.3515,-4.3515,-4.3515,-4.3515,-4.3515,-4.3515,-4.3515,-4.3515,-4.3515,-4.3515,-4.3515,-4.3515,-4.3515,-4.3515,-4.3515,-4.3515,-4.3515,-4.3515,-4.3515,-4.3515,-4.3515,-4.3515,-4.3515,-4.3515,-4.3533,-4.3681,-4.4158,-4.4838,0.0,0.0,0.0,0.0,0.0,0.0,0.0,0.0,0.0,0.0,0.0,0.0,0.0,0.0,0.0,0.0,0.0,0.0,0.0,0.0,-1.7038,-1.8009,-1.9774,-2.0437,-1.9795,-1.9995,-1.9837,-1.9295,-1.9527,-2.0454,-2.2019,-2.2255,-2.3033,-2.4153,-2.3354,-2.2556,-2.1739,-2.0859,-2.0435,-2.035,-2.047,-2.0367,-2.0147,-1.9923,-1.9292,-1.8539,-1.8562,0.0,0.0,0.0,0.0,0.0,0.0,0.0,-2.048,-2.0511,-2.1887,-2.3578,0.0,0.0,0.0,0.0,0.0,0.0,0.0,0.0,0.0,0.0,0.0,0.0,0.0,0.0,0.0,0.0,0.0,0.0,0.0,0.0,0.0,0.0,0.0,0.0,0.0,0.0,0.0,-4.3986,-4.3852,-4.3679,-4.3515,-4.3515,-4.3515,-4.3515,-4.3515,-4.3515,-4.3515,-4.3515,-4.3515,-4.3515,-4.3515,-4.3515,-4.3515,-4.3515,-4.3515,-4.3515,-4.3515,-4.3515,-4.3515,-4.3515,-4.3515,-4.3515,-4.3515,-4.3515,-4.3515,-4.3515,-4.3754,-4.4305,0.0,0.0,0.0,0.0,0.0,0.0,0.0,0.0,0.0,0.0,0.0,0.0,0.0,0.0,0.0,0.0,0.0,0.0,0.0,-1.548,-1.7394,-1.9196,-1.9855,-1.9921,-1.9407,-1.9653,-1.9646,-1.9371,-1.9251,-2.0002,-2.1516,-2.2392,-2.3309,-2.4153,-2.3289,-2.2475,-2.1669,-2.074,-2.0181,-1.993,-2.0107,-1.9858,-1.9354,-1.8976,-1.8261,-1.7491,-1.7539,-1.7772,-1.8144,-1.8811,0.0,0.0,0.0,0.0,-1.9786,-2.0727,-2.1654,-2.2734,0.0,0.0,0.0,0.0,0.0,0.0,0.0,0.0,0.0,0.0,0.0,0.0,0.0,0.0,0.0,0.0,0.0,0.0,0.0,0.0,0.0,0.0,0.0,0.0,0.0,0.0,0.0,-4.4016,-4.4001,-4.3849,-4.3513,-4.3515,-4.3515,-4.3515,-4.3515,-4.3515,-4.3515,-4.3515,-4.3515,-4.3515,-4.3515,-4.3515,-4.3515,-4.3515,-4.3515,-4.3515,-4.3515,-4.3515,-4.3515,-4.3515,-4.3515,-4.3515,-4.3515,-4.3515,-4.3515,-4.3515,-4.3515,-4.3718,0.0,0.0,0.0,0.0,0.0,0.0,0.0,0.0,0.0,0.0,0.0,-1.2762,-1.2604,-1.2834,0.0,0.0,0.0,0.0,-1.3594,0.0,0.0,-1.9044,-1.9973,-2.0615,-2.0985,-2.0435,-1.996,-1.9646,-1.9909,-2.0681,-2.193,-2.1952,-2.2767,-2.4143,-2.3069,-2.2146,-2.1378,-2.0273,-1.9424,-1.8811,-1.8848,-1.8439,-1.7799,-1.7737,-1.7237,-1.6568,-1.6576,-1.7134,-1.7869,-1.7959,-1.8578,0.0,0.0,0.0,0.0,-1.978,-2.0612,-2.1696,0.0,0.0,0.0,0.0,0.0,0.0,0.0,0.0,0.0,0.0,0.0,0.0,0.0,0.0,0.0,0.0,0.0,0.0,0.0,0.0,0.0,0.0,0.0,0.0,0.0,0.0,0.0,-4.4031,-4.4001,-4.3849,-4.3513,-4.3515,-4.3515,-4.3515,-4.3515,-4.3515,-4.3515,-4.3515,-4.3515,-4.3515,-4.3515,-4.3515,-4.3515,-4.3515,-4.3515,-4.3515,-4.3515,-4.3515,-4.3515,-4.3515,-4.3515,-4.3515,-4.3515,-4.3515,-4.3515,-4.3515,-4.3515,-4.3718,0.0,0.0,0.0,0.0,0.0,0.0,0.0,0.0,0.0,0.0,0.0,-1.3182,-1.3069,-1.3139,0.0,0.0,0.0,0.0,-1.4298,-1.5161,0.0,0.0,-1.8606,-1.894,-1.9165,-1.8922,-1.8887,-1.907,-1.8595,-1.993,-2.2929,-2.2355,-2.3097,-2.4866,-2.3457,0.0,0.0,0.0,-1.9421,-1.8975,-1.8704,-1.8726,-1.8743,-1.7234,-1.7202,-1.7809,-1.6615,-1.6789,-1.7671,-1.8272,-1.8769,-1.915,0.0,0.0,0.0,0.0,0.0,0.0,0.0,0.0,0.0,0.0,0.0,0.0,0.0,0.0,0.0,0.0,0.0,0.0,0.0,0.0,0.0,0.0,0.0,0.0,0.0,0.0,0.0,0.0,0.0,0.0,0.0,0.0,0.0,-4.4308,-4.4136,-4.3849,-4.3513,-4.3515,-4.3515,-4.3515,-4.3515,-4.3515,-4.3515,-4.3515,-4.3515,-4.3515,-4.3515,-4.3515,-4.3515,-4.3515,-4.3515,-4.3515,-4.3515,-4.3515,-4.3515,-4.3515,-4.3515,-4.3515,-4.3515,-4.3515,-4.3515,-4.3515,-4.3515,-4.3718,0.0,0.0,0.0,0.0,0.0,0.0,0.0,0.0,0.0,0.0,0.0,0.0,-1.3294,0.0,0.0,0.0,0.0,0.0,-1.4475,0.0,0.0,0.0,0.0,-1.7497,-1.7497,-1.7632,-1.7837,-1.8084,-1.771,-1.953,-2.3354,-2.3059,-2.407,0.0,-2.4532,-2.3546,0.0,0.0,0.0,0.0,-1.909,-1.9263,-1.9536,-1.778,-1.8078,-1.9127,-1.7007,-1.6959,0.0,0.0,0.0,0.0,0.0,0.0,0.0,0.0,0.0,0.0,0.0,0.0,0.0,0.0,0.0,0.0,0.0,0.0,0.0,0.0,0.0,0.0,0.0,0.0,0.0,0.0,0.0,0.0,0.0,0.0,0.0,0.0,0.0,0.0,0.0,0.0,0.0,-4.4084,-4.3947,-4.3735,-4.3495,-4.3515,-4.3515,-4.3515,-4.3515,-4.3515,-4.3515,-4.3515,-4.3515,-4.3515,-4.3515,-4.3515,-4.3515,-4.3515,-4.3515,-4.3515,-4.3515,-4.3515,-4.3515,-4.3515,-4.3515,-4.3515,-4.3515,-4.3515,-4.3515,-4.3515,-4.3515,-4.3718,0.0,0.0,0.0,0.0,0.0,0.0,0.0,0.0,0.0,0.0,0.0,0.0,0.0,0.0,0.0,0.0,0.0,0.0,0.0,0.0,0.0,0.0,0.0,0.0,-1.7497,-1.7632,-1.7361,-1.6699,-1.8363,-2.0305,-2.2506,-2.3972,-2.5779,-2.7724,-2.6498,-2.4746,-2.2656,0.0,0.0,0.0,0.0,-1.9532,-1.906,-1.9852,-2.0093,-1.9694,-1.7667,0.0,0.0,0.0,0.0,0.0,0.0,0.0,0.0,0.0,0.0,0.0,0.0,0.0,0.0,0.0,0.0,0.0,0.0,0.0,0.0,0.0,0.0,0.0,0.0,0.0,0.0,0.0,0.0,0.0,0.0,0.0,0.0,0.0,0.0,0.0,0.0,0.0,0.0,-4.2872,-4.3173,-4.3367,-4.3494,-4.3515,-4.3515,-4.3515,-4.3515,-4.3515,-4.3515,-4.3515,-4.3515,-4.3515,-4.3515,-4.3515,-4.3515,-4.3515,-4.3515,-4.3515,-4.3515,-4.3515,-4.3515,-4.3515,-4.3515,-4.3515,-4.3515,-4.3515,-4.3515,-4.3515,-4.3515,-4.3718,0.0,0.0,0.0,0.0,0.0,0.0,0.0,0.0,0.0,0.0,0.0,0.0,0.0,-1.359,-1.3558,-1.3531,-1.3132,0.0,0.0,0.0,0.0,0.0,0.0,0.0,0.0,-1.6809,-1.6634,-1.6415,-1.6802,-1.8422,-2.1216,-2.2558,-2.3905,-2.5207,-2.5368,-2.501,-2.4108,-2.2061,0.0,0.0,0.0,0.0,0.0,-2.0749,-2.1441,-2.2625,0.0,0.0,0.0,0.0,0.0,0.0,-1.9336,-1.8669,-1.771,-1.7087,0.0,0.0,0.0,0.0,0.0,0.0,0.0,0.0,0.0,0.0,0.0,0.0,0.0,0.0,0.0,0.0,0.0,0.0,0.0,0.0,0.0,0.0,0.0,0.0,0.0,0.0,0.0,0.0,0.0,-4.1996,-4.2618,-4.3001,-4.3052,-4.354,-4.3836,-4.3836,-4.3595,-4.3515,-4.3515,-4.3515,-4.3515,-4.3515,-4.3515,-4.3515,-4.3515,-4.3515,-4.3515,-4.3515,-4.3515,-4.3515,-4.3515,-4.3515,-4.3515,-4.3515,-4.3515,-4.3515,-4.3515,-4.3515,-4.3515,-4.3662,0.0,0.0,0.0,0.0,0.0,0.0,0.0,0.0,0.0,-1.1269,0.0,0.0,0.0,0.0,-1.3433,-1.3689,-1.3362,-1.3188,-1.327,0.0,0.0,0.0,0.0,0.0,0.0,-1.6486,-1.6247,-1.5798,-1.6137,-1.7584,-2.0071,-2.1394,-2.2682,-2.3873,-2.4111,-2.441,0.0,0.0,0.0,-2.1583,0.0,0.0,-2.3317,0.0,-2.3457,-2.4795,0.0,0.0,0.0,0.0,0.0,0.0,0.0,-1.8519,-1.6958,-1.66,0.0,0.0,0.0,0.0,0.0,0.0,0.0,0.0,0.0,0.0,0.0,0.0,0.0,0.0,0.0,0.0,0.0,0.0,0.0,0.0,0.0,0.0,0.0,0.0,0.0,0.0,0.0,0.0,0.0,-4.1106,-4.1665,0.0,-4.2217,-4.274,-4.315,-4.341,-4.3225,-4.3222,-4.3515,-4.3515,-4.3515,-4.3515,-4.3515,-4.3515,-4.3515,-4.3515,-4.3515,-4.3515,-4.3515,-4.3515,-4.3515,-4.3515,-4.3515,-4.3515,-4.3515,-4.3515,-4.3515,-4.3515,-4.3515,-4.3608,0.0,0.0,0.0,0.0,0.0,0.0,0.0,0.0,-0.9862,-1.0154,0.0,0.0,0.0,0.0,0.0,-1.3784,-1.4056,-1.4283,-1.4537,-1.4331,0.0,0.0,0.0,0.0,0.0,-1.6734,-1.6281,-1.4822,-1.6615,-1.8028,-1.904,-2.0689,-2.2382,-2.4024,-2.2946,-2.2969,-2.3756,0.0,-2.252,-2.2415,0.0,-2.3427,-2.3727,0.0,0.0,0.0,-2.4717,-2.4149,0.0,-2.2662,0.0,0.0,0.0,-1.7639,-1.5796,-1.5778,0.0,0.0,0.0,0.0,0.0,0.0,0.0,0.0,0.0,0.0,0.0,0.0,0.0,0.0,0.0,0.0,0.0,0.0,0.0,0.0,0.0,0.0,0.0,0.0,0.0,0.0,0.0,0.0,0.0,-4.0193,-4.0282,-4.0533,-4.1052,-4.1093,-4.146,-4.2249,-4.2286,-4.2671,-4.346,-4.3496,-4.3515,-4.3515,-4.3515,-4.3515,-4.3515,-4.3515,-4.3515,-4.3515,-4.3515,-4.3515,-4.3515,-4.3515,-4.3515,-4.3515,-4.3515,-4.3515,-4.3515,-4.3515,-4.3515,-4.3608,0.0,0.0,0.0,0.0,0.0,-0.7008,-0.7207,-0.825,-0.919,0.0,0.0,0.0,-1.2269,-1.2862,-1.3308,-1.3518,-1.3579,-1.3612,-1.3589,-1.3919,-1.4513,-1.5377,-1.6205,-1.6763,-1.6988,-1.6999,-1.654,-1.5599,-1.6835,-1.7302,-1.7111,-1.928,-2.0639,-2.1316,-2.1595,-2.1716,-2.1697,-2.123,0.0,-2.3831,-2.2953,-2.4189,0.0,0.0,0.0,0.0,0.0,-2.6356,-2.6105,0.0,-2.5158,-2.313,0.0,0.0,0.0,-1.7312,0.0,0.0,-1.9402,0.0,0.0,0.0,0.0,0.0,0.0,0.0,0.0,0.0,0.0,0.0,0.0,0.0,0.0,0.0,0.0,0.0,0.0,0.0,0.0,0.0,0.0,0.0,0.0,0.0,-3.891,0.0,-3.9908,-4.043,-4.0591,-4.1152,-4.1462,-4.1423,-4.2011,-4.2415,-4.2635,-4.3221,-4.3515,-4.3515,-4.3515,-4.3515,-4.3515,-4.3515,-4.3515,-4.3515,-4.3515,-4.3515,-4.3515,-4.3515,-4.3515,-4.3515,-4.3515,-4.3515,-4.3515,-4.3515,-4.3515,-4.3533,0.0,0.0,0.0,0.0,0.0,-0.6792,-0.6792,-0.8127,-0.9247,0.0,0.0,0.0,-1.1884,-1.3024,-1.3797,-1.3892,-1.4083,-1.4151,-1.4077,-1.4355,-1.4732,-1.5197,-1.6226,-1.6892,-1.7089,-1.7249,-1.6976,-1.6233,-1.6811,-1.6953,-1.6668,-1.8032,-1.8977,-1.955,-2.0017,-2.022,-2.0195,-1.9708,0.0,0.0,-2.3528,0.0,0.0,-2.7287,-2.8005,0.0,0.0,0.0,-2.8481,-2.8628,-2.6941,0.0,0.0,0.0,0.0,0.0,0.0,0.0,0.0,0.0,0.0,0.0,0.0,0.0,0.0,0.0,0.0,0.0,0.0,0.0,0.0,0.0,0.0,0.0,0.0,0.0,0.0,0.0,0.0,0.0,0.0,0.0,0.0,-3.8707,-3.8707,-3.8707,-3.9335,-3.9688,-3.9688,-4.0133,-4.044,-4.0579,-4.1056,-4.1625,-4.2286,-4.2763,-4.3167,-4.3515,-4.3515,-4.3515,-4.3515,-4.3515,-4.3515,-4.3515,-4.3515,-4.3515,-4.3515,-4.3515,-4.3515,-4.3515,-4.3515,-4.3515,-4.3515,-4.3515,-4.3515,-4.3515,0.0,0.0,-0.5606,-0.5533,-0.6236,-0.6805,-0.6805,-0.8325,-0.9504,0.0,-1.0214,-1.0872,-1.1432,-1.2967,-1.4134,-1.4552,-1.4988,-1.5246,-1.5244,-1.5159,-1.513,-1.5104,-1.6159,-1.6763,-1.6802,-1.742,-1.7406,-1.6699,-1.6773,-1.6891,-1.7065,-1.7141,-1.7668,-1.8556,-1.8556,-1.8788,-1.9156,-1.8654,0.0,-2.1546,-2.4188,-2.5981,0.0,0.0,-3.0368,-3.0731,-3.1383,-3.1259,-3.0713,-2.9938,-2.7922,0.0,0.0,0.0,0.0,0.0,-2.1065,0.0,0.0,0.0,0.0,0.0,0.0,0.0,-2.5182,-2.528,0.0,0.0,0.0,0.0,0.0,0.0,0.0,0.0,0.0,0.0,0.0,0.0,0.0,0.0,0.0,0.0,-3.8573,-3.8579,-3.8597,-3.8689,-3.8707,-3.8707,-3.8707,-3.8707,-3.9038,-3.9735,-3.9845,-4.0634,-4.2158,-4.2268,-4.269,-4.3515,-4.3515,-4.3515,-4.3515,-4.3515,-4.3515,-4.3515,-4.3515,-4.3515,-4.3515,-4.3515,-4.3515,-4.3515,-4.3515,-4.3515,-4.3515,-4.3515,-4.3515,-4.3515,0.0,-0.6327,-0.6252,-0.5821,-0.632,-0.6805,-0.6805,-0.7484,-0.8222,-0.8804,-1.0183,-1.1465,-1.2481,-1.3336,-1.4019,-1.4474,-1.4761,-1.4874,-1.4814,-1.5104,-1.5224,-1.5103,-1.5938,-1.6514,-1.6789,-1.7187,-1.717,-1.6699,-1.7287,-1.7302,-1.6799,-1.739,-1.7881,-1.828,-1.828,-1.8336,-1.8492,0.0,0.0,-2.2141,-2.2702,0.0,-2.9443,-2.9423,-3.0528,-3.205,-3.1738,-3.1832,-3.2,-3.1154,-3.0104,-2.8751,0.0,0.0,0.0,0.0,0.0,-2.3601,0.0,0.0,0.0,0.0,0.0,0.0,0.0,-2.4711,0.0,0.0,0.0,0.0,0.0,0.0,0.0,0.0,0.0,0.0,0.0,0.0,0.0,0.0,0.0,0.0,-3.7706,-3.7731,-3.7991,-3.8652,-3.8707,-3.8707,-3.8707,-3.8707,-3.8781,-3.8927,-3.9551,-4.0359,-4.1315,-4.1992,-4.269,-4.3515,-4.3515,-4.3515,-4.3515,-4.3515,-4.3515,-4.3515,-4.3515,-4.3515,-4.3515,-4.3515,-4.3515,-4.3515,-4.3515,-4.3515,-4.3515,-4.3515,-4.3515,-4.3515,0.0,-0.5974,-0.5981,-0.6092,-0.6425,-0.6708,-0.6708,-0.7527,-0.8548,-0.9698,-1.1512,-1.2806,-1.3023,-1.351,-1.4103,-1.4832,-1.484,-1.4805,-1.4787,-1.4919,-1.4937,-1.4811,-1.5535,-1.6212,-1.6789,-1.7138,-1.7279,-1.7253,-1.7625,-1.7597,-1.7253,-1.7642,-1.8076,-1.8551,-1.8551,-1.8745,-1.9144,0.0,-2.0798,-2.1904,-2.3748,0.0,-3.0714,-3.113,-3.222,-3.3551,-3.3591,-3.356,-3.326,-3.1719,-3.0717,0.0,0.0,-2.6537,-2.6138,0.0,-2.5062,-2.5227,0.0,0.0,0.0,-2.4931,0.0,0.0,0.0,0.0,0.0,0.0,0.0,0.0,0.0,0.0,0.0,0.0,0.0,0.0,0.0,0.0,0.0,0.0,0.0,0.0,-3.6268,-3.6652,-3.7254,-3.8028,-3.8102,-3.8267,-3.8689,-3.8707,-3.8707,-3.8707,-3.9093,-3.9698,-4.0487,-4.1313,-4.2121,-4.291,-4.3296,-4.3515,-4.3515,-4.3515,-4.3515,-4.3515,-4.3515,-4.3515,-4.3515,-4.3515,-4.3515,-4.3515,-4.3515,-4.3515,-4.3515,-4.3515,-4.3515,-4.3515,0.0,-0.559,-0.5861,-0.6442,-0.6797,-0.7009,-0.7009,-0.7847,-0.9119,-1.0859,-1.2934,-1.4156,-1.3932,-1.4235,-1.4977,-1.6168,-1.5753,-1.5468,-1.5522,-1.5398,-1.5192,-1.4858,-1.5474,-1.6159,-1.6879,-1.7092,-1.7356,-1.7704,-1.7777,-1.78,-1.78,-1.78,-1.82,-1.8894,0.0,0.0,0.0,0.0,0.0,-2.2527,0.0,-2.8197,-3.0309,-3.2096,-3.3284,-3.4086,-3.5057,-3.502,-3.4201,-3.2097,-3.1021,-3.0125,-2.7858,-2.7554,0.0,0.0,0.0,0.0,0.0,0.0,0.0,0.0,0.0,-2.4712,0.0,0.0,0.0,-2.4942,0.0,0.0,0.0,0.0,0.0,0.0,0.0,0.0,0.0,0.0,0.0,0.0,0.0,0.0,-3.4681,-3.5418,-3.6264,-3.7199,-3.6978,-3.729,-3.8414,-3.8469,-3.8542,-3.8707,-3.8707,-3.9093,-3.9882,-4.0708,-4.1515,-4.2304,-4.3112,-4.3531,-4.3597,-4.3531,-4.3531,-4.3597,-4.3531,-4.3515,-4.3515,-4.3515,-4.3515,-4.3515,-4.3515,-4.3515,-4.3515,-4.3515,-4.3515,-4.3515,-0.4435,-0.5974,-0.7019,-0.7085,-0.7862,-0.8469,-0.8469,-0.8098,-0.8683,-1.1135,-1.3177,-1.4897,0.0,0.0,0.0,0.0,0.0,0.0,-1.7818,0.0,-1.7167,-1.6145,-1.6403,-1.6789,-1.7227,-1.699,-1.7014,-1.7356,-1.7641,-1.78,-1.78,-1.78,-1.82,-1.8894,-1.8894,0.0,0.0,0.0,-2.3001,0.0,-2.7232,-2.7097,0.0,-2.947,-3.1029,-3.1945,-3.3971,-3.4662,-3.4343,0.0,-3.2124,-3.1667,0.0,-2.8807,-2.884,0.0,0.0,0.0,0.0,0.0,0.0,0.0,-2.7052,0.0,0.0,0.0,-2.5481,-2.4526,0.0,0.0,0.0,0.0,0.0,0.0,0.0,0.0,0.0,0.0,0.0,0.0,0.0,0.0,-3.3392,-3.4071,-3.5001,-3.635,-3.5055,-3.522,-3.7511,-3.7639,-3.797,-3.8689,-3.8707,-3.9093,-3.9882,-4.0708,-4.1515,-4.2304,-4.3112,-4.3662,-4.3924,-4.3647,-4.3662,-4.3924,-4.3629,-4.3515,-4.3515,-4.3515,-4.3515,-4.3515,-4.3515,-4.3515,-4.3515,-4.3515,-4.3515,-4.3515,-0.4928,-0.6369,0.0,-0.8757,-0.9134,-0.916,-0.8757,-0.9876,-1.1323,-1.2814,-1.5041,-1.705,0.0,0.0,0.0,0.0,0.0,-1.8662,0.0,0.0,0.0,-1.633,-1.6408,-1.6739,-1.7295,-1.7157,-1.7162,-1.7308,-1.7439,-1.7612,0.0,0.0,-1.8425,-1.9558,-2.0027,-2.1309,-2.3103,0.0,-2.4,0.0,0.0,0.0,0.0,-3.0736,-3.2923,-3.3287,-3.3836,-3.426,-3.4365,0.0,-3.2293,0.0,0.0,0.0,0.0,0.0,0.0,0.0,0.0,0.0,0.0,0.0,0.0,0.0,-2.5192,0.0,-2.473,0.0,0.0,0.0,0.0,0.0,0.0,0.0,0.0,0.0,0.0,0.0,0.0,0.0,0.0,0.0,-3.1561,-3.2058,-3.287,-3.4283,-3.3709,-3.4362,-3.6846,-3.7305,-3.7878,-3.867,-3.8707,-3.9093,-3.9882,-4.0708,-4.1515,-4.2304,-4.3305,-4.3865,-4.3998,-4.411,-4.4227,-4.4337,-4.3958,-4.3788,-4.3772,-4.358,-4.3515,-4.3515,-4.3515,-4.3515,-4.3515,-4.3515,-4.3515,-4.3515,-0.5934,0.0,0.0,0.0,-1.0647,-1.033,-0.9717,-1.1561,-1.3488,-1.474,-1.6718,0.0,-2.0744,-2.0178,0.0,0.0,-2.1472,-2.0499,0.0,0.0,-1.8126,-1.7791,-1.7116,0.0,0.0,-1.7776,-1.7473,-1.729,-1.7378,0.0,0.0,0.0,-1.8798,-2.0352,-2.1143,-2.273,-2.4812,0.0,-2.5574,-2.6437,-2.7513,-2.7719,-2.7761,-3.1589,-3.3463,-3.3987,-3.3495,-3.3761,-3.4111,-3.2772,-3.2333,0.0,-3.1675,0.0,0.0,0.0,0.0,0.0,-2.9561,0.0,0.0,0.0,0.0,0.0,0.0,0.0,0.0,0.0,0.0,0.0,0.0,0.0,0.0,0.0,0.0,0.0,0.0,0.0,0.0,0.0,0.0,0.0,0.0,-3.0,-3.0659,-3.2291,-3.1949,-3.2944,-3.5894,-3.6615,-3.7389,-3.8453,-3.8624,-3.9093,-3.9882,-4.0708,-4.1515,-4.2304,-4.3463,-4.4061,-4.4161,-4.4474,-4.4644,-4.4707,-4.4219,-4.4001,-4.3971,-4.3629,-4.3515,-4.3515,-4.3515,-4.3515,-4.3515,-4.3515,-4.3515,-4.3515,-0.7433,-0.9206,0.0,0.0,0.0,-1.2526,-1.2045,-1.2629,-1.4007,-1.6553,0.0,0.0,0.0,0.0,0.0,0.0,0.0,-2.4161,-2.2995,0.0,-2.0799,-2.1507,-1.9151,-1.8706,0.0,0.0,0.0,-1.7292,0.0,0.0,0.0,0.0,0.0,-2.119,-2.1938,-2.3479,-2.5609,-2.6319,-2.8315,-3.0999,-3.1111,-3.2412,-3.3906,0.0,-3.0732,-3.2668,-3.2641,0.0,0.0,-3.2681,-3.2389,-3.2386,0.0,0.0,0.0,0.0,0.0,0.0,0.0,0.0,0.0,-2.7469,0.0,0.0,0.0,0.0,-2.3179,0.0,0.0,0.0,0.0,0.0,0.0,0.0,0.0,0.0,0.0,0.0,0.0,0.0,0.0,0.0,0.0,-2.8117,-2.8616,0.0,-2.9464,-3.0348,-3.4434,-3.5165,-3.6222,-3.7859,-3.8427,-3.9093,-3.9882,-4.0708,-4.1515,-4.2304,-4.3463,-4.4204,-4.458,-4.4593,-4.4788,-4.5033,-4.4332,-4.4001,-4.3971,-4.3629,-4.3515,-4.3515,-4.3515,-4.3515,-4.3515,-4.3515,-4.3515,-4.3515,0.0,0.0,0.0,0.0,0.0,-1.3107,-1.3764,-1.533,-1.7072,0.0,-2.0408,0.0,0.0,-2.5157,-2.5667,0.0,0.0,-2.5674,-2.3828,-2.3292,0.0,0.0,0.0,-2.1459,0.0,0.0,0.0,0.0,0.0,0.0,0.0,0.0,0.0,0.0,-2.2007,-2.3973,0.0,0.0,0.0,0.0,0.0,-3.154,-3.3756,0.0,-3.2206,-3.3261,-3.3261,-3.3119,-3.3014,-3.3632,-3.3248,-3.2603,-3.3555,-3.2999,-3.203,-3.2116,-3.2062,-3.1972,0.0,0.0,-3.1734,-2.9505,0.0,0.0,0.0,0.0,0.0,0.0,0.0,0.0,0.0,0.0,0.0,0.0,0.0,0.0,0.0,0.0,0.0,0.0,0.0,0.0,0.0,0.0,0.0,0.0,-2.8932,0.0,-3.3817,-3.5095,-3.6486,-3.81,-3.8694,-3.9629,-4.1019,-4.1075,-4.1772,-4.3111,-4.3704,-4.4058,-4.4219,-4.472,-4.4872,-4.4763,-4.4514,-4.4266,-4.3971,-4.3629,-4.3515,-4.3515,-4.3515,-4.3515,-4.3515,-4.3515,-4.3515,-4.3515,-0.9938,0.0,0.0,0.0,0.0,-1.4588,-1.5918,-1.7691,-1.9509,0.0,-2.2628,0.0,-2.6518,0.0,-2.7041,0.0,-2.8183,-2.7425,-2.5097,-2.5461,0.0,-2.5024,-2.432,0.0,0.0,0.0,0.0,0.0,0.0,-1.9139,0.0,0.0,0.0,0.0,0.0,-2.4381,-2.6621,-2.8596,-2.9729,0.0,0.0,-3.155,0.0,0.0,-3.3029,-3.3531,0.0,-3.2745,-3.2749,-3.3582,-3.3294,-3.2742,-3.3891,-3.3421,-3.2425,-3.2235,-3.2114,-3.1983,-3.167,-3.1922,-3.2108,-3.1442,-3.0511,0.0,-2.5581,0.0,0.0,0.0,0.0,0.0,0.0,0.0,0.0,0.0,0.0,0.0,0.0,0.0,0.0,0.0,0.0,0.0,0.0,0.0,-2.6348,-2.7892,-2.7975,0.0,0.0,-3.4632,-3.6336,-3.7964,-3.8843,-3.9872,-4.1119,-4.1237,-4.1883,-4.3092,-4.3704,-4.4001,-4.4013,-4.4638,-4.4793,-4.458,-4.446,-4.4233,-4.3967,-4.3775,-4.3695,-4.3677,-4.3839,-4.3884,-4.3868,-4.3726,-4.3695,-4.3662,0.0,0.0,0.0,0.0,-1.5312,0.0,0.0,0.0,-2.121,0.0,-2.422,-2.5554,-2.7936,-2.8185,-2.8398,-2.8888,-2.9831,-2.9368,-2.6961,-2.7933,0.0,0.0,-2.6663,-2.631,-2.6782,0.0,0.0,0.0,0.0,0.0,0.0,0.0,0.0,0.0,-2.2932,0.0,-2.6229,-2.8927,-3.0948,-3.2357,-3.2494,-3.2559,-3.2602,-3.2574,-3.296,-3.3391,-3.202,-3.1979,-3.2547,-3.2602,-3.2574,-3.2668,-3.3339,-3.3119,-3.2462,-3.1785,-3.1542,-3.1288,-3.0464,-3.0773,-3.1671,-3.3141,-3.2452,0.0,0.0,0.0,-2.6826,0.0,0.0,0.0,0.0,0.0,0.0,0.0,0.0,0.0,0.0,0.0,0.0,0.0,0.0,0.0,0.0,0.0,-2.4817,-2.6428,-2.6582,0.0,0.0,-3.3704,-3.567,-3.7412,-3.8839,-3.9807,-4.0337,-4.1171,-4.1834,-4.2338,-4.3447,-4.3986,-4.3986,-4.4392,-4.4553,-4.4527,-4.4146,-4.4001,-4.3986,-4.3986,-4.3986,-4.4028,-4.4433,-4.4593,-4.458,-4.4175,-4.4031,-4.3955,-1.2798,-1.3461,-1.4427,0.0,-1.6407,-1.7364,0.0,0.0,0.0,0.0,-2.616,-2.7715,-2.9176,-2.9365,-2.9415,-2.9566,-2.9796,0.0,0.0,0.0,0.0,-2.9955,-3.0002,-2.9876,-2.952,-2.6782,0.0,-2.3603,0.0,0.0,-2.0555,0.0,0.0,0.0,0.0,0.0,-2.5559,-2.7357,-2.9566,-3.1803,-3.1796,-3.212,-3.2532,0.0,-3.2244,-3.2815,-3.2465,-3.2092,-3.1881,-3.241,-3.2259,-3.191,-3.2625,-3.2749,-3.2446,-3.1754,-3.19,-3.2292,-3.2195,-3.1803,-3.2031,-3.4432,-3.4761,-3.3985,-3.2122,0.0,0.0,0.0,0.0,0.0,0.0,0.0,0.0,0.0,0.0,0.0,0.0,0.0,0.0,0.0,0.0,0.0,0.0,0.0,-2.5173,-2.5596,-2.6231,0.0,0.0,0.0,-3.4501,-3.6823,-3.826,-3.9654,-4.104,-4.1413,-4.1954,-4.2684,-4.3324,-4.3629,-4.3629,-4.3986,-4.4035,-4.3791,-4.3943,-4.3849,-4.3629,-4.3629,-4.3772,-4.4016,-4.4102,-4.4495,-4.4931,-4.458,-4.4247,-4.3986,-1.3679,0.0,0.0,-1.7747,0.0,0.0,-2.1114,-2.277,0.0,-2.5605,-2.712,0.0,-2.8988,-2.9503,-2.9792,-2.9792,-3.0177,0.0,-2.9103,0.0,0.0,-3.0965,-3.2139,-3.2228,-3.0957,-2.8846,0.0,-2.4605,0.0,0.0,-2.0418,0.0,0.0,0.0,0.0,-2.2487,-2.468,-2.7231,-2.941,-3.1131,-3.1398,-3.1739,0.0,-3.1668,-3.1768,-3.212,-3.212,-3.1853,-3.1553,-3.1979,-3.1853,-3.1582,-3.1979,-3.212,-3.2035,-3.1611,-3.1796,-3.2135,-3.2252,-3.1913,-3.1859,-3.3425,-3.4697,-3.5453,-3.4942,-3.3942,-3.2829,0.0,-3.2689,-3.3039,0.0,0.0,0.0,0.0,0.0,0.0,0.0,0.0,0.0,0.0,0.0,0.0,0.0,0.0,0.0,0.0,0.0,0.0,0.0,0.0,-3.4064,-3.6615,-3.8211,-3.9518,-4.0553,-4.1381,-4.188,-4.2075,-4.3046,-4.3515,-4.3515,-4.3712,-4.3695,-4.3496,-4.3693,-4.366,-4.3496,-4.3662,-4.3927,-4.429,-4.4581,-4.4939,-4.5302,-4.5107,-4.4701,-4.4233,0.0,0.0,0.0,0.0,0.0,0.0,0.0,-2.4845,0.0,-2.6575,0.0,-2.8323,-2.8323,-2.9202,-2.9792,-2.9792,0.0,-3.0514,-2.934,-3.2013,-3.2944,-3.135,-3.3304,-3.363,-3.1929,-3.0986,0.0,0.0,0.0,0.0,0.0,0.0,0.0,0.0,0.0,0.0,0.0,-2.7767,-2.987,-3.0702,-3.1361,-3.169,-3.1765,-3.1765,-3.1765,-3.1765,-3.1765,-3.1645,-3.1511,-3.1511,-3.1511,-3.1511,-3.1511,-3.1511,-3.1511,-3.1511,-3.1511,-3.1511,-3.1511,-3.1509,-3.1494,-3.1488,-3.329,-3.5158,-3.5511,-3.5598,-3.5232,-3.3956,-3.2679,-3.2493,-3.4783,0.0,0.0,0.0,0.0,0.0,0.0,0.0,0.0,0.0,0.0,0.0,0.0,0.0,0.0,0.0,0.0,0.0,0.0,0.0,-3.3795,-3.6462,-3.8238,-3.9293,-3.9668,-4.1216,-4.1712,-4.1176,-4.276,-4.3515,-4.3515,-4.3515,-4.3515,-4.3515,-4.3515,-4.3515,-4.3513,-4.382,-4.4209,-4.4657,-4.5342,-4.5594,-4.5594,-4.5594,-4.5192,-4.4606,0.0,0.0,0.0,0.0,0.0,-2.4556,-2.6427,-2.6791,-2.708,-2.7733,-2.88,-2.9503,-2.9503,-2.9679,-2.9792,-2.9792,-2.9934,0.0,0.0,0.0,0.0,-3.2312,-3.3454,-3.4058,-3.3978,-3.1689,-2.937,0.0,0.0,0.0,0.0,0.0,0.0,0.0,0.0,0.0,-2.4619,-2.7525,0.0,-3.1376,-3.2049,-3.2662,-3.3155,-3.3155,-3.3155,-3.3155,-3.3155,-3.2452,-3.1511,-3.1511,-3.1511,-3.1511,-3.1511,-3.1511,-3.1511,-3.1511,-3.1511,-3.1511,-3.1511,-3.1493,-3.1515,-3.1497,-3.1863,-3.2804,-3.5093,-3.5592,-3.5532,-3.5267,-3.5008,-3.4496,-3.3414,0.0,0.0,0.0,0.0,0.0,0.0,0.0,0.0,0.0,0.0,0.0,0.0,0.0,0.0,0.0,0.0,0.0,0.0,0.0,-3.2346,-3.5615,-3.7353,-3.8805,0.0,-4.1324,-4.1833,-4.152,-4.2857,-4.3515,-4.3515,-4.3515,-4.3515,-4.3515,-4.3515,-4.3515,-4.3496,-4.3546,-4.3992,-4.4657,-4.5342,-4.5594,-4.5594,-4.5594,-4.5352,-4.4954,0.0,0.0,0.0,0.0,0.0,0.0,0.0,-2.821,-2.8473,-2.8147,-2.8574,-2.8913,-2.8913,-2.944,-2.9792,-2.9792,-2.9792,-2.9792,-2.9792,-3.0696,-3.1389,-3.1852,-3.2784,0.0,-3.3786,-3.1848,-2.9761,-2.76,0.0,0.0,0.0,0.0,0.0,0.0,0.0,-2.2877,0.0,0.0,-3.0043,-3.1585,-3.2617,-3.3215,-3.3499,-3.3499,-3.3499,-3.3499,-3.3499,-3.3095,-3.2557,-3.2557,-3.2303,-3.2019,-3.2019,-3.178,-3.1511,-3.1511,-3.1511,-3.1511,-3.1511,-3.1511,-3.1508,-3.1496,-3.149,-3.1967,-3.3802,-3.4926,-3.5498,-3.5138,-3.5345,-3.5075,-3.338,-3.0809,0.0,0.0,0.0,0.0,0.0,0.0,0.0,0.0,0.0,0.0,0.0,0.0,0.0,0.0,0.0,0.0,0.0,-2.9063,-3.1506,0.0,0.0,0.0,-3.9821,0.0,-4.178,-4.136,-4.2809,-4.3515,-4.3515,-4.3515,-4.3515,-4.3515,-4.3515,-4.3515,-4.3513,-4.3695,-4.4091,-4.4644,-4.514,-4.5438,-4.5594,-4.5594,-4.539,-4.5052,0.0,-2.4516,0.0,0.0,-2.7016,-2.8025,-2.8537,-2.949,-2.9729,-2.8612,-2.8461,-2.8461,-2.8461,-2.9264,-2.9792,-2.9792,-2.9792,-2.9792,-2.9792,-3.0482,-3.1007,-3.118,-3.1924,-3.2597,-3.3269,-3.2134,-3.0424,0.0,0.0,0.0,0.0,0.0,0.0,0.0,0.0,0.0,0.0,-2.9041,-3.0702,-3.2213,-3.329,-3.3799,-3.3918,-3.3918,-3.3918,-3.3918,-3.3918,-3.3918,-3.3918,-3.3918,-3.338,-3.2721,-3.2721,-3.2333,-3.1929,-3.1929,-3.1735,-3.1513,-3.1661,-3.1615,-3.1511,-3.1511,-3.1496,-3.1689,-3.2427,-3.371,-3.4662,-3.4439,-3.5039,-3.5144,-3.3681,-3.2069,0.0,0.0,0.0,0.0,0.0,0.0,0.0,0.0,0.0,0.0,0.0,0.0,0.0,0.0,0.0,0.0,-2.7794,-2.8665,-3.0891,-3.4827,-3.6096,-3.746,-3.9041,0.0,-4.1703,-4.1113,-4.2727,-4.3515,-4.3515,-4.3515,-4.3515,-4.3515,-4.3515,-4.3515,-4.3531,-4.3865,-4.4233,-4.4631,-4.4966,-4.5312,-4.5594,-4.5594,-4.5429,-4.514,0.0,0.0,0.0,0.0,0.0,-2.9738,-3.0267,-3.0871,-3.0846,-2.9779,-2.9628,-2.9628,-2.9628,-2.9729,-2.9792,-2.9792,-2.9792,-2.9792,-2.9792,-2.9895,-3.0317,-3.118,-3.1278,-3.215,-3.3873,-3.3259,-3.1936,0.0,0.0,-2.5121,0.0,0.0,0.0,0.0,0.0,-2.7957,-2.9382,-3.0103,-3.1884,-3.4234,-3.4369,-3.4756,-3.531,-3.531,-3.531,-3.531,-3.531,-3.531,-3.531,-3.531,-3.4457,-3.341,-3.341,-3.3365,-3.3305,-3.3305,-3.2452,-3.1619,-3.2243,-3.1959,-3.1511,-3.1511,-3.1495,-3.1531,-3.1613,-3.1767,-3.2241,-3.3445,-3.4715,-3.5149,-3.3672,-3.43,-3.3955,0.0,0.0,0.0,0.0,0.0,0.0,0.0,0.0,0.0,0.0,0.0,0.0,0.0,0.0,0.0,-2.7788,-2.8665,-3.0339,-3.3064,-3.5468,-3.6897,-3.7318,-4.0445,-4.1703,-4.1113,-4.2727,-4.3515,-4.3515,-4.3515,-4.3515,-4.3515,-4.3515,-4.3515,-4.3531,-4.3865,-4.4233,-4.4631,-4.4966,-4.5312,-4.5594,-4.5594,-4.5577,-4.5457,0.0,0.0,0.0,0.0,0.0,0.0,0.0,-3.1461,-3.1512,-3.0834,-3.0746,-3.0746,-3.0746,-3.047,-3.0281,-3.0281,-2.998,-2.9792,-2.9792,-2.9792,-2.9972,-3.0343,-3.0343,-3.0981,-3.2305,-3.1723,-3.0895,0.0,0.0,0.0,0.0,0.0,0.0,-2.6072,-2.7976,-2.9524,-3.0821,-3.1869,-3.314,-3.4548,-3.4921,-3.525,-3.5504,-3.5504,-3.5504,-3.5504,-3.5504,-3.5504,-3.5504,-3.5504,-3.4876,-3.4114,-3.4114,-3.3814,-3.3499,-3.3499,-3.332,-3.305,-3.275,-3.2482,-3.2153,-3.1649,-3.1514,-3.1508,-3.1513,-3.1513,-3.1886,-3.3313,-3.4667,-3.5414,-3.4822,-3.4252,-3.377,-3.3451,0.0,0.0,0.0,0.0,0.0,0.0,0.0,0.0,0.0,0.0,0.0,0.0,0.0,0.0,-2.7019,-2.7915,-2.9465,-3.1855,0.0,-3.6055,-3.6843,-4.0124,-4.1541,-4.1113,-4.2727,-4.3515,-4.3515,-4.3515,-4.3321,-4.3032,-4.3375,-4.3322,-4.305,-4.351,-4.4065,-4.4606,-4.4751,-4.5129,-4.5594,-4.5594,-4.5594,-4.5504,-3.1263,0.0,-3.1009,0.0,-3.1009,-3.0821,-3.175,-3.2127,-3.2202,-3.1926,-3.1888,-3.1763,-3.1424,-3.106,-3.0846,-3.0846,-3.0344,-3.003,-3.003,-2.988,-2.9792,-2.9792,-2.9792,0.0,-3.1182,-3.106,-3.1089,-3.1321,-3.1649,0.0,0.0,0.0,-2.7649,-2.8786,-2.9939,-3.1165,-3.2422,-3.338,-3.4173,-3.4848,-3.531,-3.5504,-3.5504,-3.5504,-3.5504,-3.5504,-3.5504,-3.5504,-3.5504,-3.5504,-3.519,-3.4771,-3.4771,-3.4457,-3.4083,-3.4083,-3.4176,-3.4133,-3.3405,-3.3094,-3.2826,-3.2079,-3.1694,-3.1573,-3.1809,-3.1671,-3.2023,-3.3829,-3.4947,-3.56,-3.56,-3.4469,-3.3799,-3.4614,0.0,0.0,0.0,0.0,0.0,0.0,0.0,-2.4259,-2.3798,0.0,0.0,0.0,0.0,0.0,0.0,-2.7812,-2.9225,0.0,0.0,0.0,-3.6664,-3.9946,-4.143,-4.1113,-4.2727,-4.3515,-4.3515,-4.3515,-4.3214,-4.2731,-4.3268,-4.3196,-4.275,-4.3268,-4.3852,-4.4447,-4.4553,-4.4954,-4.5457,-4.5568,-4.555,-4.5362,-3.1386,-3.1386,-3.1549,-3.2102,-3.219,-3.2378,-3.3011,-3.3056,-3.3056,-3.3056,-3.3056,-3.2629,-3.1512,-3.1386,-3.1386,-3.1386,-3.0909,-3.0608,-3.0608,-3.0093,-2.9792,0.0,0.0,-3.0241,-3.118,-3.2092,-3.3514,-3.5429,0.0,0.0,-3.1436,-3.0733,-3.0793,-3.1481,-3.2153,-3.3215,-3.4474,-3.4488,-3.4861,-3.5489,-3.5504,-3.5504,-3.5504,-3.5504,-3.5504,-3.5504,-3.5504,-3.5504,-3.5504,-3.5504,-3.5504,-3.5489,-3.5489,-3.5489,-3.5489,-3.5489,-3.4996,-3.4442,-3.4259,-3.3826,-3.3394,-3.2896,-3.2137,-3.1738,-3.2587,-3.2107,-3.2282,-3.5021,-3.5589,-3.56,-3.56,-3.5583,-3.4928,-3.3036,0.0,0.0,0.0,0.0,0.0,0.0,-2.5394,-2.4203,-2.3475,0.0,0.0,0.0,0.0,0.0,0.0,0.0,0.0,-3.2409,-3.4689,0.0,-3.6593,-3.9919,-4.143,-4.1113,-4.2727,-4.3515,-4.3515,-4.3515,-4.3214,-4.2731,-4.3268,-4.3196,-4.275,-4.3268,-4.3693,-4.4061,-4.4447,-4.4812,-4.5159,-4.5485,-4.54,-4.5063,-3.2583,-3.2583,-3.2591,-3.2767,-3.2805,-3.2867,-3.3056,-3.3124,-3.3124,-3.3124,-3.3124,-3.2943,-3.2579,-3.219,-3.1951,0.0,-3.1449,-3.1148,0.0,-3.0984,-3.0721,-3.0369,-3.0357,-3.0312,-3.0254,-3.1386,-3.2723,-3.4205,0.0,0.0,-3.2871,-3.311,-3.332,-3.3559,-3.4247,-3.4786,-3.5175,-3.5175,-3.5295,-3.5504,-3.5504,-3.5504,-3.5504,-3.5504,-3.5504,-3.5504,-3.5504,-3.5504,-3.5504,-3.5504,-3.5504,-3.5504,-3.5504,-3.5504,-3.5504,-3.5504,-3.5355,-3.5175,-3.5098,-3.4651,-3.428,-3.4539,-3.374,-3.2855,-3.2796,-3.2122,-3.2106,-3.4284,-3.5176,-3.5616,-3.5605,-3.56,-3.5401,-3.4784,-3.4125,0.0,-2.802,0.0,0.0,0.0,-2.6286,-2.571,0.0,-2.5212,0.0,0.0,0.0,0.0,0.0,0.0,0.0,0.0,-3.4539,0.0,-3.7215,-3.9887,-4.148,-4.1937,-4.2983,-4.3515,-4.3497,-4.3124,-4.2637,-4.2101,-4.2266,-4.2003,-4.1556,-4.2541,-4.3158,-4.3525,-4.4294,-4.4793,-4.5107,-4.5222,-4.5191,-4.5011,-3.3124,-3.3124,-3.3124,-3.3124,-3.3124,-3.3124,-3.3124,-3.3124,-3.3124,-3.3124,-3.3124,-3.3124,-3.3124,-3.2754,0.0,-3.2541,-3.2014,-3.17,-3.17,-3.1499,-3.1248,-3.0922,-3.0909,-3.0746,-3.0394,-3.1331,-3.2182,-3.3002,-3.3763,-3.4182,-3.4262,-3.4666,-3.4861,-3.4876,-3.531,-3.5504,-3.5504,-3.5504,-3.5504,-3.5504,-3.5504,-3.5504,-3.5504,-3.5504,-3.5504,-3.5504,-3.5504,-3.5504,-3.5504,-3.5504,-3.5504,-3.5504,-3.5504,-3.5504,-3.5504,-3.5504,-3.5504,-3.5504,-3.5504,-3.519,-3.4985,-3.5399,-3.4872,-3.3907,-3.2602,-3.1875,-3.1811,-3.3029,-3.4232,-3.5112,-3.5105,-3.5374,-3.5469,-3.5143,-3.4402,-3.2486,-2.84,0.0,0.0,0.0,0.0,0.0,0.0,-2.6945,-2.7301,0.0,0.0,0.0,0.0,0.0,-3.2067,-3.2332,-3.5623,-3.7704,-3.8392,-4.0506,-4.1809,-4.2304,-4.3112,-4.3515,-4.3497,-4.3142,-4.256,-4.1793,-4.2041,-4.1664,-4.0995,-4.2203,-4.2829,-4.312,-4.4177,-4.4739,-4.4919,-4.5052,-4.503,-4.4818,-3.3174,-3.3212,-3.3224,-3.3144,-3.3174,-3.3162,-3.3124,-3.3124,-3.3124,-3.3124,-3.3124,-3.3124,-3.3124,-3.3124,-3.3124,-3.3124,0.0,0.0,-3.2277,-3.18,-3.1486,-3.1449,-3.1449,-3.1436,-3.1386,-3.1811,-3.2104,-3.2167,-3.3359,-3.4467,-3.5466,-3.5422,-3.5424,-3.5504,-3.5504,-3.5504,-3.5504,-3.5504,-3.5504,-3.5504,-3.5504,-3.5504,-3.5504,-3.5504,-3.5504,-3.5504,-3.5504,-3.5504,-3.5504,-3.5504,-3.5504,-3.5504,-3.5504,-3.5504,-3.5504,-3.5504,-3.5504,-3.5504,-3.5504,-3.5504,-3.5504,-3.5504,-3.5505,-3.4845,-3.2362,-3.1705,-3.1639,-3.1671,-3.3073,-3.4292,-3.4323,-3.4991,-3.5245,-3.4355,-3.3706,-3.2502,-3.0046,-2.9327,0.0,0.0,0.0,0.0,-2.6996,-2.8367,-2.9196,0.0,0.0,0.0,0.0,0.0,-3.3123,-3.5472,-3.7661,-3.9203,-4.0047,-4.1552,-4.2323,-4.2396,-4.313,-4.3515,-4.3515,-4.3462,-4.2829,-4.1832,-4.2342,-4.1916,-4.0926,-4.2142,-4.2635,-4.2771,-4.405,-4.4553,-4.4593,-4.4908,-4.4837,-4.4501,0.0,0.0,-3.4198,-3.3771,-3.3709,-3.3558,-3.3144,-3.3124,-3.3124,-3.3124,-3.3124,-3.3124,-3.3124,-3.3124,-3.3124,-3.3124,-3.2955,-3.2867,-3.2867,-3.2797,-3.2478,-3.2039,-3.2014,-3.1813,-3.1399,-3.22,-3.3008,-3.3772,-3.3601,-3.4066,-3.5033,-3.4559,-3.4758,-3.5504,-3.5504,-3.5504,-3.5504,-3.5504,-3.5504,-3.5504,-3.5504,-3.5504,-3.5504,-3.5504,-3.5504,-3.5504,-3.5504,-3.5504,-3.5504,-3.5504,-3.5504,-3.5504,-3.5504,-3.5504,-3.5504,-3.5504,-3.5504,-3.5504,-3.5504,-3.5504,-3.5504,-3.5504,-3.5505,-3.5348,-3.4693,-3.3757,-3.3125,-3.3493,-3.3921,-3.4298,-3.4505,-3.4695,-3.4701,-3.4274,-3.344,-3.2113,-2.9993,-2.9591,-2.9544,0.0,-2.9905,-3.0125,-3.0125,-3.0973,-3.1058,0.0,0.0,-3.2194,-3.2056,-3.4248,-3.5976,-3.6973,-3.8698,-4.0304,-4.1717,-4.2103,-4.2598,-4.3222,-4.3423,-4.3515,-4.3497,-4.3087,-4.2482,-4.1789,-4.1468,-4.092,-4.0368,-4.153,-4.2,-4.2147,-4.3578,-4.4132,-4.4146,-4.4233,-4.4219,-4.4106,-3.4274,-3.4512,-3.4625,-3.4324,-3.4274,-3.4173,-3.3872,-3.3822,-3.3822,-3.3822,-3.3822,-3.3822,-3.3822,-3.3822,-3.3721,-3.347,-3.3219,-3.3124,-3.3124,-3.3124,-3.293,-3.2616,-3.2604,-3.2466,-3.2164,-3.2398,-3.2868,-3.3594,-3.3309,-3.3635,-3.4621,-3.4782,-3.5178,-3.5702,-3.6157,-3.6372,-3.6372,-3.6372,-3.6372,-3.6342,-3.6073,-3.5953,-3.5923,-3.5624,-3.5504,-3.5504,-3.5504,-3.5504,-3.5504,-3.5504,-3.5504,-3.5504,-3.5504,-3.5504,-3.5504,-3.5504,-3.5504,-3.5554,-3.5911,-3.575,-3.5504,-3.5504,-3.5514,-3.5399,-3.4991,-3.4325,-3.3847,-3.3874,-3.3884,-3.4026,-3.4519,-3.4309,-3.4051,-3.3863,-3.3102,-3.1904,-3.0116,-3.0169,-3.0441,-3.0598,-3.1241,-3.1833,-3.2171,-3.2865,-3.2831,-3.1678,-3.3022,0.0,-3.3973,-3.6162,-3.7521,-3.7678,-3.9841,-4.1423,-4.2286,-4.2653,-4.3057,-4.3515,-4.3515,-4.3515,-4.3479,-4.2939,-4.2362,-4.1768,-4.1155,-4.0733,-4.0546,-4.1424,-4.1958,-4.2327,-4.3533,-4.4001,-4.4001,-4.4001,-4.4001,-4.3955,-3.4839,-3.4914,-3.4951,-3.4818,-3.4806,-3.4768,-3.4693,-3.468,-3.468,-3.468,-3.468,-3.468,-3.468,-3.468,-3.4537,-3.406,-3.3596,-3.3257,-3.3124,-3.3124,-3.3124,-3.3124,-3.3124,-3.3124,-3.3124,-3.2591,-3.2492,-3.2868,-3.2764,-3.3237,-3.4241,-3.5062,-3.551,-3.569,-3.6728,-3.7173,-3.7183,-3.7336,-3.7404,-3.736,-3.6836,-3.6626,-3.6567,-3.5998,-3.5789,-3.5789,-3.5789,-3.5666,-3.5514,-3.5639,-3.5594,-3.5504,-3.5504,-3.5504,-3.5537,-3.5636,-3.5587,-3.5651,-3.6244,-3.5975,-3.5504,-3.5504,-3.5504,-3.5292,-3.4573,-3.4392,-3.4259,-3.3754,-3.365,-3.3823,-3.4349,-3.4018,-3.3561,-3.3307,-3.2823,-3.1955,-3.048,0.0,-3.141,-3.1512,-3.2192,-3.2936,-3.366,-3.4303,-3.4455,-3.3947,-3.5501,-3.6512,-3.6632,-3.7831,-3.8415,-3.8187,-4.0759,-4.2273,-4.2488,-4.3149,-4.3444,-4.3392,-4.3462,-4.3444,-4.3375,-4.2995,-4.2442,-4.1771,-4.1268,-4.0995,-4.0949,-4.1556,-4.2162,-4.2789,-4.3605,-4.3924,-4.3924,-4.3924,-4.3924,-4.3881,-3.5345,-3.5793,-3.5956,-3.5445,-3.537,-3.5207,-3.4756,-3.468,-3.468,-3.468,-3.468,-3.468,-3.468,-3.468,-3.4688,-3.46,-3.4512,-3.4073,-3.3174,-3.3124,-3.3124,-3.3124,-3.3124,-3.3124,-3.3124,-3.2993,-3.2978,-3.3047,-3.2554,-3.2795,-3.3767,-3.3436,-3.3752,-3.458,-3.5675,-3.6122,-3.6207,-3.7045,-3.7404,-3.7404,-3.73,-3.727,-3.7255,-3.715,-3.712,-3.712,-3.712,-3.6399,-3.5596,-3.6156,-3.5968,-3.5504,-3.5504,-3.5504,-3.5619,-3.6259,-3.5975,-3.5537,-3.5636,-3.5587,-3.5504,-3.5504,-3.5504,-3.5474,-3.5307,-3.5292,-3.513,-3.4488,-3.4358,-3.4213,-3.3764,-3.4074,-3.4025,-3.2757,-3.2931,-3.2713,-3.1241,0.0,-3.2361,-3.2983,-3.3711,-3.4438,-3.5177,-3.5346,-3.5673,-3.6237,-3.6559,-3.6995,-3.7617,-3.8865,-3.9556,-3.9521,-4.0831,-4.2105,-4.3296,-4.3441,-4.3268,-4.2826,-4.3286,-4.3268,-4.2845,-4.3214,-4.2791,-4.1793,-4.1686,-4.138,-4.0949,-4.1556,-4.2162,-4.2769,-4.3338,-4.358,-4.358,-4.358,-4.358,-4.3563,-3.5968,-3.6194,-3.6329,-3.6031,-3.5981,-3.5893,-3.5642,-3.5604,-3.5604,-3.5604,-3.5604,-3.5604,-3.5604,-3.5604,-3.5479,-3.5144,-3.5119,-3.4781,-3.401,-3.396,-3.3834,-3.3533,-3.352,-3.3382,-3.3124,-3.3124,-3.3124,-3.3124,-3.2805,-3.2921,-3.3399,-3.3658,-3.4086,-3.4564,-3.5589,-3.637,-3.6965,-3.7419,-3.7955,-3.8467,-3.8078,-3.7943,-3.7898,-3.7539,-3.7404,-3.7404,-3.7404,-3.7161,-3.6907,-3.6971,-3.663,-3.6184,-3.6091,-3.5789,-3.5569,-3.5926,-3.6054,-3.6006,-3.5619,-3.5504,-3.5504,-3.5504,-3.5504,-3.5504,-3.5504,-3.5504,-3.5415,-3.51,-3.4741,-3.4512,-3.4568,-3.3945,-3.3572,-3.4055,-3.3402,-3.2887,-3.2975,-3.3275,-3.3613,-3.3947,-3.5013,-3.5859,-3.6214,-3.662,-3.6992,-3.7347,-3.7381,-3.7702,-3.8447,-3.9058,-3.9673,-4.0383,-4.1202,-4.193,-4.2581,-4.2581,-4.2464,-4.2203,-4.2464,-4.2619,-4.2711,-4.2619,-4.2306,-4.1789,-4.1468,-4.1155,-4.0926,-4.1201,-4.1874,-4.2713,-4.2976,-4.325,-4.3515,-4.3515,-4.3515,-4.3515,-3.6405,-3.6405,-3.6405,-3.6405,-3.6405,-3.6405,-3.6405,-3.6405,-3.6405,-3.6405,-3.6405,-3.6405,-3.6405,-3.6405,-3.6194,-3.5768,-3.5683,-3.5508,-3.5127,-3.5102,-3.4801,-3.4123,-3.3972,-3.3646,-3.3124,-3.3124,-3.3124,-3.3124,-3.3124,-3.3124,-3.3124,-3.3953,-3.4304,-3.4387,-3.5385,-3.6302,-3.7102,-3.7591,-3.8295,-3.8995,-3.8749,-3.8631,-3.8571,-3.8063,-3.7868,-3.7868,-3.7868,-3.7982,-3.8121,-3.7738,-3.7319,-3.6922,-3.6765,-3.6357,-3.5923,-3.5774,-3.6016,-3.6228,-3.5636,-3.5504,-3.5504,-3.5504,-3.5504,-3.5504,-3.5504,-3.5504,-3.5504,-3.5504,-3.5085,-3.4841,-3.5187,-3.4077,-3.3552,-3.4868,0.0,-3.3449,-3.4387,-3.4806,-3.5013,-3.5013,-3.6237,-3.7066,-3.7066,-3.7542,-3.7956,-3.8135,-3.8149,-3.8461,-3.9225,-3.9242,-3.9708,-4.0685,-4.1424,-4.181,-4.181,-4.181,-4.1729,-4.1599,-4.1729,-4.1958,-4.2282,-4.1937,-4.1707,-4.1556,-4.111,-4.0903,-4.0903,-4.0903,-4.1534,-4.248,-4.248,-4.2733,-4.3105,-4.3105,-4.3196,-4.3303,-3.6405,-3.6405,-3.6405,-3.6405,-3.6405,-3.6405,-3.6405,-3.6405,-3.6405,-3.6405,-3.6405,-3.6405,-3.6405,-3.6405,-3.6392,-3.6355,-3.6342,-3.6329,-3.6292,-3.6279,-3.5768,-3.4713,-3.4173,-3.3646,-3.3124,-3.3124,-3.3124,-3.3124,-3.3124,-3.3124,-3.3124,-3.3197,-3.324,-3.3258,-3.4324,-3.4833,-3.5028,-3.6992,-3.7855,-3.8021,-3.8958,-3.9349,-3.9298,-3.9254,-3.9275,-3.9275,-3.9275,-3.8871,-3.8382,-3.8332,-3.7883,-3.7345,-3.7345,-3.73,-3.715,-3.6582,-3.6001,-3.5554,-3.5504,-3.5504,-3.5504,-3.5504,-3.5504,-3.5504,-3.5504,-3.5504,-3.5504,-3.5504,-3.5459,-3.5267,-3.4686,-3.4958,-3.4915,-3.3736,0.0,0.0,-3.4585,-3.572,-3.6626,-3.6626,-3.733,-3.7821,-3.7821,-3.7803,-3.8116,-3.8854,-3.8878,-3.9182,-3.9986,-4.0028,-4.007,-4.0171,-4.1218,-4.181,-4.181,-4.181,-4.1512,-4.0972,-4.1534,-4.1534,-4.1064,-4.1556,-4.149,-4.0972,-4.0926,-4.0903,-4.0903,-4.0903,-4.1291,-4.1874,-4.1874,-4.1895,-4.1937,-4.1937,-4.2284,-4.2769,-3.6263,-3.5499,-3.509,-3.6203,-3.4993,-3.4435,-3.6156,-3.6405,-3.6405,-3.6405,-3.6405,-3.6405,-3.6405,-3.6405,-3.6405,-3.6405,-3.6405,-3.6405,-3.6405,-3.6405,-3.6019,-3.5219,-3.4655,-3.4311,-3.411,-3.3759,-3.3583,-3.3583,-3.3244,-3.3124,-3.3124,-3.3124,-3.3124,-3.3111,-3.352,-3.4085,-3.4732,-3.5533,-3.6609,-3.7853,-3.8248,-3.8819,-3.9388,-3.9388,-3.9388,-3.9388,-3.9388,-3.9245,-3.9035,-3.9035,-3.8571,-3.8018,-3.8018,-3.7734,-3.7285,-3.6671,-3.6312,-3.6028,-3.5609,-3.5504,-3.5504,-3.5504,-3.5504,-3.5504,-3.5504,-3.5504,-3.5504,-3.5504,-3.5504,-3.5429,-3.516,-3.4994,-3.4988,-3.5335,0.0,-3.5299,-3.6381,-3.6663,-3.6901,-3.7418,-3.8125,-3.8582,-3.8582,-3.8984,-3.914,-3.8942,-3.9365,-3.9558,-3.9368,-3.9833,-4.0096,-4.0096,-4.0514,-4.0761,-4.0761,-4.0761,-4.0642,-4.0417,-4.0642,-4.0797,-4.0903,-4.1133,-4.111,-4.0903,-4.0903,-4.0709,-4.0417,-4.0417,-4.0726,-4.1246,-4.1246,-4.1468,-4.181,-4.181,-4.1937,-4.2142,-3.5295,-3.4545,-3.3983,-3.4945,-3.354,-3.3032,-3.5198,-3.6048,-3.6263,-3.5823,-3.6168,-3.6405,-3.6405,-3.6405,-3.6405,-3.6405,-3.6405,-3.6405,-3.6405,-3.6405,-3.6119,-3.552,-3.5144,-3.4856,-3.468,-3.4349,-3.4161,-3.4161,-3.3771,-3.3602,-3.3613,-3.3426,-3.3368,-3.3354,-3.3192,-3.3513,-3.4233,-3.457,-3.5507,-3.6884,-3.7544,-3.8225,-3.8944,-3.928,-3.9388,-3.9388,-3.9388,-3.9388,-3.9388,-3.9388,-3.9095,-3.8706,-3.8706,-3.8257,-3.7629,-3.721,-3.6791,-3.6387,-3.5938,-3.5669,-3.5504,-3.5504,-3.5504,-3.5504,-3.5504,-3.5504,-3.5504,-3.5504,-3.5504,-3.5504,-3.5504,-3.5115,-3.5112,-3.6089,-3.566,-3.5607,-3.6894,-3.7269,-3.7588,-3.8137,-3.8881,-3.9252,-3.8992,-3.9222,-3.9156,-3.8608,-3.8827,-3.8854,-3.858,-3.9289,-3.9714,-3.9714,-3.9969,-4.0096,-4.0096,-4.0096,-4.0096,-4.0096,-4.0096,-4.0286,-4.0655,-4.0655,-4.0655,-4.0655,-4.0655,-4.0424,-4.0096,-4.0096,-4.0311,-4.0655,-4.0655,-4.0897,-4.1263,-4.1263,-4.1358,-4.1512,-3.3491,-3.3688,-3.338,-3.2431,-3.228,-3.2582,-3.354,-3.5198,-3.587,-3.4581,-3.5523,-3.6358,-3.6358,-3.6358,-3.6358,-3.6358,-3.6405,-3.6405,-3.6405,-3.6405,-3.6119,-3.552,-3.5508,-3.5257,-3.4705,-3.4726,-3.4726,-3.4726,-3.468,-3.469,-3.4686,-3.4149,-3.3909,-3.3883,-3.3366,-3.3093,-3.3197,-3.4243,-3.471,-3.4907,-3.6962,-3.7792,-3.7935,-3.9017,-3.9388,-3.9388,-3.9388,-3.9388,-3.9388,-3.9388,-3.9388,-3.9388,-3.9388,-3.8945,-3.8407,-3.8392,-3.7494,-3.6492,-3.6492,-3.6013,-3.5519,-3.5504,-3.5504,-3.5504,-3.5504,-3.5504,-3.5504,-3.5504,-3.5504,-3.5504,-3.5504,-3.5504,-3.5504,-3.5504,-3.6102,-3.6322,-3.5631,-3.7454,-3.8881,-3.8881,-3.961,-3.9782,-3.8962,-3.8234,-3.7793,-3.7777,-3.7054,-3.6934,-3.7764,-3.8497,-3.8881,-3.8881,-3.9662,-4.007,-4.007,-4.0096,-4.0096,-4.0096,-4.0096,-4.0096,-4.0096,-4.0096,-4.0096,-4.0096,-4.0096,-4.0096,-4.0096,-4.0096,-4.0096,-4.0096,-4.0096,-4.0096,-4.0096,-4.0096,-4.0424,-4.0903,-3.0068,-3.0669,-3.0916,-2.9713,-2.9503,-2.9608,-2.9859,-3.148,-3.2682,-3.2894,-3.3292,-3.354,-3.354,-3.441,-3.4981,-3.4981,-3.587,-3.6405,-3.6405,-3.6405,-3.6329,-3.6119,-3.6119,-3.6044,-3.5881,-3.5504,-3.5257,-3.5257,-3.4868,-3.4688,-3.4715,-3.4525,-3.4469,-3.4457,-3.4306,-3.4223,-3.4223,-3.4559,-3.5136,-3.5959,-3.7414,-3.8441,-3.9129,-3.9854,-4.0113,-4.0053,-3.9553,-3.9388,-3.9388,-3.9388,-3.9388,-3.9388,-3.9388,-3.9239,-3.902,-3.8527,-3.8123,-3.7629,-3.6731,-3.6342,-3.6088,-3.5624,-3.5504,-3.5504,-3.5504,-3.5504,-3.5504,-3.5504,-3.5504,-3.5504,-3.5504,-3.5504,-3.5504,-3.5504,-3.5701,-3.5914,-3.6245,-3.687,-3.7512,-3.8048,-3.8346,-3.8402,-3.8149,-3.7921,-3.7573,-3.6994,-3.6737,-3.6934,-3.7764,-3.8007,-3.8149,-3.8149,-3.8374,-3.8502,-3.8502,-3.9558,-4.0096,-4.0096,-4.0096,-4.0096,-4.0096,-4.0096,-4.0096,-4.0096,-4.0096,-4.0096,-4.0096,-4.0096,-4.0096,-4.0096,-4.0096,-4.0096,-4.0096,-4.0096,-4.0204,-4.0343,-2.8441,-2.8953,-2.925,-2.8441,-2.8291,-2.8291,-2.8291,-2.9859,-3.1122,-3.1469,-3.1977,-3.228,-3.228,-3.3044,-3.3563,-3.3563,-3.4812,-3.5619,-3.5619,-3.6108,-3.6405,-3.6405,-3.6405,-3.6405,-3.6405,-3.6031,-3.5868,-3.5868,-3.5529,-3.5366,-3.5366,-3.5152,-3.5006,-3.4994,-3.4768,-3.468,-3.468,-3.468,-3.506,-3.5807,-3.7421,-3.8461,-3.9084,-4.0324,-4.0786,-4.0726,-4.0337,-4.0023,-3.9813,-3.9813,-3.9634,-3.9388,-3.9388,-3.9388,-3.9298,-3.8916,-3.8601,-3.8227,-3.7449,-3.7045,-3.6701,-3.6058,-3.5699,-3.5504,-3.5504,-3.5504,-3.5504,-3.5504,-3.5504,-3.5504,-3.5504,-3.5504,-3.5504,-3.5504,-3.5504,-3.5651,-3.6117,-3.6415,-3.6783,-3.7279,-3.7602,-3.7661,-3.7368,-3.7338,-3.701,-3.6228,-3.6165,-3.6384,-3.686,-3.7175,-3.7338,-3.7338,-3.7632,-3.7793,-3.7793,-3.8707,-3.9332,-3.9636,-3.9952,-4.0096,-4.0096,-4.0096,-4.0096,-4.0096,-4.0096,-4.0096,-4.0096,-4.0096,-4.0096,-4.0096,-4.0096,-4.0096,-4.0096,-4.0096,-4.0096,-4.0096,-2.8291,-2.8291,-2.8291,-2.8291,-2.8291,-2.8291,-2.8291,-2.9713,-3.0618,-3.0172,-3.1173,-3.1927,-3.1927,-3.2028,-3.2129,-3.2129,-3.3415,-3.4227,-3.4227,-3.5367,-3.6108,-3.6216,-3.6203,-3.6263,-3.6405,-3.6405,-3.6405,-3.6405,-3.6405,-3.6405,-3.6405,-3.5855,-3.5571,-3.5545,-3.509,-3.4864,-3.4864,-3.4864,-3.4864,-3.5032,-3.7214,-3.8047,-3.8242,-4.049,-4.1345,-4.133,-4.1399,-4.0995,-4.0472,-4.0427,-3.9963,-3.9388,-3.9388,-3.9388,-3.9388,-3.9388,-3.8975,-3.8467,-3.8407,-3.7943,-3.7345,-3.6731,-3.6073,-3.5579,-3.5519,-3.5504,-3.5504,-3.5504,-3.5504,-3.5504,-3.5504,-3.5504,-3.5504,-3.5504,-3.5504,-3.5504,-3.5504,-3.6086,-3.6492,-3.6492,-3.716,-3.7308,-3.6554,-3.6492,-3.6212,-3.5554,-3.5504,-3.5504,-3.5504,-3.6149,-3.6492,-3.6492,-3.7219,-3.7573,-3.7573,-3.7661,-3.8076,-3.8799,-3.961,-3.9978,-3.9995,-4.007,-4.0096,-4.0096,-4.0096,-4.0096,-4.0096,-4.002,-3.9978,-3.9995,-3.9927,-3.9901,-3.9901,-3.9969,-3.9978,-3.9995,-2.8291,-2.8291,-2.8291,-2.8291,-2.8291,-2.8291,-2.8291,-2.8644,-2.8847,-2.8751,-2.9006,-2.9154,-2.9154,-3.012,-3.0721,-3.0721,-3.1988,-3.2744,-3.2744,-3.3044,-3.37,-3.4775,-3.4824,-3.5331,-3.6358,-3.6405,-3.6405,-3.6405,-3.6405,-3.6405,-3.6405,-3.6292,-3.6182,-3.6182,-3.6103,-3.6053,-3.6053,-3.6053,-3.6053,-3.6134,-3.7526,-3.8083,-3.8295,-4.0076,-4.0786,-4.0848,-4.1267,-4.1294,-4.1085,-4.0576,-3.9963,-3.9388,-3.9388,-3.9388,-3.9388,-3.9388,-3.932,-3.908,-3.8542,-3.8287,-3.8018,-3.7375,-3.6731,-3.6148,-3.5624,-3.5504,-3.5504,-3.5504,-3.5504,-3.5504,-3.5504,-3.5504,-3.5504,-3.5504,-3.5504,-3.5504,-3.5504,-3.5651,-3.5718,-3.5718,-3.5878,-3.5941,-3.5765,-3.5718,-3.5668,-3.5504,-3.5504,-3.5504,-3.5504,-3.5636,-3.5718,-3.5718,-3.591,-3.599,-3.599,-3.6569,-3.7263,-3.8064,-3.8816,-3.9166,-3.9166,-3.9808,-4.0096,-4.0096,-4.0096,-4.0096,-4.0045,-3.9437,-3.9166,-3.9113,-3.8513,-3.829,-3.8374,-3.8951,-3.9166,-3.9262,-2.8291,-2.8291,-2.8291,-2.8291,-2.8291,-2.8291,-2.8291,-2.8291,-2.8291,-2.8291,-2.8291,-2.8291,-2.8291,-2.8953,-2.9355,-2.9355,-3.0566,-3.1327,-3.1327,-3.1927,-3.2644,-3.3365,-3.403,-3.4727,-3.5427,-3.6061,-3.6405,-3.6405,-3.6405,-3.6405,-3.6405,-3.6405,-3.6405,-3.6405,-3.6405,-3.6405,-3.6405,-3.6405,-3.6405,-3.6499,-3.7632,-3.8107,-3.8249,-3.9727,-4.0266,-4.0308,-4.0574,-4.0811,-4.0911,-4.025,-3.995,-3.9888,-3.9888,-3.9679,-3.9388,-3.9388,-3.9388,-3.9298,-3.8975,-3.8886,-3.8721,-3.8033,-3.7629,-3.715,-3.6193,-3.5729,-3.5504,-3.5504,-3.5504,-3.5504,-3.5504,-3.5504,-3.5504,-3.5504,-3.5504,-3.5504,-3.5504,-3.5504,-3.5504,-3.5504,-3.5504,-3.5504,-3.5504,-3.5504,-3.5504,-3.5504,-3.5504,-3.5504,-3.5504,-3.5504,-3.5504,-3.5504,-3.5504,-3.5504,-3.5504,-3.5894,-3.6305,-3.6723,-3.7847,-3.8386,-3.8386,-3.8816,-3.9183,-3.9516,-3.9172,-3.9183,-3.9463,-3.869,-3.8386,-3.833,-3.795,-3.7793,-3.7851,-3.8218,-3.8386,-3.8486,-2.8291,-2.8291,-2.8291,-2.8291,-2.8291,-2.8291,-2.8291,-2.8291,-2.8291,-2.8291,-2.8291,-2.8291,-2.8291,-2.8291,-2.8291,-2.8291,-2.9303,-2.9964,-2.9964,-3.1019,-3.1735,-3.1938,-3.3055,-3.3822,-3.403,-3.5367,-3.6156,-3.6405,-3.6405,-3.6405,-3.6405,-3.6405,-3.6405,-3.6405,-3.6405,-3.6405,-3.6405,-3.6405,-3.6405,-3.6499,-3.7415,-3.7802,-3.7939,-3.9139,-3.9579,-3.9637,-3.9812,-4.0097,-4.0224,-3.967,-3.9823,-4.0256,-4.0137,-3.9861,-3.9574,-3.9418,-3.9388,-3.9388,-3.9388,-3.9388,-3.929,-3.8706,-3.8482,-3.8108,-3.706,-3.6222,-3.5639,-3.5534,-3.5504,-3.5504,-3.5504,-3.5504,-3.5504,-3.5504,-3.5504,-3.5504,-3.5504,-3.5504,-3.5504,-3.5504,-3.5504,-3.5504,-3.5504,-3.5504,-3.5504,-3.5504,-3.5504,-3.5504,-3.5504,-3.5504,-3.5504,-3.5504,-3.5504,-3.5504,-3.5504,-3.5504,-3.5504,-3.5504,-3.6814,-3.7456,-3.7602,-3.7719,-3.8133,-3.869,-3.8064,-3.8149,-3.8663,-3.7905,-3.7602,-3.7573,-3.7472,-3.7413,-3.7413,-3.7544,-3.769,-3.7892,-2.8291,-2.8291,-2.8291,-2.8291,-2.8291,-2.8291,-2.8291,-2.8291,-2.8291,-2.8291,-2.8291,-2.8291,-2.8291,-2.8291,-2.8291,-2.8291,-2.8441,-2.8548,-2.8548,-2.8751,-2.9355,-3.0525,-3.0773,-3.1378,-3.2543,-3.3958,-3.5223,-3.6405,-3.6405,-3.6405,-3.6405,-3.6405,-3.6405,-3.6405,-3.6405,-3.6405,-3.6405,-3.6405,-3.6405,-3.6405,-3.6581,-3.6628,-3.6756,-3.7893,-3.8334,-3.8469,-3.9536,-3.9571,-3.9116,-3.9032,-3.9305,-3.9617,-3.9025,-3.9501,-4.0157,-3.9553,-3.9388,-3.9388,-3.9388,-3.9388,-3.9394,-3.9305,-3.8841,-3.8347,-3.8167,-3.721,-3.6193,-3.5624,-3.5504,-3.5504,-3.5504,-3.5504,-3.5504,-3.5504,-3.5504,-3.5504,-3.5504,-3.5504,-3.5504,-3.5504,-3.5504,-3.5504,-3.5504,-3.5504,-3.5504,-3.5504,-3.5504,-3.5504,-3.5504,-3.5504,-3.5504,-3.5504,-3.5504,-3.5504,-3.5504,-3.5504,-3.5504,-3.5504,-3.5716,-3.6164,-3.6783,-3.7485,-3.7835,-3.795,-3.7835,-3.7863,-3.7892,-3.7084,-3.6752,-3.6707,-3.607,-3.5829,-3.5878,-3.6538,-3.7203,-3.7806,-2.8291,-2.8291,-2.8291,-2.8291,-2.8291,-2.8291,-2.8291,-2.8291,-2.8291,-2.8291,-2.8291,-2.8291,-2.8291,-2.8291,-2.8291,-2.8291,-2.8291,-2.8291,-2.8291,-2.8291,-2.8548,-2.9154,-2.9911,-3.0577,-3.1173,-3.2543,-3.3502,-3.4093,-3.5655,-3.6405,-3.6405,-3.6405,-3.6405,-3.6405,-3.6405,-3.6405,-3.6405,-3.6405,-3.6405,-3.6405,-3.6405,-3.6405,-3.6452,-3.6977,-3.715,-3.7243,-3.7736,-3.8174,-3.8455,-3.8455,-3.88,-3.917,-3.8848,-3.8663,-3.8644,-3.892,-3.8787,-3.862,-3.9228,-3.9388,-3.9265,-3.8671,-3.8707,-3.8698,-3.7731,-3.7529,-3.727,-3.6267,-3.5759,-3.5504,-3.5504,-3.5504,-3.5504,-3.5504,-3.5504,-3.5504,-3.5504,-3.5504,-3.5504,-3.5504,-3.5504,-3.5504,-3.5504,-3.5504,-3.5504,-3.5504,-3.5504,-3.5504,-3.5504,-3.5504,-3.5504,-3.5504,-3.5504,-3.5504,-3.5504,-3.5504,-3.5504,-3.5504,-3.5504,-3.5668,-3.6006,-3.6337,-3.6738,-3.71,-3.6677,-3.6738,-3.707,-3.629,-3.5975,-3.5943,-3.5651,-3.5504,-3.5537,-3.5863,-3.6212,-3.6569]},{"header":{"parameterUnit":"m.s-1","parameterCategory":1,"la1":30.6,"la2":28.766,"lo1":-90.7593,"lo2":-88.6598,"dy":0.0162,"dx":0.0183,"nx":116,"ny":114,"refTime":"2024-06-02T00:00:00:Z","depth":0,"parameterNumber":3,"parameterNumberName":"V-component_of_WINDS"},"data":[0.0,0.0,0.0,0.0,0.0,0.0,0.0,0.0,0.0,0.0,0.0,0.0,0.0,0.0,0.0,0.0,0.0,0.0,0.0,0.0,0.0,0.0,0.0,0.0,0.0,0.0,0.0,0.0,0.0,0.0,0.0,0.0,0.0,0.0,0.0,0.0,0.0,0.0,0.0,0.0,0.0,0.0,0.0,0.0,0.0,0.0,0.0,0.0,0.0,0.0,0.0,0.0,0.0,0.0,0.0,0.0,0.0,0.0,0.0,0.0,0.0,0.0,0.0,0.0,0.0,0.0,0.0,0.0,0.0,0.0,0.0,0.0,0.0,0.0,0.0,0.0,0.0,0.0,0.0,0.0,0.0,0.0,0.0,0.0,0.0,0.0,0.0,0.0,0.0,0.0,0.0,0.0,0.0,0.0,0.0,0.0,0.0,0.0,0.0,0.0,0.0,0.0,0.0,0.0,0.0,0.0,0.0,0.0,0.0,0.0,0.0,0.0,0.0,0.0,0.0,0.0,0.0,0.0,0.0,0.0,0.0,0.0,0.0,0.0,0.0,0.0,0.0,0.0,0.0,0.0,0.0,0.0,0.0,0.0,0.0,0.0,0.0,0.0,0.0,0.0,0.0,0.0,0.0,0.0,0.0,0.0,0.0,0.0,0.0,0.0,0.0,0.0,0.0,0.0,0.0,0.0,0.0,0.0,0.0,0.0,0.0,0.0,0.0,0.0,0.0,0.0,0.0,0.0,0.0,0.0,0.0,0.0,0.0,0.0,0.0,0.0,0.0,0.0,0.0,0.0,0.0,0.0,0.0,0.0,0.0,0.0,0.0,0.0,0.0,0.0,0.0,0.0,0.0,0.0,0.0,0.0,0.0,0.0,0.0,0.0,0.0,0.0,0.0,0.0,0.0,0.0,0.0,0.0,0.0,0.0,0.0,0.0,0.0,0.0,0.0,0.0,0.0,0.0,0.0,0.0,0.0,0.0,0.0,0.0,0.0,0.0,0.0,0.0,0.0,0.0,0.0,0.0,0.0,0.0,0.0,0.0,0.0,0.0,0.0,0.0,0.0,0.0,0.0,0.0,0.0,0.0,0.0,0.0,0.0,0.0,0.0,0.0,0.0,0.0,0.0,0.0,0.0,0.0,0.0,0.0,0.0,0.0,0.0,0.0,0.0,0.0,0.0,0.0,0.0,0.0,0.0,0.0,0.0,0.0,0.0,0.0,0.0,0.0,0.0,0.0,0.0,0.0,0.0,0.0,0.0,0.0,0.0,0.0,0.0,0.0,0.0,0.0,0.0,0.0,0.0,0.0,0.0,0.0,0.0,0.0,0.0,0.0,0.0,0.0,0.0,0.0,0.0,0.0,0.0,0.0,0.0,0.0,0.0,0.0,0.0,0.0,0.0,0.0,0.0,0.0,0.0,0.0,0.0,0.0,0.0,0.0,0.0,0.0,0.0,0.0,0.0,0.0,0.0,0.0,0.0,0.0,0.0,0.0,0.0,0.0,0.0,0.0,0.0,0.0,0.0,0.0,0.0,0.0,0.0,0.0,0.0,0.0,0.0,0.0,0.0,0.0,0.0,0.0,0.0,0.0,0.0,0.0,0.0,0.0,0.0,0.0,0.0,0.0,0.0,0.0,0.0,0.0,0.0,0.0,0.0,0.0,0.0,0.0,0.0,0.0,0.0,0.0,0.0,0.0,0.0,0.0,0.0,0.0,0.0,0.0,0.0,0.0,0.0,0.0,0.0,0.0,0.0,0.0,0.0,0.0,0.0,0.0,0.0,0.0,0.0,0.0,0.0,0.0,0.0,0.0,0.0,0.0,0.0,0.0,0.0,0.0,0.0,0.0,0.0,0.0,0.0,0.0,0.0,0.0,0.0,0.0,0.0,0.0,0.0,0.0,0.0,0.0,0.0,0.0,0.0,0.0,0.0,0.0,0.0,0.0,0.0,0.0,0.0,0.0,0.0,0.0,0.0,0.0,0.0,0.0,0.0,0.0,0.0,0.0,0.0,0.0,0.0,0.0,0.0,0.0,0.0,0.0,0.0,0.0,0.0,0.0,0.0,0.0,0.0,0.0,0.0,0.0,0.0,0.0,0.0,0.0,0.0,0.0,0.0,0.0,0.0,0.0,0.0,0.0,0.0,0.0,0.0,0.0,0.0,0.0,0.0,0.0,0.0,0.0,0.0,0.0,0.0,0.0,0.0,0.0,0.0,0.0,0.0,0.0,0.0,0.0,0.0,0.0,0.0,0.0,0.0,0.0,0.0,0.0,0.0,0.0,0.0,0.0,0.0,0.0,0.0,0.0,0.0,0.0,0.0,0.0,0.0,0.0,0.0,0.0,0.0,0.0,0.0,0.0,0.0,0.0,0.0,0.0,0.0,0.0,0.0,0.0,0.0,0.0,0.0,0.0,0.0,0.0,0.0,0.0,0.0,0.0,0.0,0.0,0.0,0.0,0.0,0.0,0.0,0.0,0.0,0.0,0.0,0.0,0.0,0.0,0.0,0.0,0.0,0.0,0.0,0.0,0.0,0.0,0.0,0.0,0.0,0.0,0.0,0.0,0.0,0.0,0.0,0.0,0.0,0.0,0.0,0.0,0.0,0.0,0.0,0.0,0.0,0.0,0.0,0.0,0.0,0.0,0.0,0.0,0.0,0.0,0.0,0.0,0.0,0.0,0.0,0.0,0.0,0.0,0.0,0.0,0.0,0.0,0.0,0.0,0.0,0.0,0.0,0.0,0.0,0.0,0.0,0.0,0.0,0.0,0.0,0.0,0.0,0.0,0.0,0.0,0.0,0.0,0.0,0.0,0.0,0.0,0.0,0.0,0.0,0.0,0.0,0.0,0.0,0.0,0.0,0.0,0.0,0.0,0.0,0.0,0.0,0.0,0.0,0.0,0.0,0.0,0.0,0.0,0.0,0.0,0.0,0.0,0.0,0.0,0.0,0.0,0.0,0.0,0.0,0.0,0.0,0.0,0.0,0.0,0.0,0.0,0.0,0.0,0.0,0.0,0.0,0.0,0.0,0.0,0.0,0.0,0.0,0.0,0.0,0.0,0.0,0.0,0.0,0.0,0.0,0.0,0.0,0.0,0.0,0.0,0.0,0.0,0.0,0.0,0.0,0.0,0.0,0.0,0.0,0.0,0.0,0.0,0.0,0.0,0.0,0.0,0.0,0.0,0.0,0.0,0.0,0.0,0.0,0.0,0.0,0.0,0.0,0.0,0.0,0.0,0.0,0.0,0.0,0.0,0.0,0.0,0.0,0.0,0.0,0.0,0.0,0.0,0.0,0.0,0.0,0.0,0.0,0.0,0.0,0.0,0.0,0.0,0.0,0.0,0.0,0.0,0.0,0.0,0.0,0.0,0.0,0.0,0.0,0.0,0.0,0.0,0.0,0.0,0.0,0.0,0.0,0.0,0.0,0.0,0.0,0.0,0.0,0.0,0.0,0.0,0.0,0.0,0.0,0.0,0.0,0.0,0.0,0.0,0.0,0.0,0.0,0.0,0.0,0.0,0.0,0.0,0.0,0.0,0.0,0.0,0.0,0.0,0.0,0.0,0.0,0.0,0.0,0.0,0.0,0.0,0.0,0.0,0.0,0.0,0.0,0.0,0.0,0.0,0.0,0.0,0.0,0.0,0.0,0.0,0.0,0.0,0.0,0.0,0.0,0.0,0.0,0.0,0.0,0.0,0.0,0.0,0.0,0.0,0.0,0.0,0.0,0.0,0.0,0.0,0.0,0.0,0.0,0.0,0.0,0.0,0.0,0.0,0.0,0.0,0.0,0.0,0.0,0.0,0.0,0.0,0.0,0.0,0.0,0.0,0.0,0.0,0.0,0.0,0.0,0.0,0.0,0.0,0.0,0.0,0.0,0.0,0.0,0.0,0.0,0.0,0.0,0.0,0.0,0.0,0.0,0.0,0.0,0.0,0.0,0.0,0.0,0.0,0.0,0.0,0.0,0.0,0.0,0.0,0.0,0.0,0.0,0.0,0.0,0.0,0.0,0.0,0.0,0.0,0.0,0.0,0.0,0.0,0.0,0.0,0.0,0.0,0.0,0.0,0.0,0.0,0.0,0.0,0.0,0.0,0.0,0.0,0.0,0.0,0.0,0.0,0.0,0.0,0.0,0.0,0.0,0.0,0.0,0.0,0.0,0.0,0.0,0.0,0.0,0.0,0.0,0.0,0.0,0.0,0.0,0.0,0.0,0.0,0.0,0.0,0.0,0.0,0.0,0.0,0.0,0.0,0.0,0.0,0.0,0.0,0.0,0.0,0.0,0.0,0.0,0.0,0.0,0.0,0.0,0.0,0.0,0.0,0.0,0.0,0.0,0.0,0.0,0.0,0.0,0.0,0.0,0.0,0.0,0.0,0.0,0.0,0.0,0.0,0.0,0.0,0.0,0.0,0.0,0.0,0.0,0.0,0.0,0.0,0.0,0.0,0.0,0.0,0.0,0.0,0.0,0.0,0.0,0.0,0.0,0.0,0.0,0.0,0.0,0.0,0.0,0.0,0.0,0.0,0.0,0.0,0.0,0.0,0.0,0.0,0.0,0.0,0.0,0.0,0.0,0.0,0.0,0.0,0.0,0.0,0.0,0.0,0.0,0.0,0.0,0.0,0.0,0.0,0.0,0.0,0.0,0.0,0.0,0.0,0.0,0.0,0.0,0.0,0.0,0.0,0.0,0.0,0.0,0.0,0.0,0.0,0.0,0.0,0.0,0.0,0.0,0.0,0.0,0.0,0.0,0.0,0.0,0.0,0.0,0.0,0.0,0.0,0.0,0.0,0.0,0.0,0.0,0.0,0.0,0.0,0.0,0.0,0.0,0.0,0.0,0.0,0.0,0.0,0.0,0.0,0.0,0.0,0.0,0.0,0.0,0.0,0.0,0.0,0.0,0.0,0.0,0.0,0.0,0.0,0.0,0.0,0.0,0.0,0.0,0.0,0.0,0.0,0.0,0.0,0.0,0.0,0.0,0.0,0.0,0.0,0.0,0.0,0.0,0.0,0.0,0.0,0.0,0.0,0.0,0.0,0.0,0.0,0.0,0.0,0.0,0.0,0.0,0.0,0.0,0.0,0.0,0.0,0.0,0.0,0.0,0.0,0.0,0.0,0.0,0.0,0.0,0.0,0.0,0.0,0.0,0.0,0.0,0.0,0.0,0.0,0.0,0.0,0.0,0.0,0.0,0.0,0.0,0.0,0.0,0.0,0.0,0.0,0.0,0.0,0.0,0.0,0.0,0.0,0.0,0.0,0.0,0.0,0.0,0.0,0.0,0.0,0.0,0.0,0.0,0.0,0.0,0.0,0.0,0.0,0.0,0.0,0.0,0.0,0.0,0.0,0.0,0.0,0.0,0.0,0.0,0.0,0.0,0.0,0.0,0.0,0.0,0.0,0.0,0.0,0.0,0.0,0.0,0.0,0.0,0.0,0.0,0.0,0.0,0.0,0.0,0.0,0.0,0.0,0.0,0.0,0.0,0.0,0.0,0.0,0.0,0.0,0.0,0.0,0.0,0.0,0.0,0.0,0.0,0.0,0.0,0.0,0.0,0.0,0.0,0.0,0.0,0.0,0.0,0.0,0.0,0.0,0.0,0.0,0.0,0.0,0.0,0.0,0.0,0.0,0.0,0.0,0.0,0.0,0.0,0.0,0.0,0.0,0.0,0.0,0.0,0.0,0.0,0.0,0.0,0.0,0.0,0.0,0.0,0.0,0.0,0.0,0.0,0.0,0.0,0.0,0.0,0.0,0.0,0.0,0.0,0.0,0.0,0.0,0.0,0.0,0.0,0.0,0.0,0.0,0.0,0.0,0.0,0.0,0.0,0.0,0.0,0.0,0.0,0.0,0.0,0.0,0.0,0.0,0.0,0.0,0.0,0.0,0.0,0.0,0.0,0.0,0.0,0.0,0.0,0.0,0.0,0.0,0.0,0.0,0.0,0.0,0.0,0.0,0.0,0.0,0.0,0.0,0.0,0.0,0.0,0.0,0.0,0.0,0.0,0.0,0.0,0.0,0.0,0.0,0.0,0.0,0.0,0.0,0.0,0.0,0.0,0.0,0.0,0.0,0.0,0.0,0.0,0.0,0.0,0.0,0.4909,0.0,0.0,0.0,0.0,0.0,0.0,0.0,0.0,0.0,0.0,0.0,0.0,0.0,0.0,0.0,0.0,0.0,0.0,0.0,0.0,0.0,0.0,0.0,0.0,0.0144,-0.0434,-0.1044,-0.0824,-0.0725,-0.0859,0.0,0.0,0.0,0.0,0.0,0.1541,0.1385,0.1371,0.1526,0.1635,0.1877,0.2224,0.2368,0.2324,0.2138,0.0,0.0,0.0,0.0,0.0,0.0,0.0,0.0,0.0,0.0,0.0,0.0,0.0,0.0,0.0,0.0,0.0,0.0,0.0,0.0,0.0,0.0,0.0,0.0,0.0,0.0,0.0,0.0,0.0,0.0,0.0,0.0,0.0,0.0,0.0,0.0,0.0,0.0,0.0,0.0,0.0,0.0,0.0,0.0,0.0,0.0,0.0,0.0,0.0,0.0,0.0,0.0,0.0,0.0,0.0,0.0,0.0,0.0,0.0,0.0,0.0,0.0,0.0,0.0,0.0,0.0,0.0,0.0,0.0,0.0,0.0,0.4932,0.0,0.0,0.0,0.0,0.0,0.0,0.0,0.0,0.0,0.0,0.0,0.0,0.0,0.0,0.0,0.0,0.0,0.0,0.0,0.0,0.0,0.1042,0.0374,-0.0193,-0.0744,-0.1304,-0.0838,-0.0463,-0.0342,0.0444,0.0,0.0,0.0,0.1803,0.1803,0.1426,0.1495,0.2041,0.1989,0.2342,0.3066,0.3138,0.3018,0.2726,0.2728,0.0,0.0,0.0,0.0,0.0,0.0,0.0,0.0,0.0,0.0,0.0,0.0,0.0,0.0,0.0,0.0,0.0,0.0,0.0,0.0,0.0,0.0,0.0,0.0,0.0,0.0,0.0,0.0,0.0,0.0,0.0,0.0,0.0,0.0,0.0,0.0,0.0,0.0,0.0,0.0,0.0,0.0,0.0,0.0,0.0,0.0,0.0,0.0,0.0,0.0,0.0,0.0,0.0,0.0,0.0,0.0,0.0,0.0,0.0,0.0,0.0,0.0,0.0,0.562,0.5749,0.5959,0.601,0.6034,0.605,0.6159,0.5734,0.5023,0.487,0.0,0.0,0.0,0.0,0.0,0.0,0.0,0.0,0.0,0.0,0.0,0.0,0.0,0.0,0.0,0.0,0.0,0.0,0.0,0.0943,-0.0012,-0.0653,-0.1156,-0.1525,-0.1223,-0.0743,-0.0099,0.0544,0.0,0.0,0.1781,0.1803,0.1803,0.1243,0.1109,0.1418,0.2202,0.2955,0.3673,0.359,0.3576,0.3614,0.3094,0.34,0.4271,0.0,0.0,0.0,0.0,0.0,0.0,0.0,0.0,0.0,0.0,0.0,0.0,0.0,0.0,0.0,0.0,0.0,0.0,0.0,0.0,0.0,0.0,0.0,0.0,0.0,0.0,0.0,0.0,0.0,0.0,0.0,0.0,0.0,0.0,0.0,0.0,0.0,0.0,0.0,0.0,0.0,0.4038,0.4589,0.0,0.0,0.0,0.0,0.0,0.0,0.0,0.0,0.0,0.0,0.0,0.0,0.0,0.5351,0.5471,0.5917,0.6037,0.5909,0.6431,0.6675,0.659,0.6805,0.692,0.6916,0.6941,0.0,0.5491,0.5368,0.0,0.0,0.0,0.0,0.0,0.0,0.0,0.0,0.0,0.0,0.0,0.0,0.0,0.0,0.0,0.0,0.0,0.0,0.0,0.0,0.0,-0.0968,-0.1659,-0.2071,-0.1554,-0.0893,-0.0155,0.0522,0.1267,0.2106,0.1915,0.1911,0.213,0.1323,0.1157,0.1695,0.2942,0.3713,0.4021,0.4092,0.4136,0.418,0.3789,0.3954,0.4464,0.4146,0.0,0.0,0.0,0.0,0.0,0.0,0.0,0.0,0.0,0.0,0.0,0.0,0.0,0.0,0.0,0.0,0.0,0.0,0.0,0.0,0.0,0.0,0.0,0.0,0.0,0.0,0.0,0.0,0.0,0.0,0.0,0.0,0.0,0.0,0.0,0.0,0.0,0.0,0.0,0.4192,0.5255,0.5615,0.6274,0.6621,0.0,0.0,0.0,0.0,0.0,0.0,0.0,0.0,0.0,0.6097,0.6043,0.6098,0.6213,0.6573,0.6763,0.6787,0.7051,0.7187,0.721,0.7339,0.7397,0.7397,0.7397,0.7092,0.66,0.619,0.581,0.5487,0.0,0.0,0.0,0.0,0.5219,0.4957,0.0,0.0,0.0,0.0,0.0,0.0,0.0,0.0,0.0,0.0,0.0,0.0,-0.0108,-0.1157,-0.1934,-0.2289,-0.1767,-0.105,-0.0164,0.0558,0.1422,0.2485,0.2124,0.2028,0.2296,0.1651,0.1638,0.2332,0.3584,0.4214,0.4277,0.444,0.4491,0.4484,0.4351,0.4421,0.467,0.4484,0.4671,0.5049,0.0,0.0,0.0,0.0,0.0,0.0,0.0,0.0,0.0,0.0,0.0,0.0,0.0,0.0,0.0,0.0,0.0,0.0,0.0,0.0,0.0,0.0,0.0,0.0,0.0,0.0,0.0,0.0,0.0,0.0,0.0,0.0,0.0,0.0,0.0,0.0,0.0,0.5086,0.6265,0.6433,0.7369,0.7866,0.0,0.0,0.0,0.0,0.0,0.0,0.8473,0.7861,0.7335,0.6942,0.6804,0.6756,0.6871,0.7129,0.7316,0.7431,0.7465,0.7543,0.7655,0.7695,0.7712,0.7712,0.7712,0.7628,0.7441,0.6875,0.6491,0.6205,0.6091,0.603,0.6051,0.6165,0.6148,0.6142,0.0,0.0,0.0,0.0,0.0,0.0,0.0,0.0,0.0,0.0,0.0,0.0903,-0.0097,-0.1165,-0.1817,-0.1842,-0.1801,-0.1217,0.0096,0.0756,0.1618,0.2822,0.2431,0.2124,0.2025,0.2283,0.2687,0.3241,0.3878,0.4291,0.4481,0.4487,0.4491,0.4491,0.4484,0.4836,0.541,0.469,0.4987,0.5853,0.4946,0.0,0.0,0.0,0.0,0.0,0.0,0.0,0.0,0.0,0.0,0.0,0.0,0.0,0.0,0.0,0.0,0.0,0.0,0.0,0.0,0.0,0.0,0.0,0.0,0.0,0.0,0.0,0.0,0.0,0.0,0.0,0.0,0.0,0.0,0.0,0.0,0.0,0.0,0.6593,0.8581,0.0,0.0,0.0,0.0,1.0401,1.0676,1.1076,1.1638,1.0094,0.9296,0.9489,0.813,0.7374,0.7385,0.7495,0.758,0.759,0.7726,0.7794,0.7804,0.7901,0.7968,0.7968,0.7968,0.788,0.7753,0.725,0.6974,0.6825,0.6715,0.6654,0.6675,0.6785,0.6836,0.6852,0.0,0.0,0.0,0.0,0.0,0.5077,0.4264,0.3447,0.2691,0.2027,0.1226,0.0493,-0.0132,-0.0806,-0.1347,-0.165,-0.1397,-0.0735,0.0448,0.088,0.1541,0.2531,0.2085,0.155,0.0988,0.261,0.3172,0.26,0.3797,0.4463,0.4638,0.4638,0.4368,0.3921,0.3921,0.3725,0.3455,0.4424,0.5255,0.5787,0.4764,0.4103,0.0,0.0,0.0,0.0,0.0,0.0,0.0,0.0,0.0,0.0,0.0,0.0,0.0,0.0,0.0,0.0,0.0,0.0,0.0,0.0,0.0,0.0,0.0,0.0,0.0,0.0,0.0,0.0,0.0,0.0,0.0,0.0,0.0,0.0,0.0,0.0,0.0,0.8447,0.9926,0.0,1.0636,1.1009,1.1363,1.1657,1.2138,1.2355,1.2185,1.0935,1.0058,0.9602,0.8344,0.7655,0.7655,0.7804,0.7833,0.7833,0.7884,0.7911,0.7911,0.7965,0.7988,0.7988,0.7988,0.7958,0.7897,0.7739,0.753,0.7353,0.7299,0.7278,0.7285,0.7339,0.736,0.737,0.0,0.0,0.0,0.0,0.5088,0.4631,0.3646,0.2905,0.2232,0.1578,0.0854,0.0265,-0.0092,-0.0622,-0.1089,-0.1402,-0.115,-0.0493,0.0628,0.0869,0.1399,0.2394,0.17,0.1286,0.1253,0.265,0.312,0.2558,0.3904,0.4621,0.4691,0.4445,0.4064,0.3592,0.3254,0.2792,0.2286,0.3572,0.4536,0.5134,0.4594,0.4161,0.3813,0.0,0.0,0.0,0.0,0.0,0.0,0.0,0.0,0.0,0.0,0.0,0.0,0.0,0.0,0.0,0.0,0.0,0.0,0.0,0.0,0.0,0.0,0.0,0.0,0.0,0.0,0.0,0.0,0.0,0.0,0.0,0.0,0.0,0.0,0.0,0.9449,0.9621,1.1112,1.2061,1.1891,1.2325,1.2739,1.3026,1.3427,1.3522,1.3231,1.226,1.1415,1.0817,0.9328,0.8754,0.9183,0.8379,0.8233,0.8676,0.8237,0.7988,0.7988,0.7988,0.7988,0.7988,0.7988,0.7988,0.7988,0.7988,0.7877,0.7746,0.7746,0.7746,0.7698,0.7212,0.7068,0.7068,0.0,0.0,0.0,0.4856,0.468,0.4234,0.2907,0.2412,0.1875,0.1018,0.0615,0.0292,0.0022,-0.0627,-0.1073,-0.1058,-0.1055,-0.0553,0.0649,0.0718,0.1237,0.2419,0.1385,0.1448,0.2843,0.2475,0.2616,0.3322,0.4241,0.4694,0.4649,0.3942,0.3569,0.348,0.2586,0.2156,0.2122,0.2153,0.2849,0.3955,0.4454,0.455,0.4344,0.0,0.0,0.0,0.0,0.0,0.0,0.0,0.0,0.0,0.0,0.0,0.0,0.0,0.0,0.0,0.0,0.0,0.0,0.0,0.0,0.0,0.0,0.0,0.0,0.0,0.0,0.0,0.0,0.0,0.0,0.0,0.0,0.0,0.7204,0.9186,1.0495,1.008,1.2138,1.3434,1.2911,1.3641,1.4235,1.4522,1.4543,1.4676,1.5022,1.3979,1.3409,1.3409,1.125,1.0632,1.1896,0.941,0.8775,0.9998,0.8676,0.8038,0.7988,0.7988,0.7988,0.7988,0.7988,0.7988,0.7988,0.7988,0.7988,0.7988,0.7988,0.7988,0.7839,0.6531,0.6079,0.6079,0.0,0.0,0.5423,0.4558,0.4248,0.3794,0.2842,0.2248,0.1673,0.0985,0.0616,0.0292,0.0022,-0.0193,-0.0307,-0.0292,-0.0309,0.0199,0.1423,0.0995,0.1078,0.1946,0.2413,0.2578,0.2385,0.3363,0.3747,0.3527,0.432,0.4469,0.4035,0.3848,0.3107,0.1931,0.1669,0.1199,0.0637,0.1177,0.1607,0.1997,0.3104,0.3762,0.4085,0.0,0.0,0.0,0.0,0.0,0.0,0.0,0.0,0.0,0.0,0.0,0.0,0.0,0.0,0.0,0.0,0.0,0.0,0.0,0.0,0.0,0.0,0.0,0.0,0.0,0.0,0.0,0.0,0.0,0.0,0.0,0.0,0.8772,0.9391,1.0684,1.1785,1.2505,1.3412,1.4068,1.4372,1.462,1.4843,1.513,1.5157,1.5284,1.5578,1.4407,1.3767,1.3767,1.22,1.1556,1.1896,1.1165,1.0534,0.9998,0.9608,0.892,0.7988,0.7988,0.7988,0.7988,0.7988,0.7988,0.7988,0.7988,0.7988,0.7988,0.7988,0.7988,0.7939,0.7587,0.7434,0.7434,0.0,0.5328,0.5078,0.4264,0.3909,0.3497,0.2805,0.2187,0.1585,0.0978,0.0609,0.0301,0.0023,0.0,0.0,0.0,0.0,0.0485,0.1647,0.1614,0.1822,0.2452,0.2746,0.2829,0.2702,0.3646,0.3766,0.3018,0.3879,0.3969,0.3241,0.2921,0.2239,0.1273,0.0906,0.0266,-0.0525,-0.0098,0.0257,0.0624,0.1391,0.2503,0.3714,0.3909,0.4109,0.4248,0.3755,0.388,0.4219,0.3762,0.0,0.0,0.0,0.0,0.0,0.0,0.0,0.0,0.0,0.0,0.0,0.0,0.0,0.0,0.0,0.0,0.0,0.0,0.0,0.0,0.0,0.0,0.0,0.0,0.8751,0.9763,1.1496,1.2378,1.3053,1.3748,1.4309,1.477,1.511,1.5257,1.5398,1.5565,1.5578,1.5651,1.5771,1.5092,1.4704,1.4704,1.3445,1.3011,1.3547,1.2431,1.1799,1.1648,1.1068,1.0096,0.8825,0.8825,0.8531,0.7988,0.7988,0.7988,0.7988,0.7988,0.7988,0.0,0.0,0.0,0.0,0.0,0.7182,0.7182,0.0,0.5049,0.4807,0.4037,0.3657,0.3283,0.2773,0.2187,0.1581,0.0986,0.0646,0.0332,0.0023,0.0,0.0,0.0,0.0073,0.054,0.0,0.2422,0.3032,0.3373,0.2788,0.2815,0.353,0.3551,0.3175,0.2368,0.325,0.3213,0.2358,0.1624,0.124,0.1106,0.0235,-0.0572,-0.1307,-0.1407,-0.1089,-0.045,-0.0281,0.1206,0.3345,0.3884,0.4191,0.4311,0.3989,0.4153,0.4443,0.3882,0.0,0.0,0.0,0.0,0.0,0.0,0.0,0.0,0.0,0.0,0.0,0.0,0.0,0.0,0.0,0.0,0.0,0.0,0.0,0.0,0.0,0.0,0.0,0.0,0.9414,1.0549,1.333,1.3995,1.4188,1.4188,1.4903,1.5411,1.5444,1.5678,1.5784,1.5784,1.5784,1.5784,1.5784,0.0,0.0,0.0,0.0,1.4657,1.5778,1.3499,1.2866,1.3872,1.2668,1.1361,0.9998,0.9998,0.9262,0.7988,0.7988,0.7988,0.7988,0.7988,0.7988,0.7988,0.7988,0.7988,0.7839,0.6681,0.6232,0.6232,0.0,0.4785,0.4596,0.3996,0.3494,0.3066,0.2751,0.2187,0.1587,0.0978,0.0842,0.0593,0.0067,0.0,0.0,0.0,0.0455,0.1067,0.0,0.0,0.3762,0.341,0.3833,0.4181,0.4439,0.3738,0.3391,0.3496,0.3001,0.234,0.1529,0.137,0.094,0.0202,-0.0671,-0.114,-0.134,-0.2108,-0.2335,-0.2086,-0.074,0.1199,0.3324,0.3418,0.4215,0.5159,0.4567,0.4752,0.5196,0.4536,0.419,0.3983,0.389,0.0,0.0,0.0,0.0,0.0,0.0,0.0,0.0,0.0,0.0,0.0,0.0,0.0,0.0,0.0,0.0,0.0,0.0,0.0,0.0,0.9275,1.0609,1.2083,1.4045,1.4609,1.4841,1.4841,1.515,1.5484,1.5718,1.5751,1.5784,1.5784,1.5784,1.5784,1.5784,1.5784,1.5784,1.5784,1.5581,1.554,1.5784,1.5296,1.4657,1.3926,0.0,0.0,0.9998,0.9998,0.9262,0.7988,0.7988,0.7988,0.7988,0.7988,0.7988,0.7988,0.7988,0.7988,0.7988,0.7686,0.7637,0.7637,0.4527,0.4386,0.4171,0.3765,0.337,0.3014,0.274,0.2307,0.1733,0.099,0.0902,0.0677,0.0062,0.0,0.0,0.0,0.0818,0.0,0.0,0.3481,0.4066,0.3962,0.4383,0.4641,0.4691,0.3955,0.3423,0.3145,0.2312,0.1456,0.0638,0.0638,0.0168,-0.0672,-0.1106,-0.1809,-0.2678,-0.3145,-0.3347,-0.3236,-0.1977,-0.0249,0.1669,0.2863,0.4053,0.5037,0.4653,0.4708,0.4948,0.4625,0.4389,0.4239,0.4239,0.3982,0.3408,0.0,0.0,0.0,0.0,0.0,0.0,0.0,0.0,0.0,0.0,0.0,0.0,0.0,0.0,0.4615,0.0,0.0,0.8383,1.0539,1.1665,1.278,1.4306,1.4903,1.5177,1.5177,1.5438,1.5671,1.5764,1.5784,1.5784,1.5784,1.5784,1.5784,1.5784,1.5784,1.5784,1.5784,1.5784,1.5784,1.5784,1.5784,1.5486,1.4854,1.4854,1.383,1.194,1.1263,1.0239,0.897,0.8283,0.7988,0.7988,0.7988,0.7988,0.7988,0.7988,0.7988,0.7988,0.7988,0.7988,0.7988,0.4354,0.4078,0.3817,0.3548,0.3277,0.3014,0.274,0.2415,0.1893,0.1016,0.0901,0.0678,0.0075,0.0,0.0077,0.029,0.0,0.0,0.0,0.3714,0.4212,0.4481,0.4607,0.4616,0.4494,0.3845,0.3102,0.2269,0.1459,0.0604,-0.0269,-0.0269,-0.0739,-0.1574,-0.1742,-0.2644,-0.4015,-0.4184,-0.4284,-0.4209,-0.3296,-0.1935,-0.0185,0.1849,0.337,0.4454,0.4479,0.4405,0.4294,0.446,0.4405,0.4294,0.4294,0.3778,0.299,0.208,0.1474,0.0,0.0,0.0,0.0,0.0,0.0,0.0,0.0,0.0,0.2711,0.3901,0.4525,0.5428,0.722,0.8046,0.9197,1.1462,1.2469,1.3367,1.4504,1.5097,1.5418,1.5471,1.5691,1.5784,1.5784,1.5784,1.5784,1.5784,1.5784,1.5784,1.5784,1.5784,1.5784,1.5784,1.5784,1.5784,1.5784,1.5784,1.5784,1.5784,1.5784,1.5146,1.3872,1.277,1.1458,0.9899,0.8577,0.7988,0.7988,0.7988,0.7988,0.7988,0.7988,0.7988,0.7988,0.7988,0.7988,0.7988,0.0,0.4078,0.3817,0.3548,0.3277,0.3014,0.274,0.2415,0.1887,0.1018,0.0899,0.0671,0.0068,0.0,0.0383,0.1331,0.0,0.0,0.3624,0.4156,0.4453,0.4487,0.4505,0.4267,0.3724,0.283,0.2059,0.1434,0.0571,-0.0303,-0.114,-0.114,-0.1641,-0.2577,-0.3347,-0.3813,-0.4048,-0.4891,-0.5259,-0.5156,-0.4234,-0.2776,-0.1075,-0.0154,0.1589,0.3641,0.4273,0.407,0.3624,0.4267,0.407,0.3511,0.3511,0.3448,0.2971,0.1006,0.0,0.131,-0.0471,-0.028,0.0505,0.0795,0.0873,0.12,0.0,0.0,0.3313,0.4411,0.5486,0.6363,0.6608,0.8549,1.0293,1.0862,1.2818,1.4531,1.5217,1.5357,1.5491,1.5752,1.5764,1.5784,1.5784,1.5784,1.5784,1.5784,1.5784,1.5784,1.5784,1.5784,1.5784,1.5784,1.5784,1.5784,1.5784,1.5784,1.5784,1.5784,1.5784,1.5146,1.3872,1.3734,1.2323,0.9899,0.8577,0.7988,0.7988,0.7988,0.7988,0.7988,0.7988,0.7988,0.7988,0.7988,0.7988,0.7988,0.0,0.4191,0.3869,0.3744,0.351,0.3191,0.2762,0.2578,0.2159,0.1256,0.0995,0.0725,0.0285,0.0094,0.0392,0.1344,0.1823,0.0,0.3614,0.409,0.4375,0.4487,0.4576,0.4304,0.3614,0.2787,0.2012,0.1309,-0.0067,-0.0939,-0.1307,-0.1876,-0.2611,-0.348,-0.3846,-0.4317,-0.4855,-0.5226,-0.5395,-0.5319,-0.4306,-0.3428,-0.2549,-0.0754,0.0811,0.2221,0.3425,0.3652,0.0,0.0,0.3594,0.3262,0.2843,0.2695,0.2345,0.0611,0.0105,0.0,-0.1604,-0.0928,0.0084,0.0,0.0,0.0834,0.2627,0.3107,0.3702,0.5405,0.628,0.694,0.7639,0.9298,1.084,0.0,1.3542,1.4923,1.5337,1.5398,1.5438,1.5565,1.5578,1.5645,1.5764,1.5784,1.5784,1.5784,1.5784,1.5784,1.5784,1.5784,1.5784,1.5784,1.5784,1.5784,1.5784,1.5784,1.5919,1.6086,1.5912,1.5625,1.5238,1.4334,1.2542,1.0108,0.9712,0.9104,0.8292,0.8208,0.8174,0.8167,0.8025,0.7988,0.7988,0.7988,0.7988,0.7988,0.0,0.4436,0.4068,0.3931,0.3741,0.3398,0.2794,0.2697,0.2366,0.1427,0.106,0.079,0.0512,0.0313,0.0542,0.142,0.1916,0.2602,0.3549,0.3974,0.4284,0.4484,0.4367,0.3975,0.3222,0.2484,0.1638,0.0636,-0.0616,-0.1473,-0.1963,-0.2616,-0.3401,-0.4254,-0.4284,-0.4665,-0.533,-0.533,-0.533,-0.5251,-0.4426,-0.3954,-0.351,-0.1475,0.0028,0.1231,0.2772,0.3329,0.0,0.3263,0.3118,0.2819,0.2116,0.177,0.1348,0.0079,-0.0826,-0.1556,-0.2219,0.0,0.0,-0.1075,-0.0607,0.0558,0.2677,0.3249,0.3926,0.6114,0.6916,0.7451,0.803,0.9441,1.0918,1.218,1.3582,1.4721,1.5418,1.5444,1.5398,1.5398,1.5398,1.5478,1.5691,1.5785,1.5784,1.5784,1.5784,1.5784,1.5784,1.5784,1.5784,1.5784,1.5912,1.5952,1.5952,1.6032,1.6139,1.6321,1.6132,1.6139,1.6266,1.4789,1.3193,1.1456,1.135,1.0439,0.9089,0.8936,0.8674,0.8255,0.8099,0.7988,0.7988,0.7988,0.7988,0.7988,0.0,0.0,0.4507,0.3986,0.389,0.3622,0.2826,0.2697,0.2361,0.1424,0.1065,0.0844,0.0712,0.0679,0.1033,0.1905,0.2408,0.295,0.3571,0.3974,0.4284,0.4484,0.3766,0.3004,0.2255,0.1528,0.0418,-0.1017,-0.1079,-0.1942,-0.3541,-0.3572,-0.4033,-0.4877,-0.5011,-0.5071,-0.5106,-0.5106,-0.5106,-0.5093,-0.4921,-0.4351,-0.3521,-0.2726,-0.1039,0.1111,0.2574,0.0,0.3121,0.3112,0.2622,0.1943,0.1314,0.0645,0.0,-0.0848,-0.1602,0.0,0.0,0.0,-0.1069,-0.1096,-0.0535,0.0589,0.2775,0.3335,0.4025,0.6245,0.7477,0.7888,0.6954,0.8655,1.0481,1.1238,1.2412,1.3854,1.5543,1.5571,1.5398,1.5398,1.5398,1.5398,0.0,1.5665,1.5784,1.5784,1.5784,1.5784,1.5784,1.5784,1.5784,1.5784,1.6112,1.6259,1.6259,1.654,1.6547,1.6279,1.6547,1.6533,1.6279,1.5226,1.4725,1.4579,1.3319,1.1934,1.063,1.0395,0.9525,0.8255,0.8099,0.7988,0.7988,0.7988,0.7988,0.7988,0.0,0.0,0.0,0.4491,0.4142,0.3633,0.2826,0.2697,0.2448,0.1725,0.1204,0.0,0.0,0.0,0.0,0.0,0.0,0.2998,0.3366,0.3983,0.4336,0.4311,0.3665,0.2942,0.2211,0.1479,0.062,-0.0359,-0.1492,-0.2305,-0.2887,-0.3964,-0.461,-0.4891,-0.4938,-0.4958,-0.4958,-0.4958,-0.5012,-0.5076,-0.4863,-0.4647,-0.4306,-0.2855,-0.1265,0.0394,0.0,0.0,0.2963,0.2976,0.2538,0.1869,0.1193,0.0,0.0,-0.0738,-0.1628,-0.2224,-0.2349,0.0,-0.1126,-0.1198,-0.0074,0.1474,0.2969,0.3865,0.4849,0.6376,0.6903,0.6983,0.6764,0.7877,0.939,1.1058,1.1597,1.2734,1.5429,1.4803,1.4393,1.5299,1.5398,0.0,0.0,0.0,0.0,1.5784,1.5784,1.5784,1.5784,1.5784,1.5784,1.5784,1.6119,1.6321,1.6321,1.656,1.6754,1.6911,1.7005,1.6898,1.6573,1.6449,1.5844,1.4912,1.4664,1.3731,1.2385,1.222,1.123,0.9876,0.9649,0.8918,0.7988,0.7988,0.7988,0.7988,0.0,0.0,0.0,0.0,0.0,0.0,0.0,0.0,0.0,0.0,0.0,0.0,0.0,0.0,0.0,0.0,0.0,0.0,0.367,0.0,0.4318,0.4275,0.3353,0.2609,0.2127,0.1184,0.0224,-0.0794,-0.1592,-0.2263,-0.2791,-0.3564,-0.3921,-0.3924,-0.3998,-0.4201,-0.4444,-0.4707,-0.4884,-0.4945,-0.4934,-0.4816,-0.4477,-0.2777,-0.1337,0.0,0.0,0.0,0.3136,0.313,0.2914,0.2495,0.0,0.0,0.0414,-0.1058,-0.1655,-0.1834,-0.1963,-0.1372,-0.0721,-0.0803,0.0385,0.1899,0.3042,0.4059,0.5086,0.6307,0.6645,0.6656,0.6428,0.7184,0.8426,1.007,1.077,1.2003,1.469,1.4506,1.444,1.5305,1.5398,1.5398,0.0,0.0,0.0,1.5784,1.5784,1.5784,1.5784,1.5784,1.5784,1.5784,1.6219,1.6426,1.6426,1.682,1.7114,1.7353,1.7253,1.7152,1.7027,1.7215,1.6821,1.5928,1.61,1.5364,1.4057,1.3868,1.2846,1.1344,1.1203,1.0108,0.8726,0.8726,0.8432,0.7988,0.0,0.0,0.0,0.0,0.0,0.0,0.0,0.0,0.0,0.0,0.0,0.0,0.0,0.0,0.0,0.0,0.0,0.0,0.0,0.0,0.0,0.438,0.2869,0.2034,0.2037,0.073,-0.064,-0.2032,-0.1402,-0.1828,-0.3159,-0.2524,-0.2192,-0.2223,-0.2439,-0.2911,-0.3635,-0.4343,-0.4668,-0.4697,-0.5091,-0.4807,-0.3994,-0.2549,0.0,0.0,0.0,0.0,0.0,0.0,0.0,0.0,0.0,0.0,0.0,-0.1617,-0.1569,-0.1043,-0.1033,-0.0538,0.0,0.0,0.0839,0.1944,0.306,0.392,0.4849,0.6014,0.6636,0.6708,0.0,0.0,0.7513,0.8434,0.9897,1.1553,1.3449,1.4651,1.5371,0.0,0.0,0.0,0.0,0.0,0.0,1.5784,0.0,1.5784,1.5784,1.5784,1.5784,1.5784,1.64,1.6707,1.6707,1.7288,1.7582,1.7582,1.7353,1.7367,1.7582,1.7582,1.7582,1.7582,1.7582,1.6823,1.5506,1.538,1.4275,1.2674,1.2576,1.1508,1.0096,1.0096,0.9316,0.8187,0.0,0.0,0.0,0.0,0.0,0.0,0.0,0.0,0.0,0.0,0.0,0.0,0.0,0.0,0.0,0.0,0.0,0.0,0.0,0.0,0.0,0.0,0.0,0.256,0.2661,0.1359,0.0481,0.0102,-0.0715,-0.1283,-0.1657,-0.2042,-0.2199,-0.2225,-0.2715,-0.3039,-0.3274,-0.3897,-0.4223,-0.4318,0.0,-0.4006,-0.3428,0.0,0.0,0.0,0.0,0.0,0.0,0.0,0.0,0.0,0.0,0.0,0.0897,0.0,0.0,-0.0276,-0.0292,-0.0153,0.0,0.0,0.1373,0.2804,0.3066,0.3943,0.4878,0.5745,0.5326,0.4944,0.0,0.0,0.0,0.8195,0.9089,0.0,1.3304,1.4051,0.0,1.557,0.0,1.5718,1.5718,1.5738,0.0,0.0,1.5784,1.5784,1.5784,1.5784,1.5784,1.5784,1.64,1.6707,1.6707,1.7288,1.7582,1.7582,1.7508,1.7508,1.7582,1.7582,1.7582,1.7582,1.7582,1.7364,1.7035,1.7016,1.5902,1.4225,1.4218,1.3027,1.1414,1.1414,1.1214,1.0779,0.0,0.0,0.0,0.0,0.0,0.0,0.0,0.0,0.0,0.0,0.0,0.0,0.0,0.0,0.0,0.0,0.0,0.0,0.0,0.0,0.0,0.0,0.3089,0.2519,0.2582,0.1687,0.1003,0.0,0.0,0.0,-0.081,-0.1106,-0.1239,-0.1257,-0.186,-0.2313,-0.2663,-0.3332,0.0,0.0,0.0,0.0,0.0,0.0,0.0,0.0,0.0,0.0,0.0,0.0,0.0,0.3838,0.3328,0.2582,0.1865,0.1523,0.0,0.0,0.0,0.0,0.0124,0.0577,0.1919,0.3169,0.3527,0.4378,0.5158,0.5449,0.4872,0.0,0.5056,0.0,0.0,0.0,0.0,0.0,1.3135,1.4221,1.4997,0.0,1.5784,0.0,1.5784,1.5784,1.5784,0.0,1.5784,1.5784,1.5784,1.5784,1.5885,1.6019,1.6466,1.6827,1.7088,1.7415,1.7582,1.7582,1.7582,1.7582,1.7582,1.7582,1.7582,1.7582,0.0,1.7582,1.7582,1.7582,1.6886,1.584,1.567,1.455,1.2959,1.2807,1.2431,1.1804,0.0,0.0,0.0,0.0,0.0,0.0,0.0,0.0,0.0,0.0,0.0,0.0,0.0,0.0,0.0,0.0,0.0,0.0,0.0,0.0,0.0,0.0,0.2974,0.2308,0.2321,0.1893,0.129,0.0,0.0,0.0,0.0,0.0,0.0,0.0,0.0,0.0,0.0,0.0,0.0,0.0,0.0,0.0,0.0,0.0,0.0,0.0,0.0,0.0,0.0,0.0,0.4791,0.4677,0.431,0.3626,0.279,0.1995,0.1025,0.0191,0.0039,0.0,0.0253,0.1343,0.2346,0.3275,0.4024,0.4833,0.5335,0.5133,0.0,0.4578,0.4806,0.4961,0.5621,0.7262,0.0,1.0995,1.2496,1.4338,1.5542,1.5534,1.5683,1.5784,1.5784,1.5784,1.5784,1.5784,1.5784,1.5784,1.5784,1.5784,1.5985,1.6319,1.6613,1.7027,1.7575,1.7582,1.7582,1.7582,1.7582,1.7582,1.7582,1.7582,1.7582,1.7582,1.7582,1.7582,1.7582,1.7582,1.7467,1.7172,1.6867,1.587,1.458,1.4316,1.3491,1.2473,0.0,0.0,0.0,0.0,0.0,0.0,0.0,0.0,0.0,0.0,0.2789,0.2218,0.0,0.0,0.0,0.0,0.0,0.0,0.0,0.0,0.0,0.0,0.3281,0.2831,0.2943,0.0,0.0,0.0,0.0,0.0,0.0,0.0,0.0,0.0,0.0,0.0,0.0,0.0,0.0,0.0,0.0,0.0,0.0,0.0,0.0,0.0,0.0,0.0,0.0,0.0,0.5922,0.5052,0.5133,0.4711,0.3989,0.2955,0.2017,0.1141,0.0247,0.0,0.0258,0.1348,0.2264,0.314,0.401,0.4244,0.0,0.0,0.418,0.3753,0.4445,0.4769,0.5212,0.6022,0.0,0.0,0.0,0.0,1.4127,0.0,0.0,0.0,0.0,0.0,0.0,0.0,1.5784,1.5784,1.5784,1.5784,1.6072,1.6613,1.6914,1.7293,1.7582,1.7582,1.7582,1.7582,1.7582,1.7582,1.7582,1.7582,1.7582,1.7582,1.7582,0.0,1.7582,1.7582,1.7467,1.7199,1.7146,1.6786,1.6232,1.5999,1.5748,1.5363,0.0,0.0,0.0,0.0,0.0,0.0,0.0,0.3813,0.3584,0.3363,0.2947,0.2603,0.2475,0.2406,0.2808,0.0,0.0,0.0,0.0,0.0,0.0,0.0,0.0,0.0,0.0,0.0,0.0,0.0,0.0,0.0,0.0,0.0,0.0,0.0,0.0,0.0,0.0,0.0,0.0,0.0,0.0,0.0,0.0,0.0,0.0,0.0,0.0,0.0,0.0,0.0,0.6102,0.5568,0.5512,0.4641,0.3681,0.3701,0.2324,0.0765,0.0833,0.0431,0.0395,0.1987,0.2634,0.3235,0.4534,0.0,0.0,0.0,0.0,0.4035,0.4418,0.0,0.0,0.0,0.0,0.0,0.0,0.0,0.0,0.0,0.0,0.0,0.0,0.0,0.0,0.0,1.5784,1.5784,1.5784,1.6119,1.6413,1.67,1.7141,1.7494,1.7582,1.7582,1.7582,1.7582,1.7582,1.7582,1.7582,1.7582,1.7582,1.7582,1.7582,1.7582,1.7582,1.7582,1.7502,1.7414,1.7259,1.7112,1.6901,1.6607,1.65,1.6404,0.0,0.0,0.0,0.0,0.0,0.0,0.0,0.394,0.3672,0.3034,0.2867,0.28,0.276,0.2632,0.2947,0.0,0.0,0.0,0.0,0.0,0.0,0.0,0.0,0.0,0.0,0.0,0.0,0.0,0.0,0.0,0.0,0.0,0.0,0.0,0.0,0.0,0.0,0.0,0.0,0.0,0.0,0.0,0.0,0.0,0.0,0.0,0.0,0.0,0.0,0.0,0.6383,0.6197,0.6164,0.491,0.3545,0.4004,0.2633,0.1054,0.154,0.121,0.1191,0.3004,0.3362,0.3624,0.5071,0.5216,0.0,0.0,0.4349,0.4236,0.4267,0.0,0.0,0.0,0.0,0.0,0.0,0.0,0.0,0.0,0.0,0.0,0.0,0.0,0.0,0.0,1.5784,1.5784,1.5784,1.6386,1.6707,1.6707,1.7275,1.7582,1.7582,1.7582,1.7582,1.7582,1.7582,1.7582,1.7582,1.7582,1.7582,1.7582,1.7582,1.7582,1.7582,1.7582,1.7582,1.7562,1.738,1.7293,1.7259,1.6907,1.68,1.676,0.0,0.0,0.0,0.0,0.0,0.0,0.0,0.3744,0.3437,0.3113,0.2756,0.2462,0.2277,0.214,0.2591,0.0,0.0,0.0,0.0,0.0,0.0,0.0,0.0,0.0,0.0,0.0,0.0,0.0,0.0,0.0,0.0,0.0,0.0,0.0,0.0,0.0,0.0,0.0,0.0,0.0,0.0,0.0,0.0,0.0,0.0,0.0,0.0,0.0,0.0,0.0,0.0,0.7033,0.7654,0.6711,0.5037,0.3361,0.0,0.0,0.2195,0.2432,0.3369,0.4468,0.4539,0.4541,0.5222,0.0,0.0,0.4556,0.3929,0.3428,0.3483,0.353,0.0,0.0,0.0,0.0,0.0,0.0,0.0,0.0,0.0,0.0,0.0,0.0,0.0,0.0,1.5784,1.5784,1.5784,1.6386,1.6707,1.6707,1.7275,1.7582,1.7582,1.7582,1.7582,1.7582,1.7582,1.7582,1.7582,1.7582,1.7582,1.7582,1.7582,1.7582,0.0,1.7582,1.7582,1.7582,1.7555,1.7542,1.7508,1.7266,1.7159,1.7119,0.0,0.0,0.0,0.0,0.0,0.0,0.3646,0.3402,0.3011,0.2294,0.2055,0.1918,0.185,0.1691,0.2224,0.3858,0.0,0.0,0.0,0.0,0.0,0.0,0.0,0.0,0.0,0.0,0.0,0.0,0.0,0.0,0.0,0.0,0.0,0.0,0.0,0.0,0.0,0.0,0.0,0.0,0.0,0.0,0.0,0.0,0.0,0.0,0.0,0.0,0.0,0.0,0.0,0.0,0.77,0.6913,0.0,0.0,0.3799,0.3287,0.2738,0.2889,0.3461,0.4499,0.4557,0.4527,0.5237,0.0,0.4833,0.4552,0.3873,0.3317,0.34,0.34,0.3468,0.0,0.443,0.5681,0.0,0.0,0.0,0.0,0.0,0.0,0.0,0.0,0.0,0.0,1.5784,1.5784,1.5784,1.6219,1.6526,1.67,1.7108,1.746,1.7582,1.7582,1.7582,1.7582,1.7582,1.7582,1.7582,1.7582,1.7582,1.7582,1.7582,1.7582,0.0,1.7582,1.7582,1.7582,1.7582,1.7582,1.7569,1.7507,1.746,1.742,0.0,0.0,0.0,0.0,0.0,0.3749,0.3263,0.3104,0.2733,0.189,0.1785,0.1771,0.1785,0.1617,0.2195,0.3901,0.4029,0.0,0.0,0.0,0.0,0.0,0.0,0.0,0.0,0.0,0.0,0.0,0.0,0.0,0.0,0.0,0.0,0.0,0.0,0.0,0.0,0.0,0.0,0.0,0.0,0.0,0.0,0.0,0.0,0.0,0.0,0.0,0.0,0.0,0.0,0.0,0.0,0.0,0.0,0.0,0.4027,0.3088,0.3045,0.3344,0.3802,0.4503,0.4678,0.4784,0.0,0.0,0.4775,0.4545,0.368,0.2982,0.3037,0.2871,0.2809,0.0,0.3828,0.5325,0.8108,0.0,0.0,0.0,0.0,0.0,0.0,0.0,0.0,0.0,1.6157,1.6197,1.5825,1.6025,1.6273,1.6567,1.6998,1.73,1.7507,1.7542,1.7582,1.7582,1.7582,1.7582,1.7582,1.7582,1.7582,1.7582,1.7582,1.7528,0.0,1.7549,1.7528,1.7514,1.7549,1.7582,1.7582,1.7582,1.7582,1.7555,0.0,0.0,0.0,0.0,0.0,0.0,0.2963,0.2906,0.2728,0.2247,0.2194,0.2188,0.2188,0.2078,0.2582,0.4074,0.4081,0.0,0.0,0.0,0.0,0.0,0.0,0.0,0.0,0.0,0.0,0.1802,0.0,0.0,0.0,0.0,0.0,0.0,0.0,0.0,0.0,0.0,0.0,0.0,0.0,0.0,0.0,0.0,0.0,0.0,0.0,0.0,0.0,0.0,0.0,0.0,0.0,0.0,0.0,0.0,0.4212,0.382,0.3104,0.3878,0.4849,0.473,0.5233,0.5649,0.0,0.4904,0.4679,0.4522,0.3289,0.2204,0.2204,0.1619,0.1369,0.2093,0.3232,0.4731,0.6827,0.0,0.0,0.0,0.0,0.0,0.0,0.0,0.0,0.0,1.699,0.0,1.5872,1.5784,1.5972,1.6266,1.6898,1.7199,1.7206,1.7494,1.7582,1.7582,1.7582,1.7582,1.7582,1.7582,1.7582,1.7582,1.7582,1.7474,0.0,1.7514,1.7467,1.7233,1.7521,1.7582,1.7582,1.7582,1.7582,1.7582,0.0,0.0,0.0,0.0,0.0,0.0,0.0,0.2278,0.2109,0.1645,0.1855,0.2097,0.2184,0.2074,0.2597,0.4074,0.4251,0.0,0.0,0.0,0.0,0.0,0.0,0.0,0.0,0.0,0.074,0.1188,0.1002,0.0693,0.0,0.0,0.0,0.0,0.0,0.0,0.0,0.0,0.0,0.0,0.0,0.0,0.0,0.0,0.0,0.0,0.0,0.0,0.0,0.0,0.0,0.0,0.0,0.0,0.0,0.0,0.0,0.0,0.3839,0.4351,0.5221,0.5183,0.5616,0.6015,0.5775,0.5977,0.5997,0.5337,0.4381,0.3385,0.2397,0.2009,0.1757,0.1482,0.289,0.0,0.0,0.0,0.0,0.0,0.0,0.0,0.0,0.0,0.0,0.0,1.7956,1.7498,1.7131,1.6244,1.5965,1.6308,1.6502,1.6797,1.7199,1.7293,1.744,1.7582,1.7582,1.7582,1.7582,1.7582,1.7582,1.7569,1.7427,1.7286,1.7206,1.73,1.7286,1.7233,1.7521,1.7582,1.7582,1.7582,1.7582,1.7582,0.0,0.0,0.0,0.0,0.0,0.0,0.0,0.1889,0.1846,0.1587,0.1982,0.2315,0.2457,0.2342,0.2839,0.4304,0.4715,0.0,0.0,0.0,0.0,0.0,0.0,0.0,0.0,-0.0069,-0.0165,0.0219,0.0449,0.0356,-0.0026,-0.1004,-0.1466,0.0,0.0,0.0,0.0,0.0,0.0,0.0,0.0,0.0,0.0,0.0,0.0,0.0,0.0,0.0,0.0,0.0,0.0,0.0,0.0,0.0,0.0,0.0,0.7212,0.0,0.0,0.4408,0.4843,0.5068,0.5625,0.6166,0.6312,0.6573,0.6605,0.6032,0.5117,0.4042,0.2832,0.2173,0.1641,0.1181,0.2458,0.0,0.0,0.0,0.0,0.0,0.0,0.0,0.0,0.0,0.0,0.0,1.9222,1.868,1.7738,1.6943,1.6381,1.6099,1.6213,1.6496,1.6864,1.6978,1.7125,1.7248,1.7248,1.7248,1.7248,1.7248,1.7248,1.7241,1.7061,1.6971,0.0,1.6985,1.7032,1.7065,1.7353,1.7482,1.7582,1.7582,1.7582,1.7582,0.0,0.0,0.0,0.0,0.0,0.0,0.0,0.1598,0.1727,0.1858,0.2328,0.2703,0.2823,0.275,0.3261,0.4666,0.0,0.0,0.0,0.0,0.0,0.0,0.0,0.0,0.0,-0.1303,-0.0984,-0.0908,-0.0305,0.0,0.0,-0.0613,-0.0898,-0.0932,0.0,0.0,0.0,0.0,0.0,0.0,0.0,0.0,0.0,0.0,0.0,0.0,0.0,0.0,0.0,0.0,0.0,0.0,0.0,0.0,0.0,0.0,0.0,0.0,0.0,0.0,0.0,0.0,0.5479,0.6261,0.6815,0.6839,0.0,0.6696,0.5557,0.4316,0.355,0.2227,0.1261,0.1217,0.0,0.0,0.0,0.0,0.0,0.0,0.0,0.0,0.0,0.0,0.0,0.0,2.0666,2.0305,1.8095,1.7777,1.7178,1.5967,1.6147,1.6301,1.6321,1.654,1.6687,1.6707,1.6707,1.6707,1.6707,1.6707,1.6707,0.0,1.6687,1.652,1.6342,1.6567,1.6673,1.6707,1.7072,1.7367,1.7555,1.7575,1.7582,1.7582,0.0,0.0,0.0,0.0,0.0,0.0,0.0,0.0,0.0,0.0,0.1517,0.2175,0.2205,0.2499,0.3229,0.0,0.0,0.0,0.0,0.0,0.0,0.0,0.0,0.0,0.0,-0.2105,-0.1824,-0.0908,-0.0293,0.0,0.0,-0.062,-0.091,-0.0919,-0.1541,-0.0949,0.0,0.0,0.0,0.0,0.0,0.0,0.0,0.0,0.0,0.0,0.0,0.0,0.0,0.0,0.0,0.0,0.0,0.0,0.0,0.0,0.7405,0.6678,0.6639,0.0,0.5714,0.6067,0.6746,0.7335,0.0,0.7904,0.8129,0.7563,0.0,0.0,0.4579,0.3534,0.0,0.0,0.0,0.0,0.0,0.0,0.0,0.0,0.0,0.0,0.0,0.0,0.0,0.0,2.1159,2.1069,2.0486,1.868,1.7552,1.7271,1.636,1.6046,1.6321,1.6339,1.6486,1.6707,1.6707,1.6707,1.6707,1.6707,1.6707,1.6693,1.6473,1.6382,1.6279,1.6346,1.6373,1.6426,1.6998,1.7246,1.7333,1.7502,1.7582,1.7582,0.0,0.0,0.0,0.0,0.0,0.0,0.0,0.0,0.0,0.0,0.0,0.0,0.0,0.0,0.0,0.0,0.0,0.0,0.0,0.0,0.0,0.0,0.0,-0.2109,-0.261,-0.2392,-0.1971,-0.1309,-0.008,0.0331,0.0,0.0,-0.016,-0.049,-0.0536,0.0301,0.0,0.0,0.0,0.0,0.0,0.0,0.0,0.0,0.0,0.0,0.3604,0.3645,0.0,0.4313,0.471,0.5129,0.0,0.0,0.0,0.0,0.7211,0.716,0.7484,0.6994,0.6532,0.7176,0.7626,0.8015,0.8314,0.0,0.0,0.0,0.0,0.0,0.0,0.0,0.0,0.0,0.0,0.0,0.0,0.0,0.0,0.0,0.0,0.0,0.0,0.0,0.0,0.0,2.1293,2.1293,2.1293,1.9542,1.8272,1.7738,1.648,1.5905,1.6072,1.6072,1.6146,1.6306,1.6306,1.6306,1.6306,1.6306,1.6306,1.6293,1.6139,1.6072,1.6072,1.6072,1.6152,1.6319,1.6824,1.7079,1.7239,1.7475,1.7582,1.7582,0.0,0.0,0.0,0.0,0.0,0.0,0.0,0.0,0.0,0.0,0.0,0.0,0.0,0.0,0.0,0.0,0.0,0.0,0.0,0.0,0.0,0.0,0.0,-0.1557,-0.3296,-0.2106,-0.1486,-0.1495,0.0238,0.0767,0.0169,0.0705,0.0661,0.0158,0.0884,0.1809,0.0,0.0,0.0,0.0,0.0,0.0,0.0,0.0,0.0,0.0,0.0,0.0,0.0,0.391,0.4465,0.5072,0.4886,0.0,0.0,0.0,0.0,0.0,0.7792,0.7308,0.6987,0.8021,0.8333,0.8497,0.9013,0.0,0.0,0.0,0.0,0.0,0.0,0.0,0.0,0.0,0.0,0.0,0.0,0.0,0.0,0.0,0.0,0.0,0.0,0.0,0.0,2.0845,2.1203,2.1382,2.1569,2.026,1.9039,1.801,1.6567,1.5784,1.5784,1.5784,1.5784,1.5784,1.5784,1.5784,1.5784,1.5784,1.5784,1.5784,0.0,0.0,1.5784,1.5784,1.5979,1.6239,1.6573,1.686,1.7172,1.7462,1.7582,1.7582,0.0,0.0,0.0,0.0,0.0,0.0,0.0,0.0,0.0,0.0,0.0,0.0,0.0,0.0,0.0,0.0,0.0,0.0,0.0,0.0,0.0,0.0,0.1069,-0.074,-0.2043,-0.0726,-0.005,-0.0105,0.0701,0.1044,0.0933,0.0409,0.039,0.0812,0.2034,0.2891,0.3413,0.0,0.0,0.0,0.0,0.0,0.0,0.0,0.0,0.0,0.0,0.0,0.0,0.3662,0.3897,0.4225,0.4428,0.0,0.0,0.0,0.0,0.0,0.737,0.7462,0.7589,0.8479,0.8889,0.9007,0.8878,0.0,0.0,0.0,0.0,0.0,0.0,0.0,0.0,0.0,0.0,0.0,0.0,0.0,0.0,0.0,0.0,0.0,0.0,0.0,0.0,1.967,2.0711,2.1756,2.2775,2.0719,1.9405,1.9222,1.7023,1.5784,1.5784,1.5784,1.5784,1.5784,1.5784,1.5784,1.5784,1.5784,1.5784,1.5784,0.0,1.5784,1.5784,1.5784,1.5804,1.5952,1.6493,1.6734,1.684,1.7382,1.7582,1.7582,0.0,0.0,0.0,0.0,0.0,0.0,0.0,0.0,0.0,0.0,0.0,0.0,0.0,0.0,0.0,0.0,0.0,0.0,0.0,0.0,0.0,0.4288,0.3218,0.1582,-0.0659,0.0299,0.0889,0.0951,0.1459,0.1539,0.1205,0.08,0.0864,0.1433,0.2442,0.3304,0.4033,0.4626,0.0,0.0,0.0,0.0,0.0,0.0,0.0,0.0,0.0,0.0,0.0,0.0,0.3839,0.4006,0.4056,0.0,0.0,0.0,0.0,0.0,0.6514,0.6799,0.7039,0.7635,0.8023,0.8433,0.8941,0.0,0.0,0.0,0.0,0.0,0.0,0.0,0.0,0.0,0.0,0.0,0.0,0.0,0.0,0.0,0.0,0.0,0.0,0.0,0.0,1.8357,1.9039,1.9906,2.1087,1.9497,1.8549,1.8549,1.6756,1.5784,1.5784,1.5784,1.5784,1.5784,1.5784,1.5784,1.5784,1.5784,1.5784,1.5784,0.0,1.5784,1.5784,1.5784,1.5784,1.5872,1.6299,1.6567,1.6774,1.7368,1.7582,1.7582,0.0,0.0,0.0,0.0,0.0,0.0,0.0,0.0,0.0,0.0,0.0,0.0,0.0,0.0,0.0,0.0,0.0,0.0,0.0,0.0,0.4512,0.4771,0.5135,0.3954,0.0987,0.183,0.2118,0.1742,0.2084,0.1936,0.1261,0.1311,0.1614,0.2086,0.2838,0.3697,0.4652,0.5108,0.5394,0.0,0.0,0.0,0.0,0.0,0.0,0.0,0.0,0.0,0.0,0.0,0.0,0.0,0.0,0.0,0.0,0.4379,0.4714,0.5256,0.576,0.5996,0.6201,0.6598,0.0,0.7655,0.8665,0.8643,0.0,0.0,0.0,0.0,0.0,0.0,0.0,0.0,0.0,0.0,0.0,0.0,0.0,0.0,0.0,0.0,0.0,0.0,0.0,1.7544,1.7692,1.8234,1.9451,1.8365,1.7692,1.7692,1.648,1.5784,1.5784,1.5784,1.5784,1.5784,1.5784,1.5784,1.5784,1.5784,1.5784,1.5784,1.5784,1.5784,1.5784,1.5784,1.5784,1.5811,1.6159,1.6493,1.686,1.7367,1.7522,1.7582,0.0,0.0,0.0,0.0,0.0,0.0,0.0,0.0,0.0,0.0,0.0,0.0,0.0,0.0,0.0,0.0,0.0,0.0,0.0,0.0,0.4414,0.4443,0.5875,0.553,0.312,0.4465,0.4185,0.2159,0.236,0.2019,0.1138,0.1816,0.2364,0.2863,0.3593,0.4412,0.5238,0.5281,0.5631,0.0,0.0,0.0,0.0,0.0,0.0,0.0,0.0,0.0,0.0,0.0,0.0,0.0,0.0,0.0,0.4065,0.4041,0.4363,0.4852,0.5402,0.5362,0.533,0.5921,0.6587,0.0,0.7555,0.7504,0.0,0.9349,0.0,0.0,0.0,0.0,0.0,0.0,0.0,0.0,0.0,0.0,0.0,0.0,0.0,0.0,0.0,0.0,0.0,1.7598,1.7692,1.8234,1.9451,1.8365,1.7692,1.7692,1.648,1.5784,1.5784,1.5784,1.5784,1.5784,1.5784,1.5784,1.5784,1.5784,1.5784,1.5784,1.5784,1.5784,1.5784,1.5784,1.5784,1.5811,1.6159,1.667,1.7172,1.7213,1.7407,1.7582,0.0,0.0,0.0,0.0,0.0,0.0,0.0,0.0,0.0,0.0,0.0,0.0,0.0,0.0,0.0,0.0,0.0,0.0,0.0,0.0,0.3906,0.5144,0.6345,0.6506,0.5503,0.5483,0.5155,0.4432,0.3605,0.2461,0.1136,0.2327,0.2923,0.3069,0.4276,0.515,0.5759,0.6006,0.6458,0.6931,0.0,0.0,0.0,0.0,0.0,0.0,0.0,0.0,0.0,0.0,0.3782,0.391,0.3785,0.3913,0.4099,0.3934,0.4002,0.4215,0.4488,0.4651,0.4805,0.5116,0.5615,0.0,0.0,0.7419,0.8007,1.0098,1.0444,0.0,0.0,0.0,0.0,0.0,0.0,0.0,0.0,0.0,0.0,0.0,0.0,0.0,0.0,0.0,0.0,1.6433,1.6527,1.6709,1.7156,1.6749,1.6527,1.6527,1.6062,1.5784,1.5784,1.5784,1.5784,1.5784,1.5784,1.5784,1.5784,1.5784,1.5784,1.5784,1.5784,1.5784,1.5784,1.5784,1.5784,1.5811,1.6159,1.652,1.6894,1.7132,1.7387,1.7582,0.0,0.0,0.0,0.0,0.0,0.0,0.0,0.0,0.0,0.0,0.0,0.0,0.0,0.0,0.0,0.0,0.0,0.0,0.1337,0.2528,0.3934,0.5624,0.6683,0.7248,0.7276,0.6493,0.5787,0.522,0.3835,0.2694,0.1818,0.3067,0.3688,0.3839,0.509,0.5905,0.6347,0.6533,0.6945,0.7419,0.6545,0.0,0.0,0.0,0.0,0.0,0.0,0.0,0.0,0.0,0.3751,0.387,0.3809,0.3944,0.4119,0.3957,0.3934,0.3948,0.3981,0.4202,0.4443,0.0,0.0,0.0,0.6733,0.7052,0.7723,0.9892,1.0778,0.0,0.0,0.0,0.0,0.0,0.0,0.0,0.0,0.0,0.0,0.0,0.0,0.0,0.0,0.0,0.0,1.573,1.5784,1.5784,1.5784,1.5784,1.5784,1.5784,1.5784,1.5784,1.5784,1.5784,1.5784,1.5784,1.5784,1.5784,1.5784,1.5784,1.5784,1.5784,1.5784,1.5784,1.5784,1.5784,1.5784,1.5798,1.6052,1.6313,1.6607,1.6951,1.7246,1.7514,0.0,0.0,0.0,0.0,0.0,0.0,0.0,0.0,0.0,0.0,0.0,0.0,0.0,0.0,0.0,0.0,0.0,0.0,0.2124,0.3465,0.4664,0.5659,0.6868,0.7752,0.829,0.765,0.6238,0.4021,0.2817,0.2605,0.3333,0.4082,0.4731,0.5358,0.6077,0.6665,0.708,0.6747,0.6951,0.7419,0.6566,0.6206,0.0,0.0,0.0,0.0,0.0,0.0,0.0,0.0,0.372,0.3682,0.4078,0.0,0.4028,0.4176,0.4194,0.4164,0.4038,0.4109,0.0,0.0,0.0,0.0,0.6091,0.63,0.6785,0.8527,0.0,1.1572,0.0,0.0,0.0,0.0,0.0,0.0,0.0,0.0,0.0,0.0,0.0,0.0,0.0,0.0,0.0,1.5784,1.5784,1.5784,1.5784,1.5784,1.5784,1.5784,1.5784,1.5784,1.5784,1.5784,1.5784,1.5784,1.5784,1.5784,1.5784,1.5784,1.5784,1.5784,1.5784,1.5784,1.5784,1.5784,1.5784,1.5784,1.5784,1.6012,1.6306,1.6593,1.6894,1.7239,0.0,0.0,0.0,0.0,0.0,0.0,0.0,0.0,0.0,0.0,0.0,0.0,0.0,0.0,0.0,0.0,0.0,0.0,0.3036,0.4067,0.4938,0.5659,0.7212,0.818,0.8437,0.8338,0.7231,0.5043,0.5038,0.4958,0.4868,0.5411,0.5857,0.6248,0.6993,0.7278,0.7256,0.7433,0.7625,0.7746,0.7298,0.7114,0.0,0.0,0.0,0.0,0.0,0.0,0.0,0.0,0.0,0.0,0.4836,0.0,0.4199,0.4466,0.4379,0.4164,0.4038,0.0,0.0,0.0,0.0,0.0,0.0,0.5848,0.0,0.0,0.0,0.0,0.0,0.0,0.0,0.0,0.0,0.0,0.0,0.0,0.0,0.0,0.0,0.0,0.0,0.0,0.0,1.5784,1.5784,1.5784,1.5784,1.5784,1.5784,1.5784,1.5784,1.5784,1.5784,1.5784,1.5784,1.5784,1.5784,1.5784,1.5784,1.5784,1.5784,1.5784,1.5784,1.5784,1.5784,1.5784,1.5784,1.5784,1.5784,1.6012,1.6335,1.6373,1.677,1.7213,0.0,0.0,0.0,0.0,0.0,0.0,0.0,0.0,0.0,0.0,0.0,0.0,0.0,0.0,0.0,0.0,0.0,0.0,0.0,0.4743,0.5324,0.5866,0.7099,0.7983,0.8415,0.9108,0.8687,0.709,0.6606,0.6156,0.5801,0.6375,0.6785,0.7074,0.7803,0.7981,0.7734,0.7856,0.7905,0.7879,0.7611,0.7513,0.7462,0.0,0.0,0.0,0.0,0.0,0.0,0.0,0.0,0.0,0.5031,0.0,0.4414,0.4421,0.4328,0.419,0.4206,0.0,0.0,0.0,0.0,0.0,0.0,0.0,0.0,0.0,0.0,0.0,0.0,0.0,0.0,0.0,0.0,0.0,0.0,0.0,0.0,0.0,0.0,0.0,0.0,0.0,0.0,1.5784,1.5784,1.5784,1.5784,1.5784,1.5784,1.5784,1.5784,1.5784,1.5784,1.5784,1.5784,1.5784,1.5784,1.5784,1.5784,1.5784,1.5784,1.5784,1.5784,1.5784,1.5784,1.5784,1.5784,1.5784,1.5784,1.5939,1.6112,1.6226,1.6543,1.6884,0.0,0.0,0.0,0.0,0.0,0.0,0.0,0.0,0.0,0.0,0.0,0.0,0.0,0.0,0.0,0.0,0.0,0.0,0.0,0.0,0.5794,0.6189,0.6821,0.7595,0.8482,0.9874,1.0252,0.9554,0.7668,0.6653,0.6493,0.7078,0.751,0.783,0.8481,0.8604,0.8342,0.7992,0.7866,0.7839,0.7605,0.7513,0.7513,0.7513,0.0,0.0,0.0,0.0,0.0,0.0,0.0,0.0,0.5002,0.4821,0.4635,0.4233,0.4155,0.425,0.4433,0.0,0.0,0.0,0.0,0.0,0.0,0.0,0.0,0.0,0.0,0.0,0.0,0.0,0.0,0.0,0.0,0.0,0.0,0.0,0.0,0.0,0.0,0.0,0.0,0.0,0.0,1.5635,1.573,1.5784,1.5784,1.5784,1.5784,1.5784,1.5784,1.5784,1.5784,1.5784,1.5784,1.5784,1.5784,1.5784,1.5784,1.5784,1.5784,1.5784,1.5784,1.5784,1.5784,1.5784,1.5784,1.5784,1.5784,1.5784,1.5865,1.6132,1.6253,1.6402,0.0,0.0,0.0,0.0,0.0,0.0,0.0,0.0,0.0,0.0,0.0,0.0,0.0,0.0,0.0,0.0,0.0,0.0,0.0,0.0,0.6414,0.6208,0.7666,0.8988,1.0081,1.0436,1.0387,0.9968,0.8608,0.8143,0.8547,0.8019,0.8047,0.8553,0.8519,0.8303,0.7979,0.7695,0.7591,0.7584,0.7517,0.7513,0.7513,0.7513,0.7216,0.0,0.0,0.0,0.0,0.0,0.0,0.0,0.6404,0.5674,0.4747,0.4947,0.4638,0.4204,0.0,0.4651,0.0,0.0,0.0,0.0,0.0,0.0,0.0,0.0,0.0,0.0,0.0,0.0,0.0,0.0,0.0,0.0,0.0,0.0,0.0,0.0,0.0,0.0,0.0,0.0,0.0,1.4364,1.5242,1.5784,1.5784,1.5784,1.5784,1.5784,1.5784,1.5784,1.5784,1.5784,1.5784,1.5784,1.5784,1.5784,1.5784,1.5784,1.5784,1.5784,1.5784,1.5784,1.5784,1.5784,1.5784,1.5784,1.5784,1.5784,1.5791,1.5899,1.6072,1.6375,0.0,0.0,0.0,0.0,0.0,0.0,0.0,0.0,0.0,0.0,0.0,0.0,0.0,0.0,0.0,0.0,0.0,0.0,0.0,0.0,0.6733,0.6599,0.7939,0.8886,0.931,0.9752,1.0026,1.0098,0.8771,0.8394,0.8952,0.8404,0.8383,0.8791,0.8529,0.821,0.7885,0.7618,0.764,0.7863,0.7602,0.7818,0.8217,0.7723,0.7405,0.7186,0.7125,0.0,0.0,0.0,0.0,0.0,0.0,0.0,0.5368,0.509,0.4777,0.4503,0.0,0.0,0.0,0.0,0.0,0.0,0.0,0.0,0.0,0.0,0.0,0.0,0.0,0.0,0.0,0.0,0.0,0.0,0.0,0.0,0.0,0.0,0.0,0.0,0.0,0.0,0.0,1.3974,1.4513,1.5146,1.5784,1.5784,1.5784,1.5784,1.5784,1.5784,1.5784,1.5784,1.5784,1.5784,1.5784,1.5784,1.5784,1.5784,1.5784,1.5784,1.5784,1.5784,1.5784,1.5784,1.5784,1.5784,1.5784,1.5784,1.5784,1.5784,1.5925,1.6126,0.0,0.0,0.0,0.0,0.0,0.0,0.0,0.0,0.0,0.0,0.0,0.0,0.0,0.0,0.0,0.0,0.0,0.0,0.0,0.6912,0.6896,0.7106,0.7896,0.8252,0.8063,0.8776,0.9397,0.995,0.8622,0.8311,0.8995,0.8539,0.8484,0.8791,0.865,0.8375,0.8021,0.7883,0.8026,0.8332,0.7895,0.82,0.882,0.7981,0.7564,0.738,0.7265,0.7001,0.6739,0.6963,0.0,0.0,0.0,0.0,0.6026,0.5192,0.4925,0.4832,0.0,0.0,0.0,0.0,0.0,0.0,0.0,0.0,0.0,0.0,0.0,0.0,0.0,0.0,0.0,0.0,0.0,0.0,0.0,0.0,0.0,0.0,0.0,0.0,0.0,0.0,0.0,1.3878,1.3926,1.4459,1.573,1.5784,1.5784,1.5784,1.5784,1.5784,1.5784,1.5784,1.5784,1.5784,1.5784,1.5784,1.5784,1.5784,1.5784,1.5784,1.5784,1.5784,1.5784,1.5784,1.5784,1.5784,1.5784,1.5784,1.5784,1.5784,1.5784,1.5912,0.0,0.0,0.0,0.0,0.0,0.0,0.0,0.0,0.0,0.0,0.0,0.8568,0.8764,0.8495,0.0,0.0,0.0,0.0,0.7133,0.0,0.0,0.7502,0.7592,0.7991,0.8746,0.8543,0.8757,0.9397,0.8631,0.8912,1.0139,0.8647,0.8258,0.8817,0.9116,0.9004,0.861,0.892,0.8903,0.8647,0.8565,0.8379,0.8135,0.799,0.772,0.7398,0.738,0.7273,0.7129,0.7165,0.7085,0.0,0.0,0.0,0.0,0.6047,0.5403,0.4735,0.0,0.0,0.0,0.0,0.0,0.0,0.0,0.0,0.0,0.0,0.0,0.0,0.0,0.0,0.0,0.0,0.0,0.0,0.0,0.0,0.0,0.0,0.0,0.0,0.0,0.0,0.0,1.383,1.3926,1.4459,1.573,1.5784,1.5784,1.5784,1.5784,1.5784,1.5784,1.5784,1.5784,1.5784,1.5784,1.5784,1.5784,1.5784,1.5784,1.5784,1.5784,1.5784,1.5784,1.5784,1.5784,1.5784,1.5784,1.5784,1.5784,1.5784,1.5784,1.5912,0.0,0.0,0.0,0.0,0.0,0.0,0.0,0.0,0.0,0.0,0.0,0.8019,0.8166,0.8052,0.0,0.0,0.0,0.0,0.7344,0.7231,0.0,0.0,0.7802,0.7966,0.8383,0.8008,0.8188,0.8969,0.7726,0.8128,1.0059,0.9317,0.9567,1.0651,1.0413,0.0,0.0,0.0,0.9368,0.9435,0.8921,0.9234,0.9887,0.8593,0.8483,0.8928,0.8126,0.7807,0.7752,0.7639,0.7559,0.7447,0.0,0.0,0.0,0.0,0.0,0.0,0.0,0.0,0.0,0.0,0.0,0.0,0.0,0.0,0.0,0.0,0.0,0.0,0.0,0.0,0.0,0.0,0.0,0.0,0.0,0.0,0.0,0.0,0.0,0.0,0.0,0.0,0.0,1.2705,1.3494,1.4459,1.573,1.5784,1.5784,1.5784,1.5784,1.5784,1.5784,1.5784,1.5784,1.5784,1.5784,1.5784,1.5784,1.5784,1.5784,1.5784,1.5784,1.5784,1.5784,1.5784,1.5784,1.5784,1.5784,1.5784,1.5784,1.5784,1.5784,1.5912,0.0,0.0,0.0,0.0,0.0,0.0,0.0,0.0,0.0,0.0,0.0,0.0,0.787,0.0,0.0,0.0,0.0,0.0,0.7555,0.0,0.0,0.0,0.0,0.7997,0.7997,0.7598,0.7664,0.8217,0.6999,0.7546,0.9763,0.9907,1.0811,0.0,1.1899,1.1516,0.0,0.0,0.0,0.0,0.9727,1.0242,1.1279,0.9983,0.9969,1.0493,0.9403,0.8875,0.0,0.0,0.0,0.0,0.0,0.0,0.0,0.0,0.0,0.0,0.0,0.0,0.0,0.0,0.0,0.0,0.0,0.0,0.0,0.0,0.0,0.0,0.0,0.0,0.0,0.0,0.0,0.0,0.0,0.0,0.0,0.0,0.0,0.0,0.0,0.0,0.0,1.2277,1.2966,1.4052,1.5724,1.5784,1.5784,1.5784,1.5784,1.5784,1.5784,1.5784,1.5784,1.5784,1.5784,1.5784,1.5784,1.5784,1.5784,1.5784,1.5784,1.5784,1.5784,1.5784,1.5784,1.5784,1.5784,1.5784,1.5784,1.5784,1.5784,1.5912,0.0,0.0,0.0,0.0,0.0,0.0,0.0,0.0,0.0,0.0,0.0,0.0,0.0,0.0,0.0,0.0,0.0,0.0,0.0,0.0,0.0,0.0,0.0,0.0,0.7997,0.7598,0.7236,0.6895,0.6934,0.7871,0.9611,1.0207,1.1343,1.2965,1.3429,1.295,1.1762,0.0,0.0,0.0,0.0,1.1248,1.1088,1.2495,1.2404,1.1514,1.1309,0.0,0.0,0.0,0.0,0.0,0.0,0.0,0.0,0.0,0.0,0.0,0.0,0.0,0.0,0.0,0.0,0.0,0.0,0.0,0.0,0.0,0.0,0.0,0.0,0.0,0.0,0.0,0.0,0.0,0.0,0.0,0.0,0.0,0.0,0.0,0.0,0.0,0.0,1.3415,1.2482,1.3,1.5669,1.5784,1.5784,1.5784,1.5784,1.5784,1.5784,1.5784,1.5784,1.5784,1.5784,1.5784,1.5784,1.5784,1.5784,1.5784,1.5784,1.5784,1.5784,1.5784,1.5784,1.5784,1.5784,1.5784,1.5784,1.5784,1.5784,1.5912,0.0,0.0,0.0,0.0,0.0,0.0,0.0,0.0,0.0,0.0,0.0,0.0,0.0,1.0102,0.9783,0.8998,0.861,0.0,0.0,0.0,0.0,0.0,0.0,0.0,0.0,0.813,0.7537,0.7309,0.6534,0.6888,0.8277,0.9488,1.0363,1.0993,1.2545,1.295,1.2483,1.2291,0.0,0.0,0.0,0.0,0.0,1.3123,1.3268,1.3195,0.0,0.0,0.0,0.0,0.0,0.0,0.8133,0.7495,0.6999,0.6389,0.0,0.0,0.0,0.0,0.0,0.0,0.0,0.0,0.0,0.0,0.0,0.0,0.0,0.0,0.0,0.0,0.0,0.0,0.0,0.0,0.0,0.0,0.0,0.0,0.0,0.0,0.0,0.0,0.0,1.3141,1.2979,1.3198,1.4196,1.4463,1.4561,1.4561,1.5384,1.5784,1.5784,1.5784,1.5784,1.5784,1.5784,1.5784,1.5784,1.5784,1.5784,1.5784,1.5784,1.5784,1.5784,1.5784,1.5784,1.5784,1.5784,1.5784,1.5784,1.5784,1.5784,1.5838,0.0,0.0,0.0,0.0,0.0,0.0,0.0,0.0,0.0,1.2111,0.0,0.0,0.0,0.0,1.1247,1.0199,0.9753,0.9494,0.9379,0.0,0.0,0.0,0.0,0.0,0.0,0.8766,0.8034,0.7663,0.6871,0.6838,0.7554,0.878,0.9395,0.9524,1.1052,1.2104,0.0,0.0,0.0,1.2461,0.0,0.0,1.3598,0.0,1.498,1.4972,0.0,0.0,0.0,0.0,0.0,0.0,0.0,0.7957,0.6723,0.6186,0.0,0.0,0.0,0.0,0.0,0.0,0.0,0.0,0.0,0.0,0.0,0.0,0.0,0.0,0.0,0.0,0.0,0.0,0.0,0.0,0.0,0.0,0.0,0.0,0.0,0.0,0.0,0.0,0.0,1.2911,1.3087,0.0,1.3921,1.4145,1.4333,1.442,1.5201,1.5732,1.5784,1.5784,1.5784,1.5784,1.5784,1.5784,1.5784,1.5784,1.5784,1.5784,1.5784,1.5784,1.5784,1.5784,1.5784,1.5784,1.5784,1.5784,1.5784,1.5784,1.5784,1.5872,0.0,0.0,0.0,0.0,0.0,0.0,0.0,0.0,1.4621,1.4301,0.0,0.0,0.0,0.0,0.0,1.1312,1.1131,1.0935,1.0562,1.0873,0.0,0.0,0.0,0.0,0.0,0.9492,0.8611,0.7819,0.7947,0.7862,0.762,0.8228,0.862,0.8803,0.9213,1.0498,1.2399,0.0,1.2227,1.2974,0.0,1.3525,1.3941,0.0,0.0,0.0,1.8541,1.8322,0.0,1.5648,0.0,0.0,0.0,0.7969,0.5769,0.5762,0.0,0.0,0.0,0.0,0.0,0.0,0.0,0.0,0.0,0.0,0.0,0.0,0.0,0.0,0.0,0.0,0.0,0.0,0.0,0.0,0.0,0.0,0.0,0.0,0.0,0.0,0.0,0.0,0.0,1.2818,1.2797,1.3415,1.484,1.4957,1.509,1.5378,1.5391,1.5531,1.5764,1.5778,1.5784,1.5784,1.5784,1.5784,1.5784,1.5784,1.5784,1.5784,1.5784,1.5784,1.5784,1.5784,1.5784,1.5784,1.5784,1.5784,1.5784,1.5784,1.5784,1.5872,0.0,0.0,0.0,0.0,0.0,1.6461,1.6332,1.5765,1.5486,0.0,0.0,0.0,1.5322,1.4828,1.4428,1.4152,1.3462,1.2666,1.1787,1.218,1.2178,1.1561,1.1453,1.1227,1.0848,0.9618,0.8748,0.8229,0.8166,0.7954,0.7618,0.8509,0.8761,0.845,0.8752,0.9471,1.0494,1.0905,0.0,1.3724,1.3252,1.4001,0.0,0.0,0.0,0.0,0.0,1.9149,1.732,0.0,1.5835,1.3761,0.0,0.0,0.0,0.7149,0.0,0.0,0.6704,0.0,0.0,0.0,0.0,0.0,0.0,0.0,0.0,0.0,0.0,0.0,0.0,0.0,0.0,0.0,0.0,0.0,0.0,0.0,0.0,0.0,0.0,0.0,0.0,0.0,1.3636,0.0,1.3063,1.2845,1.3238,1.347,1.4024,1.5077,1.5291,1.5438,1.5518,1.5678,1.5784,1.5784,1.5784,1.5784,1.5784,1.5784,1.5784,1.5784,1.5784,1.5784,1.5784,1.5784,1.5784,1.5784,1.5784,1.5784,1.5784,1.5784,1.5784,1.5791,0.0,0.0,0.0,0.0,0.0,1.8853,1.8853,1.8253,1.7954,0.0,0.0,0.0,1.7828,1.7283,1.6774,1.6337,1.5202,1.4244,1.3624,1.3445,1.3149,1.2639,1.2089,1.1664,1.1338,1.0161,0.9338,0.8906,0.8821,0.8545,0.8107,0.8697,0.8799,0.8475,0.8626,0.9135,0.9877,1.015,0.0,0.0,1.3584,0.0,0.0,1.7762,1.8448,0.0,0.0,0.0,1.8896,1.8993,1.6999,0.0,0.0,0.0,0.0,0.0,0.0,0.0,0.0,0.0,0.0,0.0,0.0,0.0,0.0,0.0,0.0,0.0,0.0,0.0,0.0,0.0,0.0,0.0,0.0,0.0,0.0,0.0,0.0,0.0,0.0,0.0,0.0,1.4088,1.4088,1.4088,1.3544,1.3231,1.3231,1.338,1.3875,1.477,1.4943,1.515,1.5391,1.5565,1.5712,1.5784,1.5784,1.5784,1.5784,1.5784,1.5784,1.5784,1.5784,1.5784,1.5784,1.5784,1.5784,1.5784,1.5784,1.5784,1.5784,1.5784,1.5784,1.5784,0.0,0.0,2.1104,2.1204,2.1659,2.1999,2.1999,2.1407,2.0975,0.0,2.0769,2.0609,2.0572,2.0014,1.9232,1.8173,1.6755,1.5822,1.558,1.4639,1.4017,1.3901,1.2596,1.1847,1.1792,1.0859,1.0125,0.9592,0.9659,0.9411,0.8883,0.8947,0.8905,0.8777,0.8777,0.924,1.0025,0.9763,0.0,1.2408,1.3965,1.5,0.0,0.0,1.9253,1.9484,2.1268,2.1484,2.0863,2.0336,1.8003,0.0,0.0,0.0,0.0,0.0,1.0274,0.0,0.0,0.0,0.0,0.0,0.0,0.0,0.6984,0.6774,0.0,0.0,0.0,0.0,0.0,0.0,0.0,0.0,0.0,0.0,0.0,0.0,0.0,0.0,0.0,0.0,1.3944,1.4041,1.4048,1.4082,1.4088,1.4088,1.4088,1.4088,1.4208,1.4462,1.4502,1.479,1.5344,1.5384,1.5538,1.5784,1.5784,1.5784,1.5784,1.5784,1.5784,1.5784,1.5784,1.5784,1.5784,1.5784,1.5784,1.5784,1.5784,1.5784,1.5784,1.5784,1.5784,1.5784,0.0,2.0695,2.1105,2.1916,2.2041,2.1999,2.1999,2.1736,2.1489,2.132,2.1348,2.2084,2.3911,2.236,2.0982,2.048,1.9324,1.7885,1.6096,1.5471,1.4798,1.3931,1.2906,1.2192,1.1811,1.1188,1.0445,0.9592,0.998,0.9914,0.9456,0.9839,0.9759,0.9339,0.9339,0.9444,0.9652,0.0,0.0,1.2783,1.314,0.0,1.7128,1.8297,1.9402,2.0467,2.1509,2.137,2.0435,1.8951,1.7777,1.6725,0.0,0.0,0.0,0.0,0.0,1.1447,0.0,0.0,0.0,0.0,0.0,0.0,0.0,0.7555,0.0,0.0,0.0,0.0,0.0,0.0,0.0,0.0,0.0,0.0,0.0,0.0,0.0,0.0,0.0,0.0,1.3584,1.3686,1.3828,1.4068,1.4088,1.4088,1.4088,1.4088,1.4115,1.4168,1.4396,1.4689,1.5089,1.5284,1.5538,1.5784,1.5784,1.5784,1.5784,1.5784,1.5784,1.5784,1.5784,1.5784,1.5784,1.5784,1.5784,1.5784,1.5784,1.5784,1.5784,1.5784,1.5784,1.5784,0.0,2.1632,2.2419,2.2834,2.3168,2.3393,2.3393,2.3081,2.3015,2.3486,2.4068,2.4601,2.5016,2.3818,2.2624,2.1682,2.024,1.8696,1.701,1.6211,1.5333,1.4241,1.3298,1.2496,1.1811,1.1263,1.0641,0.9961,1.0176,1.0185,0.9961,1.0186,1.0253,1.0204,1.0204,1.0337,1.0584,0.0,1.1707,1.2646,1.3711,0.0,1.7778,1.8612,1.9939,2.1272,2.1246,2.0818,2.0034,1.8498,1.7734,0.0,0.0,1.509,1.4563,0.0,1.3643,1.3378,0.0,0.0,0.0,1.1559,0.0,0.0,0.0,0.0,0.0,0.0,0.0,0.0,0.0,0.0,0.0,0.0,0.0,0.0,0.0,0.0,0.0,0.0,0.0,0.0,1.3022,1.334,1.3513,1.3841,1.3868,1.3928,1.4082,1.4088,1.4088,1.4088,1.4229,1.4449,1.4736,1.5037,1.5331,1.5618,1.5758,1.5784,1.5784,1.5784,1.5784,1.5784,1.5784,1.5784,1.5784,1.5784,1.5784,1.5784,1.5784,1.5784,1.5784,1.5784,1.5784,1.5784,0.0,2.2318,2.3398,2.3427,2.4099,2.4648,2.4648,2.4332,2.4553,2.5817,2.6592,2.6694,2.5794,2.5225,2.438,2.3037,2.1241,1.9665,1.854,1.7253,1.6009,1.489,1.3842,1.2911,1.2123,1.1474,1.0924,1.0428,1.0341,1.0303,1.0303,1.0303,1.0508,1.0908,0.0,0.0,0.0,0.0,0.0,1.2973,0.0,1.6279,1.7543,1.8859,2.0297,2.1559,2.1064,2.0629,2.0096,1.8625,1.791,1.7393,1.6084,1.5908,0.0,0.0,0.0,0.0,0.0,0.0,0.0,0.0,0.0,1.0906,0.0,0.0,0.0,0.9078,0.0,0.0,0.0,0.0,0.0,0.0,0.0,0.0,0.0,0.0,0.0,0.0,0.0,0.0,1.1942,1.2499,1.2975,1.3493,1.3413,1.3527,1.3981,1.4001,1.4028,1.4088,1.4088,1.4229,1.4516,1.4816,1.511,1.5398,1.5691,1.5683,1.5439,1.5683,1.5683,1.5439,1.5683,1.5784,1.5784,1.5784,1.5784,1.5784,1.5784,1.5784,1.5784,1.5784,1.5784,1.5784,2.1321,2.1632,2.2177,2.2996,2.367,2.4082,2.4082,2.4291,2.5041,2.6718,2.6428,2.6601,0.0,0.0,0.0,0.0,0.0,0.0,2.133,0.0,1.7469,1.6145,1.4737,1.3717,1.313,1.2203,1.1449,1.0924,1.0495,1.0303,1.0303,1.0303,1.0508,1.0908,1.0908,0.0,0.0,0.0,1.3246,0.0,1.5762,1.5684,0.0,1.837,1.9815,2.0449,2.1486,2.1817,2.1408,0.0,1.85,1.8237,0.0,1.659,1.6609,0.0,0.0,0.0,0.0,0.0,0.0,0.0,1.3933,0.0,0.0,0.0,1.0134,0.9079,0.0,0.0,0.0,0.0,0.0,0.0,0.0,0.0,0.0,0.0,0.0,0.0,0.0,0.0,0.9535,1.0539,1.1669,1.3141,1.2759,1.2819,1.3606,1.3653,1.3773,1.4082,1.4088,1.4229,1.4516,1.4816,1.511,1.5398,1.5691,1.5194,1.4166,1.5296,1.5194,1.4166,1.5289,1.5784,1.5784,1.5784,1.5784,1.5784,1.5784,1.5784,1.5784,1.5784,1.5784,1.5784,2.1032,2.1763,0.0,2.2517,2.3188,2.3785,2.3978,2.5812,2.7168,2.7169,2.8214,2.8945,0.0,0.0,0.0,0.0,0.0,2.3514,0.0,0.0,0.0,1.6401,1.5708,1.4712,1.3331,1.2899,1.2129,1.1,1.0791,1.0582,0.0,0.0,1.0665,1.132,1.1562,1.2272,1.3305,0.0,1.3821,0.0,0.0,0.0,0.0,1.8697,2.0324,2.136,2.2449,2.2515,2.163,0.0,1.8598,0.0,0.0,0.0,0.0,0.0,0.0,0.0,0.0,0.0,0.0,0.0,0.0,0.0,1.1647,0.0,0.996,0.0,0.0,0.0,0.0,0.0,0.0,0.0,0.0,0.0,0.0,0.0,0.0,0.0,0.0,0.0,0.9461,0.9572,1.0128,1.1596,1.1525,1.179,1.2552,1.3256,1.374,1.4075,1.4088,1.4229,1.4516,1.4816,1.511,1.5398,1.4911,1.4411,1.3872,1.3644,1.3258,1.2818,1.4124,1.4704,1.4752,1.5486,1.5784,1.5784,1.5784,1.5784,1.5784,1.5784,1.5784,1.5784,2.0953,0.0,0.0,0.0,2.2511,2.3408,2.428,2.643,2.7886,2.7577,2.9251,0.0,2.9489,2.8884,0.0,0.0,2.6994,2.5371,0.0,0.0,2.0264,1.7868,1.6857,0.0,0.0,1.3826,1.29,1.1635,1.1502,0.0,0.0,0.0,1.1073,1.178,1.2207,1.309,1.4289,0.0,1.4728,1.5264,1.6287,1.7153,1.8071,2.0027,2.1627,2.2925,2.3672,2.3257,2.2099,1.9936,1.9188,0.0,1.838,0.0,0.0,0.0,0.0,0.0,1.7543,0.0,0.0,0.0,0.0,0.0,0.0,0.0,0.0,0.0,0.0,0.0,0.0,0.0,0.0,0.0,0.0,0.0,0.0,0.0,0.0,0.0,0.0,0.0,0.0,0.832,0.8503,0.9949,0.9997,1.0348,1.1188,1.2384,1.3194,1.3523,1.3915,1.4229,1.4516,1.4816,1.511,1.5398,1.4384,1.3734,1.3343,1.2334,1.1702,1.1458,1.3151,1.3926,1.4022,1.5289,1.5784,1.5784,1.5784,1.5784,1.5784,1.5784,1.5784,1.5784,2.1361,2.1426,0.0,0.0,0.0,2.2891,2.5112,2.5261,2.5932,2.8172,0.0,0.0,0.0,0.0,0.0,0.0,0.0,2.8858,2.7465,0.0,2.2452,2.1554,1.8293,1.6732,0.0,0.0,0.0,1.3238,0.0,0.0,0.0,0.0,0.0,1.2203,1.2666,1.359,1.4785,1.5195,1.6348,1.7988,1.9393,2.0698,2.1914,0.0,2.3795,2.4898,2.4933,0.0,0.0,2.1325,2.0734,2.0484,0.0,0.0,0.0,0.0,0.0,0.0,0.0,0.0,0.0,1.5859,0.0,0.0,0.0,0.0,1.1683,0.0,0.0,0.0,0.0,0.0,0.0,0.0,0.0,0.0,0.0,0.0,0.0,0.0,0.0,0.0,0.0,0.6362,0.6804,0.0,0.8136,0.8309,0.9509,1.0835,1.1769,1.2164,1.3419,1.4229,1.4516,1.4816,1.511,1.5398,1.4384,1.3199,1.1945,1.1896,1.1219,1.019,1.2764,1.3926,1.4022,1.5289,1.5784,1.5784,1.5784,1.5784,1.5784,1.5784,1.5784,1.5784,0.0,0.0,0.0,0.0,0.0,2.2991,2.5219,2.6286,2.7655,0.0,3.076,0.0,0.0,3.2345,3.2267,0.0,0.0,3.0597,2.8397,2.6385,0.0,0.0,0.0,1.8986,0.0,0.0,0.0,0.0,0.0,0.0,0.0,0.0,0.0,0.0,1.3354,1.4369,0.0,0.0,0.0,0.0,0.0,2.2445,2.3091,0.0,2.4214,2.4,2.4,2.4228,2.4207,2.2261,2.185,2.2043,2.112,2.072,2.0751,2.1612,2.1272,2.0516,0.0,0.0,1.9685,1.7293,0.0,0.0,0.0,0.0,0.0,0.0,0.0,0.0,0.0,0.0,0.0,0.0,0.0,0.0,0.0,0.0,0.0,0.0,0.0,0.0,0.0,0.0,0.0,0.0,0.7079,0.0,0.8314,0.9609,1.0505,1.097,1.2247,1.3163,1.3625,1.4545,1.5204,1.5638,1.4464,1.368,1.3151,1.1409,1.0877,1.1317,1.2188,1.306,1.4022,1.5289,1.5784,1.5784,1.5784,1.5784,1.5784,1.5784,1.5784,1.5784,2.3131,0.0,0.0,0.0,0.0,2.3289,2.5475,2.6983,2.8586,0.0,3.1577,0.0,3.3337,0.0,3.3393,0.0,3.2925,3.1619,2.9062,2.7664,0.0,2.4218,2.2432,0.0,0.0,0.0,0.0,0.0,0.0,1.4162,0.0,0.0,0.0,0.0,0.0,1.5051,1.5838,1.714,1.8397,0.0,0.0,2.3883,0.0,0.0,2.4384,2.3588,0.0,2.4731,2.4791,2.3514,2.3313,2.3517,2.2752,2.2437,2.2442,2.3152,2.2749,2.1981,2.1817,2.1481,2.0702,1.866,1.766,0.0,1.44,0.0,0.0,0.0,0.0,0.0,0.0,0.0,0.0,0.0,0.0,0.0,0.0,0.0,0.0,0.0,0.0,0.0,0.0,0.0,0.4883,0.5738,0.5914,0.0,0.0,0.8354,0.927,0.9686,1.1001,1.2142,1.3064,1.3898,1.478,1.5631,1.4464,1.3926,1.3824,1.1648,1.1116,1.1945,1.2382,1.3102,1.3968,1.4806,1.5099,1.5092,1.4615,1.4418,1.4465,1.4949,1.5099,1.5194,0.0,0.0,0.0,0.0,2.2489,0.0,0.0,0.0,2.8599,0.0,3.107,3.1982,3.3441,3.3589,3.3844,3.4503,3.3718,3.219,2.9812,2.8549,0.0,0.0,2.4008,2.3023,2.2472,0.0,0.0,0.0,0.0,0.0,0.0,0.0,0.0,0.0,1.5214,0.0,1.6589,1.8607,2.005,2.1214,2.399,2.504,2.5016,2.5052,2.4445,2.3818,2.5756,2.5838,2.5087,2.5016,2.5052,2.4898,2.3891,2.4228,2.4909,2.4445,2.4312,2.4226,2.3694,2.2307,2.0764,1.9815,1.8831,0.0,0.0,0.0,1.5684,0.0,0.0,0.0,0.0,0.0,0.0,0.0,0.0,0.0,0.0,0.0,0.0,0.0,0.0,0.0,0.0,0.0,0.4348,0.466,0.4687,0.0,0.0,0.7049,0.803,0.8294,0.9729,1.118,1.2622,1.303,1.3896,1.5305,1.4432,1.3974,1.3974,1.2624,1.2042,1.2139,1.3392,1.3926,1.3974,1.3974,1.3974,1.3776,1.2479,1.1896,1.1945,1.3295,1.383,1.407,2.3388,2.4159,2.48,0.0,2.4154,2.4512,0.0,0.0,0.0,0.0,3.2522,3.3472,3.4848,3.4996,3.5055,3.5235,3.5041,0.0,0.0,0.0,0.0,2.9373,2.6955,2.5347,2.477,2.2472,0.0,1.9849,0.0,0.0,1.5915,0.0,0.0,0.0,0.0,0.0,1.7362,1.8539,2.0702,2.3479,2.5349,2.5664,2.5075,0.0,2.5476,2.4671,2.5194,2.5699,2.599,2.5264,2.5488,2.5955,2.4921,2.4791,2.5122,2.5714,2.5375,2.4778,2.4648,2.4293,2.3433,2.1411,2.0221,1.9179,1.7668,0.0,0.0,0.0,0.0,0.0,0.0,0.0,0.0,0.0,0.0,0.0,0.0,0.0,0.0,0.0,0.0,0.0,0.0,0.0,0.4467,0.4542,0.4655,0.0,0.0,0.0,0.655,0.6991,0.8438,0.952,1.0185,1.2169,1.3531,1.4127,1.4918,1.5289,1.5289,1.3974,1.3884,1.4758,1.4172,1.4459,1.5289,1.5289,1.4752,1.3878,1.3536,1.2183,1.0632,1.1945,1.3054,1.3974,2.4552,0.0,0.0,2.6876,0.0,0.0,2.7767,2.8181,0.0,3.1691,3.2899,0.0,3.4547,3.516,3.5504,3.5504,3.51,0.0,3.3627,0.0,0.0,2.9903,2.8372,2.7042,2.6034,2.4205,0.0,2.0691,0.0,0.0,1.6497,0.0,0.0,0.0,0.0,1.7022,1.7767,1.9739,2.2212,2.493,2.6055,2.6164,0.0,2.628,2.6129,2.5664,2.5664,2.6025,2.6418,2.5838,2.6025,2.6383,2.5838,2.5664,2.5769,2.6349,2.6094,2.5676,2.5654,2.5328,2.4668,2.3296,2.1945,2.0624,1.9469,1.9057,1.8763,0.0,1.8495,1.855,0.0,0.0,0.0,0.0,0.0,0.0,0.0,0.0,0.0,0.0,0.0,0.0,0.0,0.0,0.0,0.0,0.0,0.0,0.0,0.0,0.6006,0.6497,0.7427,0.8535,0.9876,1.1573,1.3054,1.4283,1.5296,1.5784,1.5784,1.5051,1.5099,1.5778,1.5045,1.514,1.5778,1.5194,1.422,1.2909,1.1789,1.0427,0.9217,0.9948,1.1404,1.3102,0.0,0.0,0.0,0.0,0.0,0.0,0.0,2.9609,0.0,3.16,0.0,3.3754,3.3754,3.4801,3.5504,3.5504,0.0,3.3815,3.2873,3.2013,3.0855,2.9299,2.9207,2.847,2.6851,2.6,0.0,0.0,0.0,0.0,0.0,0.0,0.0,0.0,0.0,0.0,0.0,2.1499,2.3973,2.5762,2.6373,2.665,2.6713,2.6713,2.6713,2.6713,2.6713,2.6612,2.6499,2.6499,2.6499,2.6499,2.6499,2.6499,2.6499,2.6499,2.6499,2.6499,2.6499,2.5859,2.5164,2.5046,2.3691,2.213,2.1179,2.0294,1.963,1.9506,1.8867,1.876,2.0183,0.0,0.0,0.0,0.0,0.0,0.0,0.0,0.0,0.0,0.0,0.0,0.0,0.0,0.0,0.0,0.0,0.0,0.0,0.0,0.5959,0.647,0.6742,0.7994,1.0351,1.114,1.2603,1.4784,1.5458,1.5784,1.5784,1.5784,1.5784,1.5784,1.5784,1.5784,1.573,1.4609,1.3253,1.1653,0.9019,0.7988,0.7988,0.7988,0.9554,1.1848,0.0,0.0,0.0,0.0,0.0,3.1501,3.1775,3.1928,3.2273,3.3051,3.4322,3.516,3.516,3.537,3.5504,3.5504,3.5359,0.0,0.0,0.0,0.0,3.1962,3.1196,3.0065,2.8511,2.659,2.4644,0.0,0.0,0.0,0.0,0.0,0.0,0.0,0.0,0.0,2.0339,2.274,0.0,2.6386,2.6952,2.7406,2.7821,2.7821,2.7821,2.7821,2.7821,2.7231,2.6499,2.6499,2.6499,2.6499,2.6499,2.6499,2.6499,2.6499,2.6499,2.6499,2.6499,2.6368,2.6037,2.5223,2.4727,2.3998,2.2196,2.1651,2.1297,2.0516,2.0263,2.0017,1.9584,0.0,0.0,0.0,0.0,0.0,0.0,0.0,0.0,0.0,0.0,0.0,0.0,0.0,0.0,0.0,0.0,0.0,0.0,0.0,0.574,0.632,0.6586,0.7543,0.0,1.0735,1.2193,1.3541,1.5071,1.5784,1.5784,1.5784,1.5784,1.5784,1.5784,1.5784,1.5778,1.5581,1.4082,1.1653,0.9019,0.7988,0.7988,0.7988,0.897,1.0534,0.0,0.0,0.0,0.0,0.0,0.0,0.0,3.3619,3.3933,3.3544,3.4053,3.4457,3.4457,3.5085,3.5504,3.5504,3.5504,3.5504,3.5504,3.4543,3.3808,3.3345,3.2429,0.0,2.9694,2.8053,2.5871,2.3108,0.0,0.0,0.0,0.0,0.0,0.0,0.0,1.9196,0.0,0.0,2.5209,2.6562,2.7369,2.7871,2.8109,2.8109,2.8109,2.8109,2.8109,2.777,2.7318,2.7318,2.7165,2.6927,2.6927,2.6725,2.6499,2.6499,2.6499,2.6499,2.6499,2.6499,2.638,2.5906,2.5387,2.4752,2.3779,2.3172,2.2506,2.1533,2.1343,2.0919,1.9565,1.7653,0.0,0.0,0.0,0.0,0.0,0.0,0.0,0.0,0.0,0.0,0.0,0.0,0.0,0.0,0.0,0.0,0.0,0.5125,0.5555,0.0,0.0,0.0,0.9744,0.0,1.2376,1.4141,1.5265,1.5784,1.5784,1.5784,1.5784,1.5784,1.5784,1.5784,1.573,1.5099,1.3638,1.1702,0.9801,0.8627,0.7988,0.7988,0.8874,1.0194,0.0,3.4213,0.0,0.0,3.4734,3.5233,3.4312,3.5145,3.5429,3.4098,3.3918,3.3918,3.3918,3.4876,3.5504,3.5504,3.5504,3.5504,3.5504,3.4758,3.4211,3.4027,3.3276,3.2173,3.0619,2.9574,2.7274,0.0,0.0,0.0,0.0,0.0,0.0,0.0,0.0,0.0,0.0,2.4368,2.5762,2.709,2.7934,2.836,2.8461,2.8461,2.8461,2.8461,2.8461,2.8461,2.8461,2.8461,2.8009,2.7457,2.7457,2.719,2.6851,2.6851,2.6747,2.6678,2.6684,2.6587,2.6499,2.6499,2.5906,2.5263,2.5051,2.4212,2.3215,2.2205,2.1842,2.1221,1.9593,1.8282,0.0,0.0,0.0,0.0,0.0,0.0,0.0,0.0,0.0,0.0,0.0,0.0,0.0,0.0,0.0,0.0,0.4901,0.5022,0.5447,0.618,0.6405,0.7792,1.0507,0.0,1.27,1.5015,1.5551,1.5784,1.5784,1.5784,1.5784,1.5784,1.5784,1.5784,1.5683,1.4411,1.3102,1.175,1.0485,0.9167,0.7988,0.7988,0.8676,0.9801,0.0,0.0,0.0,0.0,0.0,3.5677,3.6151,3.6791,3.6761,3.5489,3.531,3.531,3.531,3.5429,3.5504,3.5504,3.5504,3.5504,3.5504,3.5392,3.4953,3.4027,3.391,3.3003,3.1175,3.0543,2.863,0.0,0.0,2.1741,0.0,0.0,0.0,0.0,0.0,2.2488,2.46,2.5259,2.6753,2.8662,2.8775,2.9164,2.9628,2.9628,2.9628,2.9628,2.9628,2.9628,2.9628,2.9628,2.8913,2.8034,2.8034,2.7996,2.7946,2.7946,2.7594,2.7245,2.7236,2.6876,2.6499,2.6499,2.6427,2.6108,2.5203,2.4211,2.321,2.2189,2.1326,2.0447,1.949,1.9455,1.9113,0.0,0.0,0.0,0.0,0.0,0.0,0.0,0.0,0.0,0.0,0.0,0.0,0.0,0.0,0.0,0.4931,0.5022,0.5315,0.583,0.6254,0.7717,1.0218,1.1074,1.27,1.5015,1.5551,1.5784,1.5784,1.5784,1.5784,1.5784,1.5784,1.5784,1.5683,1.4411,1.3102,1.175,1.0485,0.9167,0.7988,0.7988,0.8088,0.8528,0.0,0.0,0.0,0.0,0.0,0.0,0.0,3.7494,3.7554,3.6746,3.6641,3.6641,3.6641,3.6312,3.6088,3.6088,3.5729,3.5504,3.5504,3.5504,3.5326,3.4905,3.4905,3.4182,3.2659,3.1723,3.0228,0.0,0.0,0.0,0.0,0.0,0.0,2.1829,2.296,2.4337,2.5862,2.6741,2.7808,2.8925,2.9302,2.9578,2.9792,2.9792,2.9792,2.9792,2.9792,2.9792,2.9792,2.9792,2.9264,2.8562,2.8562,2.8373,2.8109,2.8109,2.7959,2.7794,2.7786,2.7377,2.6979,2.6971,2.6737,2.638,2.5977,2.5576,2.4856,2.3218,2.1662,2.0498,2.0155,1.9775,1.9399,1.8974,0.0,0.0,0.0,0.0,0.0,0.0,0.0,0.0,0.0,0.0,0.0,0.0,0.0,0.0,0.4795,0.4891,0.5428,0.6445,0.0,0.8531,1.0957,1.1981,1.3347,1.5015,1.5551,1.5784,1.5784,1.5784,1.6197,1.6897,1.6109,1.6251,1.685,1.5568,1.3788,1.1848,1.1365,0.985,0.7988,0.7988,0.7988,0.8382,3.7507,0.0,3.6956,0.0,3.6956,3.6731,3.7838,3.8287,3.8377,3.8048,3.8003,3.7853,3.7449,3.7015,3.6761,3.6761,3.6163,3.5789,3.5789,3.5609,3.5504,3.5504,3.5504,0.0,3.3733,3.2588,3.1362,2.9984,2.6971,0.0,0.0,0.0,2.3201,2.4155,2.5121,2.6151,2.7266,2.8009,2.8674,2.9176,2.9628,2.9792,2.9792,2.9792,2.9792,2.9792,2.9792,2.9792,2.9792,2.9792,2.9528,2.9176,2.9176,2.8913,2.8599,2.8599,2.8487,2.8325,2.8342,2.7954,2.7544,2.7519,2.7129,2.6728,2.6751,2.6399,2.5472,2.3468,2.1731,2.0605,2.0605,2.0102,1.9661,1.9534,0.0,0.0,0.0,0.0,0.0,0.0,0.0,1.324,1.282,0.0,0.0,0.0,0.0,0.0,0.0,0.5343,0.5946,0.0,0.0,0.0,1.1604,1.2691,1.3812,1.5015,1.5551,1.5784,1.5784,1.5784,1.648,1.7645,1.6339,1.6527,1.7598,1.6339,1.4513,1.2431,1.2042,1.0534,0.8528,0.8137,0.8237,0.892,3.7404,3.7404,3.7599,3.8257,3.8362,3.8586,3.9254,3.9394,3.9394,3.9394,3.9394,3.8886,3.7554,3.7404,3.7404,3.7404,3.6836,3.6477,3.6477,3.5863,3.5504,0.0,0.0,3.5019,3.4027,3.3087,3.1873,3.0393,0.0,0.0,2.6436,2.5845,2.5896,2.6474,2.704,2.7871,2.8863,2.8875,2.9252,2.9779,2.9792,2.9792,2.9792,2.9792,2.9792,2.9792,2.9792,2.9792,2.9792,2.9792,2.9792,2.9779,2.9779,2.9779,2.9779,2.9779,2.9365,2.89,2.8875,2.851,2.8083,2.8096,2.7691,2.7287,2.7283,2.6116,2.4437,2.2418,2.1278,2.0605,2.0605,2.0595,2.0166,1.8834,0.0,0.0,0.0,0.0,0.0,0.0,1.4921,1.3938,1.3519,0.0,0.0,0.0,0.0,0.0,0.0,0.0,0.0,0.7482,0.8931,0.0,1.189,1.2778,1.3812,1.5015,1.5551,1.5784,1.5784,1.5784,1.648,1.7645,1.6339,1.6527,1.7598,1.6339,1.5045,1.3734,1.2431,1.1121,0.9805,0.8482,0.8825,1.0145,3.8745,3.8745,3.8841,3.905,3.9095,3.917,3.9394,3.9388,3.9388,3.9388,3.9388,3.926,3.8826,3.8362,3.8078,0.0,3.7479,3.712,0.0,3.6926,3.6611,3.6193,3.6178,3.5806,3.5034,3.3437,3.2157,3.1275,0.0,0.0,2.7582,2.7783,2.7959,2.816,2.8737,2.9189,2.9515,2.9515,2.9616,2.9792,2.9792,2.9792,2.9792,2.9792,2.9792,2.9792,2.9792,2.9792,2.9792,2.9792,2.9792,2.9792,2.9792,2.9792,2.9792,2.9792,2.9666,2.9515,2.9516,2.9076,2.8637,2.8662,2.8248,2.7752,2.7398,2.6128,2.4636,2.3288,2.2248,2.1347,2.0712,2.0605,2.0285,1.9231,1.9209,0.0,1.7594,0.0,0.0,0.0,1.5445,1.4844,0.0,1.4337,0.0,0.0,0.0,0.0,0.0,0.0,0.0,0.0,1.0477,0.0,1.3041,1.3978,1.4689,1.5264,1.5645,1.5784,1.5832,1.6716,1.777,1.891,1.8488,1.9031,1.9988,1.7948,1.6297,1.4934,1.2753,1.1116,0.9948,0.9509,0.9657,1.0288,3.9388,3.9388,3.9388,3.9388,3.9388,3.9388,3.9388,3.9388,3.9388,3.9388,3.9388,3.9388,3.9388,3.9035,0.0,3.8781,3.8153,3.7778,3.7778,3.7539,3.724,3.6851,3.6836,3.6641,3.6222,3.4418,3.3326,3.293,3.0803,2.9388,2.875,2.9089,2.9252,2.9264,2.9628,2.9792,2.9792,2.9792,2.9792,2.9792,2.9792,2.9792,2.9792,2.9792,2.9792,2.9792,2.9792,2.9792,2.9792,2.9792,2.9792,2.9792,2.9792,2.9792,2.9792,2.9792,2.9792,2.9792,2.9792,2.9528,2.9226,2.9246,2.8811,2.82,2.7477,2.6275,2.5078,2.4218,2.2981,2.1834,2.125,2.0837,2.0323,1.943,1.9315,1.885,1.7575,0.0,0.0,0.0,0.0,0.0,0.0,1.5557,1.5446,0.0,0.0,0.0,0.0,0.0,0.988,1.0466,1.1963,1.3121,1.3926,1.4743,1.5217,1.5398,1.5691,1.5784,1.5832,1.6615,1.7902,1.9488,1.8993,1.9761,2.1114,1.868,1.7196,1.6176,1.3086,1.1414,1.0681,1.0194,1.0293,1.1019,3.9448,3.9493,3.9508,3.9499,3.9448,3.9433,3.9388,3.9388,3.9388,3.9388,3.9388,3.9388,3.9388,3.9388,3.9388,3.9388,0.0,0.0,3.8467,3.7898,3.7524,3.7479,3.7479,3.7464,3.7404,3.5877,3.5035,3.495,3.2568,3.0898,2.9958,2.992,2.9856,2.9792,2.9792,2.9792,2.9792,2.9792,2.9792,2.9792,2.9792,2.9792,2.9792,2.9792,2.9792,2.9792,2.9792,2.9792,2.9792,2.9792,2.9792,2.9792,2.9792,2.9792,2.9792,2.9792,2.9792,2.9792,2.9792,2.9792,2.9792,2.9792,2.9333,2.866,2.764,2.6663,2.5793,2.5192,2.3591,2.2216,2.2024,2.1286,2.04,1.9437,1.9314,1.886,1.7566,1.7017,0.0,0.0,0.0,0.0,1.5586,1.6336,1.6814,0.0,0.0,0.0,0.0,0.0,1.1002,1.1611,1.3244,1.4269,1.4576,1.5124,1.5404,1.5431,1.5698,1.5784,1.5784,1.5872,1.725,1.9451,1.8411,1.9268,2.1248,1.8818,1.7824,1.7444,1.3573,1.2042,1.1896,1.073,1.1023,1.2237,0.0,0.0,4.0756,4.0247,4.0172,3.9993,3.9499,3.9388,3.9388,3.9388,3.9388,3.9388,3.9388,3.9388,3.9388,3.9388,3.9275,3.917,3.917,3.9,3.8706,3.8182,3.8153,3.7913,3.7419,3.6315,3.5396,3.4668,3.3601,3.254,3.1613,3.1117,3.0482,2.9792,2.9792,2.9792,2.9792,2.9792,2.9792,2.9792,2.9792,2.9792,2.9792,2.9792,2.9792,2.9792,2.9792,2.9792,2.9792,2.9792,2.9792,2.9792,2.9792,2.9792,2.9792,2.9792,2.9792,2.9792,2.9792,2.9792,2.9792,2.9792,2.9333,2.8816,2.8599,2.8014,2.7185,2.5875,2.5215,2.4296,2.2354,2.1838,2.1161,1.954,1.9307,1.8869,1.7579,1.73,1.7187,0.0,1.7266,1.7393,1.7393,1.7837,1.7886,0.0,0.0,1.6448,1.6289,1.4936,1.381,1.3138,1.3942,1.4669,1.5184,1.5324,1.5504,1.5732,1.5751,1.5784,1.5832,1.681,1.8087,1.9542,2.0169,2.1302,2.2492,2.0087,1.9085,1.871,1.4899,1.344,1.3392,1.3102,1.3151,1.359,4.0846,4.113,4.1265,4.0905,4.0846,4.0726,4.0367,4.0307,4.0307,4.0307,4.0307,4.0307,4.0307,4.0307,4.0187,3.9888,3.9589,3.9388,3.9388,3.9388,3.9245,3.8871,3.8856,3.8691,3.8332,3.7517,3.6504,3.5246,3.4871,3.4228,3.3287,3.2435,3.1744,3.1241,3.0745,3.052,3.052,3.052,3.052,3.0495,3.0269,3.0168,3.0143,2.9892,2.9792,2.9792,2.9792,2.9792,2.9792,2.9792,2.9792,2.9792,2.9792,2.9792,2.9792,2.9792,2.9792,2.9702,2.9145,2.9404,2.9792,2.9792,2.9537,2.9246,2.8973,2.8675,2.815,2.7066,2.6295,2.5236,2.3393,2.2334,2.1174,1.9551,1.9111,1.8606,1.7563,1.755,1.7664,1.7666,1.8037,1.8379,1.8574,1.8975,1.8955,1.8335,1.7976,0.0,1.7685,1.6959,1.5927,1.4605,1.4797,1.5077,1.5391,1.5524,1.5671,1.5784,1.5784,1.5784,1.5825,1.7131,1.8365,1.9588,2.08,2.1658,2.2129,2.026,1.9177,1.8349,1.5149,1.3926,1.3926,1.3926,1.3926,1.407,4.1519,4.1609,4.1654,4.1587,4.1572,4.1527,4.1437,4.1422,4.1422,4.1422,4.1422,4.1422,4.1422,4.1422,4.116,4.0591,4.0038,3.9634,3.9388,3.9388,3.9388,3.9388,3.9388,3.9388,3.9388,3.8841,3.7875,3.6504,3.6388,3.5877,3.492,3.3786,3.3258,3.3208,3.1997,3.1539,3.1618,3.1468,3.1386,3.1348,3.0909,3.0733,3.0683,3.0206,3.003,3.003,3.003,2.9994,2.9932,2.9905,2.9867,2.9792,2.9792,2.9792,2.9753,2.9573,2.9663,2.9585,2.8636,2.9067,2.9792,2.9792,2.9792,2.9679,2.9139,2.9051,2.8875,2.8323,2.7189,2.5895,2.4728,2.3054,2.1329,1.9766,1.9046,1.8403,1.7598,0.0,1.8135,1.8193,1.8539,1.8968,1.9434,1.9805,1.9893,1.96,1.9426,1.9363,1.9427,1.8759,1.7811,1.6505,1.5953,1.5596,1.5464,1.5705,1.592,1.6062,1.5872,1.592,1.6109,1.699,1.818,1.9534,2.0576,2.1114,2.1203,1.9988,1.8772,1.7451,1.5121,1.4166,1.4166,1.4166,1.4166,1.4364,4.2216,4.2656,4.2851,4.2336,4.2246,4.2051,4.1512,4.1422,4.1422,4.1422,4.1422,4.1422,4.1422,4.1422,4.1339,4.1235,4.113,4.0606,3.9448,3.9388,3.9388,3.9388,3.9388,3.9388,3.9388,3.932,3.9128,3.8865,3.8284,3.7561,3.6609,3.5234,3.4496,3.4279,3.2619,3.2241,3.2673,3.1779,3.1386,3.1386,3.1298,3.1273,3.126,3.1173,3.1148,3.1148,3.1148,3.0882,3.0469,3.0473,3.0181,2.9792,2.9792,2.9792,2.9624,2.8648,2.9067,2.9753,2.9573,2.9663,2.9792,2.9792,2.9792,2.9767,2.9692,2.9679,2.9478,2.8875,2.8575,2.7829,2.5908,2.4642,2.3113,2.0919,1.9787,1.8887,1.8037,0.0,1.8637,1.9043,1.9463,1.9883,2.0361,2.0458,2.0596,2.0869,2.0895,2.1038,2.1445,2.0719,2.0155,1.992,1.7966,1.6532,1.5758,1.5758,1.6339,1.7412,1.6292,1.6339,1.7365,1.648,1.7343,1.9488,1.9716,2.035,2.1203,1.9988,1.8772,1.7552,1.6096,1.5486,1.5486,1.5486,1.5486,1.5534,4.2865,4.3135,4.32,4.294,4.288,4.2776,4.2476,4.2432,4.2432,4.2432,4.2432,4.2432,4.2432,4.2432,4.2282,4.1976,4.1946,4.1542,4.0531,4.0472,4.0322,3.9963,3.9948,3.9783,3.9388,3.9388,3.9388,3.9388,3.9095,3.8716,3.8252,3.7054,3.6393,3.6264,3.4897,3.4139,3.3872,3.3398,3.2848,3.2277,3.1951,3.1838,3.18,3.1499,3.1386,3.1386,3.1386,3.1251,3.1037,3.1022,3.0668,3.0227,3.0217,3.003,2.9714,2.9157,2.8937,2.9028,2.9624,2.9792,2.9792,2.9792,2.9792,2.9792,2.9792,2.9792,2.9716,2.9453,2.9151,2.845,2.7007,2.5638,2.4169,2.2222,2.0923,1.9858,1.9134,1.9163,1.9358,1.96,2.0215,2.0703,2.0908,2.1143,2.1357,2.1562,2.1582,2.1768,2.2197,2.1873,2.1485,2.1022,1.9322,1.8232,1.7801,1.7801,1.8079,1.868,1.8079,1.7762,1.7692,1.7762,1.8395,1.9542,2.0169,2.08,2.1248,2.0711,1.936,1.7638,1.7037,1.6386,1.5784,1.5784,1.5784,1.5784,4.329,4.329,4.329,4.329,4.329,4.329,4.329,4.329,4.329,4.329,4.329,4.329,4.329,4.329,4.3135,4.2626,4.262,4.241,4.1863,4.1833,4.1474,4.0666,4.0487,4.0098,3.9388,3.9388,3.9388,3.9388,3.9388,3.9388,3.9388,3.8546,3.8182,3.8107,3.6803,3.6065,3.5751,3.4749,3.403,3.3526,3.2731,3.2416,3.2365,3.1938,3.1775,3.1775,3.1775,3.173,3.1564,3.1596,3.1245,3.0776,3.0781,3.0507,3.0143,3.0018,2.9295,2.8688,2.9573,2.9792,2.9792,2.9792,2.9792,2.9792,2.9792,2.9792,2.9792,2.9792,2.944,2.8849,2.7989,2.6684,2.5283,2.3852,0.0,2.1105,2.0509,2.0299,2.0215,2.0215,2.0869,2.1346,2.1346,2.2004,2.2302,2.2073,2.2359,2.2599,2.2646,2.2656,2.2351,2.1747,2.026,1.9497,1.9497,1.9497,1.9625,1.9898,1.9625,1.9177,1.8549,1.9222,1.967,1.9988,2.089,2.1293,2.1293,2.1293,2.0034,1.8141,1.8141,1.7537,1.6655,1.6655,1.6473,1.6244,4.329,4.329,4.329,4.329,4.329,4.329,4.329,4.329,4.329,4.329,4.329,4.329,4.329,4.329,4.3275,4.323,4.3215,4.32,4.3155,4.314,4.2626,4.1369,4.0726,4.0098,3.9388,3.9388,3.9388,3.9388,3.9388,3.9388,3.9388,3.9301,3.9265,3.9199,3.7132,3.7272,3.8817,3.4875,3.3936,3.4916,3.3569,3.3018,3.3048,3.3011,3.2955,3.2955,3.2955,3.2616,3.2135,3.2164,3.1788,3.1336,3.1336,3.1298,3.1173,3.0696,3.0142,2.9702,2.9792,2.9792,2.9792,2.9792,2.9792,2.9792,2.9792,2.9792,2.9792,2.9792,2.9754,2.9527,2.8912,2.7994,2.6974,2.5945,0.0,0.0,2.2086,2.1516,2.1093,2.1093,2.1553,2.1836,2.1836,2.3165,2.3587,2.2546,2.3766,2.4129,2.3086,2.3052,2.3018,2.296,2.0719,1.9497,1.9497,1.9497,2.0079,2.1159,2.0034,2.0034,2.098,1.9988,2.0124,2.1159,2.1248,2.1293,2.1293,2.1293,2.0531,1.936,1.936,1.9314,1.9222,1.9222,1.8495,1.7552,4.3409,4.3935,4.4213,4.3433,4.4289,4.4675,4.3472,4.329,4.329,4.329,4.329,4.329,4.329,4.329,4.329,4.329,4.329,4.329,4.329,4.329,4.2925,4.2066,4.1392,4.0891,4.0651,4.0232,4.0023,4.0023,3.9619,3.9388,3.9388,3.9388,3.9388,3.9373,3.8561,3.8273,3.8321,3.6715,3.5585,3.4839,3.4288,3.367,3.3124,3.3124,3.3124,3.3124,3.3124,3.293,3.2754,3.2754,3.2365,3.1901,3.1901,3.1662,3.1286,3.0771,3.047,3.0231,2.988,2.9792,2.9792,2.9792,2.9792,2.9792,2.9792,2.9792,2.9792,2.9792,2.9792,2.9729,2.9503,2.8847,2.8144,2.7421,0.0,2.4774,2.3626,2.2965,2.2392,2.1712,2.2012,2.2275,2.2275,2.302,2.3634,2.3922,2.3829,2.3887,2.4125,2.3464,2.3091,2.3091,2.2227,2.173,2.173,2.173,2.1952,2.2403,2.1952,2.1578,2.1293,2.0845,2.089,2.1293,2.1293,2.1702,2.2403,2.2403,2.1712,2.0621,2.0621,2.0169,1.9497,1.9497,1.9222,1.8818,4.4074,4.4615,4.4995,4.4327,4.5327,4.5674,4.4151,4.3536,4.3409,4.3747,4.3488,4.329,4.329,4.329,4.329,4.329,4.329,4.329,4.329,4.329,4.3045,4.2425,4.1976,4.1632,4.1422,4.0935,4.0711,4.0711,4.0247,3.9956,3.9793,3.9747,3.9591,3.9399,3.9382,3.898,3.8271,3.7809,3.7092,3.6088,3.5087,3.4343,3.3705,3.3253,3.3124,3.3124,3.3124,3.3124,3.3124,3.3124,3.2805,3.2478,3.2478,3.2102,3.1574,3.1223,3.0871,3.0532,3.0156,2.993,2.9792,2.9792,2.9792,2.9792,2.9792,2.9792,2.9792,2.9792,2.9792,2.9792,2.9792,2.9465,2.9073,2.8706,2.7735,2.671,2.5594,2.4551,2.3659,2.2915,2.2732,2.2834,2.3198,2.3801,2.4467,2.5252,2.4914,2.4872,2.5294,2.4253,2.3627,2.3627,2.3309,2.3091,2.3091,2.3091,2.3091,2.3091,2.3091,2.2677,2.1845,2.1845,2.1845,2.1845,2.1845,2.235,2.3091,2.3091,2.2633,2.1845,2.1845,2.1346,2.0629,2.0629,2.0395,2.0079,4.5363,4.5217,4.5421,4.6103,4.6208,4.5996,4.5327,4.4151,4.3708,4.4662,4.3966,4.3329,4.3329,4.3329,4.3329,4.3329,4.329,4.329,4.329,4.329,4.3045,4.2425,4.241,4.2111,4.1452,4.1384,4.1384,4.1384,4.1422,4.1159,4.0702,4.0517,4.0055,3.941,3.9414,3.9439,3.9301,3.7947,3.813,3.911,3.6007,3.4934,3.5067,3.362,3.3124,3.3124,3.3124,3.3124,3.3124,3.3124,3.3124,3.3124,3.3124,3.2679,3.2227,3.2215,3.1461,3.062,3.062,3.0218,2.9804,2.9792,2.9792,2.9792,2.9792,2.9792,2.9792,2.9792,2.9792,2.9792,2.9792,2.9792,2.9792,2.9792,2.8846,2.8124,2.8089,2.6225,2.483,2.483,2.38,2.3551,2.4702,2.585,2.6524,2.6513,2.7481,2.7643,2.6565,2.542,2.483,2.483,2.3714,2.3135,2.3135,2.3091,2.3091,2.3091,2.3091,2.3091,2.3091,2.3091,2.3091,2.3091,2.3091,2.3091,2.3091,2.3091,2.3091,2.3091,2.3091,2.3091,2.3091,2.3091,2.235,2.1293,4.777,4.734,4.7155,4.8015,4.8144,4.808,4.7901,4.6781,4.5925,4.5798,4.5509,4.5327,4.5327,4.4743,4.4373,4.4373,4.3708,4.329,4.329,4.329,4.32,4.3045,4.3045,4.2955,4.2761,4.2312,4.2111,4.2111,4.1647,4.1339,4.1189,4.1145,4.0988,4.0793,4.0793,4.0786,4.0786,4.0374,3.9977,3.9502,3.7742,3.6639,3.5933,3.4265,3.3658,3.3608,3.3262,3.3124,3.3124,3.3124,3.3124,3.3124,3.3124,3.2998,3.2742,3.2328,3.1989,3.1574,3.0821,3.0495,3.0281,2.9892,2.9792,2.9792,2.9792,2.9792,2.9792,2.9792,2.9792,2.9792,2.9792,2.9792,2.9792,2.9792,2.9495,2.9018,2.8191,2.7532,2.6819,2.6088,2.5683,2.5599,2.5975,2.6307,2.6801,2.7562,2.7936,2.7643,2.6565,2.6182,2.5975,2.5975,2.5641,2.5484,2.5484,2.3887,2.3091,2.3091,2.3091,2.3091,2.3091,2.3091,2.3091,2.3091,2.3091,2.3091,2.3091,2.3091,2.3091,2.3091,2.3091,2.3091,2.3091,2.3091,2.2862,2.2536,4.8892,4.8545,4.8321,4.8892,4.9001,4.9001,4.9001,4.7901,4.702,4.6765,4.6419,4.6208,4.6208,4.569,4.5358,4.5358,4.4457,4.3888,4.3888,4.3512,4.329,4.329,4.329,4.329,4.329,4.294,4.2746,4.2746,4.2342,4.2147,4.2147,4.1893,4.1811,4.1796,4.1527,4.1422,4.1422,4.1422,4.105,4.0295,3.8666,3.7631,3.6927,3.4976,3.4223,3.4173,3.3847,3.3583,3.3407,3.3407,3.3257,3.3124,3.3124,3.3124,3.3048,3.2654,3.239,3.2077,3.1424,3.1085,3.0796,3.0256,2.9955,2.9792,2.9792,2.9792,2.9792,2.9792,2.9792,2.9792,2.9792,2.9792,2.9792,2.9792,2.9792,2.9585,2.8858,2.8386,2.7844,2.7209,2.676,2.6678,2.7087,2.7128,2.7574,2.8688,2.8767,2.849,2.7839,2.7383,2.7128,2.7128,2.6719,2.6524,2.6524,2.5136,2.4221,2.3757,2.3299,2.3091,2.3091,2.3091,2.3091,2.3091,2.3091,2.3091,2.3091,2.3091,2.3091,2.3091,2.3091,2.3091,2.3091,2.3091,2.3091,2.3091,4.9001,4.9001,4.9001,4.9001,4.9001,4.9001,4.9001,4.8015,4.7373,4.7704,4.6986,4.6454,4.6454,4.6384,4.6314,4.6314,4.5468,4.4909,4.4909,4.4066,4.3512,4.3448,4.3433,4.3409,4.329,4.329,4.329,4.329,4.329,4.329,4.329,4.2731,4.2485,4.2455,4.1818,4.1549,4.1549,4.1549,4.1549,4.1381,3.9215,3.838,3.8159,3.5823,3.4924,3.4911,3.4738,3.4399,3.396,3.3922,3.3533,3.3124,3.3124,3.3124,3.3124,3.3124,3.2704,3.2277,3.2227,3.1838,3.1336,3.0821,3.0269,2.9854,2.9804,2.9792,2.9792,2.9792,2.9792,2.9792,2.9792,2.9792,2.9792,2.9792,2.9792,2.9792,2.9792,2.8897,2.8255,2.8255,2.7371,2.7168,2.8176,2.8255,2.8676,2.9702,2.9792,2.9792,2.9792,2.8819,2.8255,2.8255,2.729,2.6801,2.6801,2.6678,2.6047,2.4957,2.38,2.3256,2.3266,2.3135,2.3091,2.3091,2.3091,2.3091,2.3091,2.3222,2.3256,2.3266,2.3343,2.3387,2.3387,2.3309,2.3256,2.3266,4.9001,4.9001,4.9001,4.9001,4.9001,4.9001,4.9001,4.875,4.8608,4.8688,4.8513,4.8401,4.8401,4.7737,4.7306,4.7306,4.6435,4.5905,4.5905,4.569,4.5232,4.451,4.4472,4.412,4.3329,4.329,4.329,4.329,4.329,4.329,4.329,4.3155,4.312,4.312,4.2931,4.2871,4.2871,4.2871,4.2871,4.2777,4.1403,4.0839,4.0532,3.7782,3.6724,3.6538,3.5167,3.465,3.4474,3.4048,3.3533,3.3124,3.3124,3.3124,3.3124,3.3124,3.2993,3.2792,3.234,3.2127,3.1901,3.1361,3.0821,3.0331,2.9892,2.9792,2.9792,2.9792,2.9792,2.9792,2.9792,2.9792,2.9792,2.9792,2.9792,2.9792,2.9792,2.9585,2.9443,2.9443,2.9248,2.917,2.9417,2.9443,2.9534,2.9792,2.9792,2.9792,2.9792,2.9573,2.9443,2.9443,2.9209,2.9079,2.9079,2.8187,2.7197,2.6099,2.4967,2.4414,2.4414,2.3507,2.3091,2.3091,2.3091,2.3091,2.3178,2.4049,2.4414,2.45,2.5431,2.5766,2.5641,2.4755,2.4414,2.4296,4.9001,4.9001,4.9001,4.9001,4.9001,4.9001,4.9001,4.9001,4.9001,4.9001,4.9001,4.9001,4.9001,4.8545,4.8257,4.8257,4.7406,4.6884,4.6884,4.6454,4.5977,4.5504,4.5058,4.4548,4.4043,4.3551,4.329,4.329,4.329,4.329,4.329,4.329,4.329,4.329,4.329,4.329,4.329,4.329,4.329,4.321,4.207,4.1587,4.1377,3.9296,3.8546,3.8418,3.7506,3.6666,3.5878,3.5298,3.4423,3.347,3.347,3.3294,3.3124,3.3124,3.3124,3.3048,3.2704,3.2629,3.2491,3.1913,3.1574,3.1173,3.0369,2.998,2.9792,2.9792,2.9792,2.9792,2.9792,2.9792,2.9792,2.9792,2.9792,2.9792,2.9792,2.9792,2.9792,2.9792,2.9792,2.9792,2.9792,2.9792,2.9792,2.9792,2.9792,2.9792,2.9792,2.9792,2.9792,2.9792,2.9792,2.9792,2.9792,2.9197,2.8621,2.8051,2.6378,2.5588,2.5588,2.4967,2.4425,2.392,2.4478,2.4425,2.4006,2.5126,2.5588,2.5672,2.6265,2.6524,2.6442,2.5839,2.5588,2.5473,4.9001,4.9001,4.9001,4.9001,4.9001,4.9001,4.9001,4.9001,4.9001,4.9001,4.9001,4.9001,4.9001,4.9001,4.9001,4.9001,4.8289,4.7836,4.7836,4.7088,4.6609,4.647,4.5706,4.519,4.5058,4.4066,4.3472,4.329,4.329,4.329,4.329,4.329,4.329,4.329,4.329,4.329,4.329,4.329,4.329,4.321,4.229,4.1891,4.1767,4.0618,4.0189,4.0159,3.9986,3.8891,3.751,3.7074,3.5779,3.4306,3.4204,3.3745,3.3206,3.3149,3.3124,3.3124,3.3124,3.3124,3.2968,3.2478,3.229,3.1976,3.1097,3.0394,2.9905,2.9817,2.9792,2.9792,2.9792,2.9792,2.9792,2.9792,2.9792,2.9792,2.9792,2.9792,2.9792,2.9792,2.9792,2.9792,2.9792,2.9792,2.9792,2.9792,2.9792,2.9792,2.9792,2.9792,2.9792,2.9792,2.9792,2.9792,2.9792,2.9792,2.9792,2.9792,2.7931,2.6964,2.676,2.6595,2.5964,2.5126,2.6099,2.5975,2.5168,2.6295,2.676,2.6801,2.6976,2.7058,2.7058,2.6842,2.6637,2.6348,4.9001,4.9001,4.9001,4.9001,4.9001,4.9001,4.9001,4.9001,4.9001,4.9001,4.9001,4.9001,4.9001,4.9001,4.9001,4.9001,4.8892,4.8829,4.8829,4.8688,4.8257,4.7456,4.7273,4.685,4.6048,4.5064,4.4182,4.329,4.329,4.329,4.329,4.329,4.329,4.329,4.329,4.329,4.329,4.329,4.329,4.329,4.3115,4.3076,4.2941,4.1809,4.1378,4.1253,4.0232,3.9398,3.8776,3.8693,3.7545,3.6065,3.5526,3.4641,3.3696,3.3262,3.3124,3.3124,3.3124,3.3124,3.3056,3.298,3.2591,3.2177,3.2026,3.1223,3.0369,2.9892,2.9792,2.9792,2.9792,2.9792,2.9792,2.9792,2.9792,2.9792,2.9792,2.9792,2.9792,2.9792,2.9792,2.9792,2.9792,2.9792,2.9792,2.9792,2.9792,2.9792,2.9792,2.9792,2.9792,2.9792,2.9792,2.9792,2.9792,2.9792,2.9792,2.9792,2.9507,2.8831,2.7844,2.6924,2.6431,2.6265,2.6431,2.6389,2.6348,2.7441,2.7884,2.7976,2.8949,2.9339,2.9248,2.8227,2.7279,2.6472,4.9001,4.9001,4.9001,4.9001,4.9001,4.9001,4.9001,4.9001,4.9001,4.9001,4.9001,4.9001,4.9001,4.9001,4.9001,4.9001,4.9001,4.9001,4.9001,4.9001,4.8829,4.8401,4.7868,4.7423,4.6986,4.6048,4.5379,4.4937,4.3834,4.329,4.329,4.329,4.329,4.329,4.329,4.329,4.329,4.329,4.329,4.329,4.329,4.329,4.325,4.2725,4.2548,4.2467,4.2003,4.1207,4.0434,4.0434,3.9311,3.7826,3.7597,3.669,3.5566,3.4738,3.424,3.3869,3.3283,3.3124,3.324,3.3839,3.3352,3.276,3.3016,3.2266,3.1273,3.0432,3.0005,2.9792,2.9792,2.9792,2.9792,2.9792,2.9792,2.9792,2.9792,2.9792,2.9792,2.9792,2.9792,2.9792,2.9792,2.9792,2.9792,2.9792,2.9792,2.9792,2.9792,2.9792,2.9792,2.9792,2.9792,2.9792,2.9792,2.9792,2.9792,2.9792,2.9792,2.9534,2.9028,2.8581,2.7999,2.7452,2.8079,2.7999,2.7493,2.8609,2.9067,2.9106,2.9585,2.9792,2.9753,2.9236,2.874,2.8251]}]]